GEFSSGP_prec_meanprecacc_132.txt.gz
Total_Precipitation_Accumulation
0.00 0.00 0.00 0.00 0.00 0.00 0.00 0.01 0.03 0.06 0.07 0.08 0.12 0.11 0.14 0.24 0.51 1.03 0.58 0.30 0.16 0.06 0.02 0.02 0.02 0.02 0.05 0.07 0.11 0.11 0.10 0.12 0.12 0.13 0.13 0.10 0.08 0.07 0.07 0.07 0.11 0.16 0.17 0.16 0.13 0.11 0.11 0.11 0.09
0.00 0.00 0.00 0.00 0.00 0.00 0.00 0.01 0.04 0.06 0.07 0.09 0.16 0.15 0.14 0.20 0.25 0.20 0.23 0.22 0.14 0.06 0.03 0.02 0.03 0.03 0.04 0.05 0.09 0.14 0.12 0.11 0.11 0.11 0.10 0.09 0.08 0.08 0.07 0.08 0.11 0.14 0.13 0.10 0.08 0.07 0.07 0.08 0.07
0.00 0.00 0.00 0.00 0.00 0.00 0.02 0.04 0.07 0.07 0.06 0.11 0.26 0.39 0.35 0.34 0.37 0.25 0.20 0.14 0.10 0.05 0.03 0.03 0.04 0.05 0.06 0.06 0.06 0.12 0.15 0.14 0.14 0.13 0.12 0.12 0.11 0.10 0.09 0.10 0.12 0.12 0.12 0.13 0.13 0.10 0.08 0.07 0.07
0.00 0.00 0.00 0.00 0.00 0.00 0.02 0.05 0.08 0.07 0.08 0.11 0.22 0.46 0.40 0.34 0.37 0.35 0.21 0.16 0.14 0.09 0.05 0.04 0.05 0.07 0.09 0.08 0.08 0.11 0.14 0.16 0.17 0.16 0.15 0.14 0.13 0.12 0.10 0.11 0.11 0.12 0.13 0.16 0.18 0.14 0.08 0.07 0.07
0.00 0.00 0.00 0.00 0.00 0.01 0.01 0.04 0.07 0.08 0.11 0.16 0.20 0.43 0.51 0.40 0.43 0.55 0.45 0.30 0.24 0.18 0.14 0.09 0.09 0.08 0.10 0.12 0.13 0.15 0.14 0.16 0.19 0.19 0.17 0.15 0.15 0.13 0.13 0.13 0.11 0.14 0.17 0.19 0.16 0.10 0.06 0.06 0.07
0.00 0.00 0.00 0.00 0.00 0.01 0.02 0.03 0.06 0.09 0.12 0.25 0.28 0.57 0.89 0.79 0.72 0.80 0.77 0.47 0.34 0.26 0.21 0.17 0.15 0.12 0.13 0.17 0.18 0.21 0.23 0.22 0.22 0.21 0.18 0.16 0.14 0.14 0.17 0.16 0.15 0.18 0.22 0.21 0.12 0.06 0.04 0.04 0.05
0.00 0.00 0.00 0.00 0.01 0.02 0.03 0.05 0.07 0.11 0.21 0.34 0.43 0.80 1.05 1.06 1.06 0.87 0.82 0.65 0.37 0.33 0.33 0.31 0.23 0.20 0.21 0.24 0.22 0.24 0.28 0.27 0.23 0.22 0.24 0.23 0.23 0.23 0.22 0.20 0.19 0.22 0.23 0.17 0.10 0.06 0.04 0.04 0.05
0.00 0.00 0.00 0.00 0.01 0.02 0.04 0.06 0.09 0.15 0.26 0.39 0.55 0.94 1.23 1.19 1.06 0.94 0.80 0.80 0.57 0.49 0.50 0.51 0.52 0.44 0.30 0.28 0.30 0.30 0.35 0.34 0.27 0.23 0.24 0.26 0.24 0.22 0.21 0.18 0.19 0.19 0.18 0.14 0.11 0.09 0.07 0.05 0.04
0.00 0.00 0.00 0.00 0.00 0.02 0.05 0.07 0.11 0.18 0.32 0.51 0.52 0.69 1.08 0.93 1.03 1.27 1.11 1.01 0.85 0.70 0.67 0.59 0.65 0.64 0.45 0.37 0.33 0.34 0.38 0.38 0.28 0.23 0.23 0.24 0.33 0.37 0.31 0.23 0.24 0.20 0.18 0.17 0.14 0.10 0.08 0.06 0.04
0.00 0.00 0.00 0.00 0.00 0.02 0.06 0.10 0.17 0.22 0.23 0.39 0.52 0.55 0.75 0.91 0.98 1.17 1.41 1.24 1.07 0.92 0.88 0.81 0.67 0.60 0.56 0.44 0.41 0.44 0.42 0.42 0.35 0.34 0.29 0.35 0.61 0.73 0.58 0.57 0.42 0.32 0.27 0.22 0.19 0.14 0.10 0.07 0.06
0.00 0.00 0.00 0.00 0.01 0.03 0.06 0.10 0.16 0.26 0.36 0.51 0.69 0.75 0.78 0.93 1.16 1.25 1.56 1.46 1.35 1.25 1.04 1.09 0.95 0.77 0.87 0.88 0.72 0.66 0.63 0.63 0.58 0.70 0.68 0.72 0.84 0.81 0.80 0.89 0.66 0.52 0.43 0.39 0.37 0.22 0.18 0.16 0.17
0.00 0.00 0.00 0.00 0.01 0.02 0.03 0.05 0.16 0.30 0.65 0.79 1.06 1.25 1.21 1.11 1.37 1.44 1.76 1.68 1.65 1.62 1.40 1.30 1.28 1.12 1.17 1.37 1.22 0.94 0.86 0.89 0.89 0.98 0.88 1.00 1.13 1.10 1.07 1.15 0.95 0.84 0.80 0.83 0.73 0.56 0.45 0.40 0.32
0.00 0.00 0.00 0.00 0.01 0.01 0.02 0.06 0.14 0.29 0.53 0.66 1.00 1.34 1.29 1.13 1.15 1.32 1.91 1.74 1.71 1.76 1.67 1.43 1.48 1.42 1.46 1.63 1.49 1.26 1.20 1.12 1.13 1.28 1.17 1.19 1.25 1.28 1.35 1.24 1.17 1.07 1.05 1.04 0.92 0.85 0.79 0.70 0.63
0.00 0.00 0.00 0.00 0.00 0.02 0.04 0.09 0.12 0.20 0.24 0.33 0.59 0.82 0.85 0.90 0.97 1.09 1.45 1.53 1.48 1.55 1.65 1.73 1.70 1.72 1.56 1.60 1.57 1.42 1.28 1.30 1.28 1.33 1.31 1.25 1.29 1.48 1.52 1.48 1.42 1.37 1.38 1.46 1.30 1.10 1.10 0.98 0.95
0.00 0.00 0.00 0.01 0.02 0.05 0.05 0.13 0.21 0.31 0.24 0.32 0.42 0.41 0.57 0.70 0.91 1.13 1.28 1.34 1.41 1.45 1.56 1.71 1.75 1.79 1.74 1.70 1.71 1.67 1.56 1.50 1.53 1.61 1.66 1.51 1.43 1.63 1.68 1.80 1.76 1.69 1.67 1.70 1.66 1.50 1.47 1.36 1.29
0.00 0.00 0.01 0.02 0.03 0.04 0.05 0.19 0.33 0.36 0.32 0.25 0.25 0.24 0.36 0.58 0.77 0.91 0.98 1.15 1.20 1.22 1.37 1.45 1.58 1.66 1.85 1.96 2.08 1.92 1.93 1.90 1.89 1.78 1.77 1.66 1.63 1.77 1.91 1.99 1.99 1.97 1.92 2.02 2.07 1.99 1.79 1.69 1.57
0.00 0.01 0.02 0.04 0.02 0.03 0.05 0.21 0.36 0.29 0.31 0.28 0.23 0.20 0.26 0.43 0.57 0.64 0.72 0.87 0.98 1.05 1.33 1.47 1.58 1.76 1.87 2.00 2.23 2.24 2.32 2.29 2.24 2.20 2.09 2.13 2.20 2.13 2.18 2.27 2.34 2.37 2.41 2.43 2.34 2.37 2.10 2.04 1.95
0.03 0.03 0.06 0.04 0.03 0.03 0.07 0.18 0.28 0.32 0.35 0.36 0.37 0.33 0.32 0.39 0.55 0.60 0.64 0.80 0.92 1.08 1.35 1.58 1.75 1.98 2.24 2.30 2.47 2.45 2.63 2.79 2.84 2.95 2.87 2.72 2.75 2.75 2.83 2.83 2.85 2.82 2.87 2.75 2.69 2.66 2.44 2.27 2.24
0.04 0.04 0.08 0.06 0.05 0.06 0.10 0.23 0.34 0.44 0.54 0.55 0.49 0.42 0.42 0.45 0.53 0.65 0.81 1.04 1.31 1.49 1.54 1.66 1.80 2.00 2.20 2.51 2.86 3.04 3.13 3.36 3.50 3.60 3.74 3.70 3.64 3.72 3.75 3.65 3.55 3.39 3.24 3.09 2.98 2.80 2.63 2.41 2.30
0.01 0.04 0.07 0.07 0.08 0.11 0.18 0.31 0.43 0.49 0.54 0.61 0.60 0.56 0.51 0.55 0.63 0.89 1.12 1.47 1.66 1.72 1.72 1.80 1.90 2.16 2.44 2.81 3.26 3.72 3.93 4.12 4.15 4.19 4.39 4.48 4.49 4.65 4.75 4.62 4.41 4.19 3.81 3.38 3.06 2.85 2.71 2.48 2.41
0.01 0.03 0.05 0.08 0.08 0.13 0.27 0.49 0.63 0.60 0.65 0.69 0.72 0.83 0.77 0.79 0.93 1.13 1.33 1.44 1.62 1.73 1.82 1.92 2.21 2.64 3.09 3.55 4.05 4.51 4.83 4.92 4.87 4.59 4.66 4.79 4.77 4.84 5.00 4.96 4.70 4.33 3.74 3.21 3.01 2.90 2.76 2.61 2.51
0.02 0.02 0.03 0.05 0.07 0.15 0.23 0.54 0.84 0.85 0.86 0.79 0.82 0.91 0.86 0.88 1.00 1.12 1.30 1.49 1.58 1.72 1.90 2.01 2.33 2.90 3.39 3.86 4.51 5.03 5.35 5.54 5.65 5.42 5.11 4.95 4.79 4.66 4.58 4.46 4.06 3.63 3.27 2.98 2.85 2.81 2.61 2.57 2.47
0.02 0.01 0.02 0.03 0.05 0.12 0.17 0.41 0.91 1.04 1.10 1.02 0.94 0.96 0.85 0.76 0.81 0.94 1.05 1.35 1.59 1.66 1.71 1.81 2.21 2.80 3.54 4.27 4.81 5.28 5.66 5.81 5.79 5.45 5.06 4.66 4.32 3.92 3.58 3.25 2.99 2.85 2.65 2.44 2.34 2.31 2.25 2.12 2.03
0.01 0.01 0.01 0.03 0.07 0.16 0.18 0.35 0.91 1.27 1.49 1.52 1.19 0.98 0.85 0.75 0.71 0.72 0.81 1.02 1.32 1.39 1.55 1.79 2.13 2.82 3.59 4.19 4.70 5.07 5.40 5.44 5.18 4.77 4.33 4.03 3.64 3.19 2.77 2.57 2.35 2.20 2.02 1.80 1.68 1.66 1.69 1.75 1.80
0.02 0.03 0.14 0.25 0.30 0.29 0.25 0.43 0.99 1.26 1.25 1.20 1.12 1.03 0.93 0.76 0.69 0.68 0.71 0.83 1.05 1.22 1.50 1.87 2.25 2.78 3.23 3.74 4.17 4.41 4.59 4.64 4.58 4.33 3.98 3.72 3.31 2.88 2.45 2.08 1.89 1.67 1.49 1.39 1.35 1.32 1.31 1.37 1.47
0.02 0.05 0.25 0.38 0.40 0.43 0.49 0.81 1.31 1.18 0.96 0.94 0.98 0.92 0.81 0.78 0.76 0.82 0.87 0.95 1.05 1.16 1.35 1.69 2.03 2.44 2.67 2.91 3.24 3.46 3.59 3.62 3.53 3.38 3.13 2.85 2.56 2.30 1.99 1.59 1.28 1.10 0.98 0.93 0.95 1.00 1.06 1.10 1.14
0.04 0.07 0.13 0.17 0.23 0.44 0.77 1.18 1.64 1.59 1.13 0.95 0.97 0.90 0.79 0.75 0.74 0.84 0.90 0.93 0.98 1.03 1.19 1.35 1.53 1.80 2.07 2.31 2.44 2.54 2.59 2.50 2.43 2.27 2.06 1.87 1.70 1.52 1.30 1.08 0.93 0.83 0.78 0.74 0.71 0.72 0.76 0.82 0.88
0.06 0.08 0.10 0.17 0.35 0.63 0.86 1.34 1.93 1.96 1.54 1.23 1.12 1.02 0.86 0.76 0.76 0.83 0.86 0.86 0.84 0.84 0.95 1.06 1.21 1.36 1.52 1.66 1.71 1.64 1.63 1.63 1.49 1.37 1.28 1.14 1.00 0.90 0.82 0.73 0.70 0.67 0.60 0.57 0.58 0.56 0.57 0.67 0.70
0.08 0.09 0.14 0.22 0.27 0.60 1.02 1.59 1.91 2.14 2.02 1.67 1.25 1.00 0.90 0.86 0.82 0.82 0.79 0.76 0.71 0.67 0.72 0.79 0.87 1.02 1.12 1.16 1.18 1.09 1.03 0.96 0.89 0.81 0.80 0.73 0.67 0.65 0.62 0.56 0.54 0.54 0.54 0.52 0.50 0.50 0.48 0.53 0.65
0.09 0.11 0.14 0.28 0.34 0.42 0.82 1.74 2.02 2.34 2.26 1.93 1.44 1.09 0.98 0.94 0.86 0.76 0.69 0.65 0.63 0.61 0.60 0.63 0.70 0.75 0.76 0.75 0.72 0.70 0.65 0.62 0.60 0.57 0.56 0.58 0.56 0.53 0.52 0.49 0.48 0.49 0.51 0.53 0.51 0.51 0.51 0.52 0.57

GEFSSGP_prec_meanprecacc_138.txt.gz
Total_Precipitation_Accumulation
0.00 0.00 0.00 0.00 0.00 0.00 0.00 0.01 0.03 0.07 0.09 0.10 0.13 0.13 0.14 0.24 0.52 1.03 0.58 0.31 0.16 0.06 0.04 0.04 0.03 0.03 0.05 0.07 0.11 0.11 0.10 0.12 0.13 0.13 0.13 0.10 0.08 0.07 0.07 0.07 0.11 0.17 0.18 0.17 0.13 0.11 0.12 0.12 0.10
0.00 0.00 0.00 0.00 0.00 0.00 0.01 0.02 0.04 0.07 0.09 0.11 0.18 0.16 0.15 0.20 0.25 0.20 0.23 0.23 0.15 0.07 0.04 0.03 0.04 0.04 0.05 0.05 0.09 0.14 0.12 0.11 0.11 0.11 0.10 0.09 0.08 0.08 0.08 0.09 0.11 0.14 0.14 0.10 0.08 0.07 0.07 0.09 0.08
0.00 0.00 0.00 0.00 0.00 0.00 0.02 0.05 0.08 0.09 0.09 0.13 0.27 0.40 0.36 0.34 0.38 0.25 0.20 0.15 0.12 0.06 0.03 0.04 0.05 0.06 0.07 0.06 0.06 0.12 0.15 0.14 0.14 0.13 0.12 0.12 0.11 0.10 0.09 0.11 0.12 0.13 0.12 0.14 0.13 0.11 0.08 0.08 0.08
0.00 0.00 0.00 0.00 0.00 0.00 0.02 0.07 0.12 0.10 0.11 0.13 0.22 0.47 0.41 0.34 0.38 0.36 0.21 0.17 0.16 0.11 0.06 0.05 0.06 0.08 0.10 0.09 0.09 0.11 0.14 0.16 0.17 0.16 0.15 0.14 0.13 0.12 0.10 0.11 0.12 0.12 0.13 0.16 0.19 0.14 0.09 0.07 0.08
0.00 0.00 0.00 0.00 0.00 0.01 0.03 0.07 0.11 0.11 0.13 0.18 0.21 0.44 0.52 0.42 0.45 0.57 0.46 0.31 0.25 0.19 0.15 0.10 0.10 0.09 0.11 0.13 0.14 0.16 0.15 0.17 0.20 0.19 0.17 0.15 0.15 0.14 0.13 0.13 0.12 0.14 0.17 0.19 0.16 0.11 0.07 0.06 0.07
0.00 0.00 0.00 0.00 0.00 0.01 0.04 0.06 0.08 0.11 0.15 0.27 0.29 0.58 0.91 0.82 0.75 0.82 0.80 0.50 0.36 0.28 0.22 0.17 0.15 0.12 0.14 0.17 0.18 0.23 0.25 0.24 0.24 0.22 0.19 0.17 0.15 0.15 0.17 0.16 0.16 0.19 0.23 0.21 0.13 0.07 0.05 0.05 0.06
0.00 0.00 0.00 0.00 0.01 0.03 0.05 0.08 0.11 0.14 0.22 0.36 0.44 0.81 1.07 1.09 1.10 0.90 0.85 0.67 0.39 0.35 0.35 0.32 0.24 0.20 0.22 0.24 0.23 0.25 0.31 0.31 0.28 0.27 0.28 0.26 0.25 0.23 0.22 0.21 0.20 0.23 0.23 0.18 0.11 0.07 0.05 0.05 0.06
0.00 0.00 0.00 0.00 0.01 0.03 0.06 0.08 0.12 0.18 0.29 0.40 0.56 0.95 1.25 1.22 1.11 0.98 0.83 0.83 0.59 0.52 0.53 0.53 0.53 0.45 0.32 0.29 0.31 0.30 0.37 0.39 0.33 0.31 0.33 0.32 0.27 0.24 0.22 0.19 0.20 0.20 0.19 0.15 0.12 0.10 0.07 0.06 0.05
0.00 0.00 0.00 0.00 0.01 0.03 0.07 0.08 0.13 0.21 0.34 0.52 0.53 0.70 1.10 0.97 1.08 1.30 1.13 1.03 0.87 0.71 0.69 0.62 0.67 0.65 0.46 0.38 0.34 0.35 0.40 0.46 0.41 0.34 0.34 0.32 0.39 0.40 0.33 0.24 0.25 0.22 0.20 0.18 0.15 0.11 0.08 0.06 0.05
0.00 0.00 0.00 0.00 0.00 0.03 0.07 0.12 0.19 0.25 0.25 0.40 0.53 0.56 0.78 0.94 1.01 1.21 1.43 1.27 1.09 0.93 0.90 0.83 0.69 0.62 0.57 0.45 0.42 0.46 0.44 0.46 0.43 0.44 0.41 0.45 0.69 0.78 0.60 0.59 0.46 0.36 0.30 0.25 0.20 0.15 0.11 0.08 0.06
0.00 0.00 0.00 0.00 0.01 0.03 0.06 0.12 0.18 0.27 0.37 0.52 0.70 0.76 0.81 0.97 1.20 1.29 1.60 1.51 1.38 1.28 1.06 1.11 0.97 0.80 0.89 0.90 0.74 0.68 0.66 0.66 0.61 0.76 0.76 0.81 0.90 0.85 0.83 0.91 0.69 0.55 0.47 0.44 0.41 0.25 0.20 0.17 0.18
0.00 0.00 0.00 0.00 0.01 0.02 0.04 0.06 0.17 0.32 0.66 0.80 1.08 1.31 1.29 1.16 1.42 1.50 1.82 1.75 1.72 1.69 1.44 1.33 1.31 1.16 1.22 1.42 1.26 0.98 0.89 0.92 0.92 1.02 0.93 1.06 1.18 1.15 1.11 1.17 0.98 0.88 0.85 0.87 0.77 0.60 0.49 0.43 0.34
0.00 0.00 0.00 0.01 0.01 0.02 0.03 0.08 0.15 0.31 0.55 0.69 1.07 1.47 1.44 1.22 1.21 1.39 1.99 1.83 1.80 1.83 1.74 1.49 1.54 1.48 1.51 1.68 1.56 1.34 1.28 1.16 1.16 1.31 1.21 1.23 1.30 1.34 1.41 1.30 1.22 1.14 1.12 1.09 0.96 0.89 0.85 0.75 0.68
0.00 0.00 0.01 0.01 0.01 0.04 0.06 0.11 0.14 0.23 0.26 0.39 0.67 0.91 0.95 1.01 1.06 1.18 1.56 1.66 1.60 1.64 1.73 1.82 1.81 1.81 1.64 1.67 1.64 1.50 1.37 1.38 1.33 1.36 1.36 1.30 1.35 1.54 1.59 1.56 1.50 1.45 1.47 1.56 1.38 1.18 1.18 1.07 1.03
0.00 0.00 0.01 0.02 0.03 0.07 0.08 0.15 0.24 0.33 0.27 0.35 0.47 0.46 0.64 0.79 1.01 1.24 1.41 1.48 1.52 1.55 1.64 1.82 1.87 1.90 1.82 1.76 1.78 1.76 1.66 1.62 1.62 1.68 1.73 1.58 1.50 1.71 1.77 1.90 1.85 1.78 1.76 1.81 1.76 1.60 1.57 1.45 1.37
0.00 0.01 0.02 0.04 0.04 0.06 0.08 0.22 0.37 0.41 0.36 0.30 0.29 0.29 0.41 0.64 0.85 1.00 1.09 1.25 1.27 1.28 1.43 1.53 1.66 1.74 1.92 2.02 2.14 2.01 2.04 2.00 2.00 1.88 1.86 1.75 1.71 1.85 2.00 2.09 2.09 2.05 2.00 2.10 2.18 2.10 1.91 1.80 1.66
0.00 0.01 0.03 0.05 0.04 0.05 0.08 0.25 0.41 0.35 0.38 0.34 0.28 0.25 0.31 0.48 0.63 0.71 0.80 0.94 1.05 1.12 1.39 1.52 1.64 1.83 1.95 2.07 2.28 2.31 2.42 2.38 2.35 2.31 2.20 2.24 2.29 2.22 2.27 2.38 2.46 2.46 2.49 2.51 2.44 2.48 2.22 2.16 2.05
0.03 0.03 0.06 0.05 0.03 0.05 0.09 0.21 0.31 0.38 0.43 0.43 0.44 0.41 0.39 0.44 0.63 0.69 0.70 0.86 0.99 1.17 1.42 1.63 1.80 2.05 2.32 2.38 2.53 2.51 2.71 2.86 2.96 3.10 2.99 2.85 2.89 2.89 2.96 2.93 2.96 2.92 2.97 2.84 2.78 2.74 2.52 2.34 2.31
0.04 0.04 0.08 0.06 0.06 0.07 0.11 0.24 0.37 0.49 0.62 0.64 0.57 0.51 0.51 0.53 0.60 0.74 0.91 1.13 1.39 1.58 1.63 1.72 1.86 2.06 2.26 2.57 2.91 3.09 3.20 3.42 3.58 3.71 3.87 3.85 3.80 3.87 3.89 3.76 3.65 3.49 3.34 3.17 3.05 2.87 2.69 2.47 2.37
0.01 0.04 0.07 0.07 0.08 0.11 0.19 0.33 0.46 0.53 0.59 0.69 0.70 0.68 0.64 0.67 0.73 0.99 1.25 1.60 1.75 1.80 1.82 1.89 1.96 2.21 2.49 2.86 3.30 3.75 3.97 4.15 4.19 4.25 4.46 4.58 4.60 4.75 4.84 4.73 4.51 4.29 3.92 3.48 3.14 2.94 2.79 2.55 2.48
0.01 0.03 0.05 0.08 0.08 0.13 0.27 0.50 0.65 0.64 0.70 0.75 0.81 0.95 0.90 0.92 1.06 1.24 1.46 1.57 1.73 1.82 1.91 2.00 2.27 2.69 3.13 3.59 4.09 4.54 4.84 4.93 4.88 4.61 4.69 4.84 4.81 4.89 5.06 5.04 4.79 4.41 3.83 3.32 3.12 3.01 2.88 2.71 2.61
0.02 0.02 0.04 0.05 0.07 0.15 0.23 0.56 0.85 0.87 0.90 0.84 0.88 0.99 0.96 0.99 1.10 1.22 1.42 1.60 1.70 1.83 2.00 2.09 2.39 2.94 3.44 3.90 4.56 5.07 5.38 5.56 5.66 5.43 5.12 4.97 4.81 4.69 4.62 4.51 4.12 3.68 3.33 3.04 2.93 2.89 2.70 2.67 2.56
0.02 0.01 0.02 0.03 0.05 0.12 0.17 0.41 0.92 1.06 1.15 1.07 1.02 1.08 0.94 0.86 0.92 1.05 1.19 1.48 1.71 1.80 1.83 1.90 2.28 2.86 3.59 4.30 4.84 5.31 5.68 5.83 5.81 5.46 5.07 4.68 4.34 3.94 3.61 3.29 3.03 2.90 2.70 2.49 2.39 2.36 2.31 2.19 2.09
0.01 0.01 0.01 0.03 0.07 0.16 0.19 0.36 0.91 1.27 1.51 1.56 1.25 1.08 0.95 0.85 0.83 0.86 0.97 1.18 1.47 1.54 1.66 1.87 2.19 2.87 3.62 4.21 4.73 5.09 5.42 5.47 5.21 4.79 4.34 4.04 3.66 3.22 2.80 2.58 2.37 2.23 2.05 1.83 1.71 1.70 1.74 1.81 1.86
0.02 0.04 0.15 0.25 0.30 0.29 0.25 0.43 0.99 1.26 1.25 1.21 1.15 1.10 1.02 0.85 0.80 0.82 0.86 0.98 1.19 1.35 1.61 1.94 2.30 2.81 3.26 3.76 4.20 4.44 4.62 4.67 4.60 4.36 4.00 3.73 3.33 2.91 2.48 2.11 1.91 1.69 1.51 1.41 1.36 1.34 1.35 1.41 1.51
0.02 0.05 0.26 0.38 0.40 0.43 0.49 0.81 1.31 1.18 0.97 0.95 1.00 0.98 0.93 0.88 0.85 0.95 1.03 1.11 1.20 1.31 1.46 1.77 2.09 2.48 2.70 2.93 3.26 3.47 3.60 3.64 3.55 3.39 3.14 2.86 2.58 2.33 2.02 1.61 1.31 1.13 1.01 0.95 0.97 1.01 1.07 1.11 1.16
0.04 0.07 0.14 0.17 0.23 0.44 0.77 1.18 1.64 1.59 1.14 0.97 0.99 0.94 0.89 0.87 0.85 0.98 1.07 1.10 1.12 1.16 1.31 1.44 1.59 1.84 2.10 2.32 2.45 2.55 2.60 2.52 2.44 2.28 2.06 1.88 1.71 1.53 1.32 1.10 0.96 0.87 0.82 0.77 0.73 0.74 0.78 0.83 0.89
0.06 0.09 0.11 0.18 0.35 0.63 0.87 1.34 1.93 1.97 1.55 1.25 1.14 1.07 0.92 0.85 0.87 0.97 1.01 1.02 0.98 0.94 1.03 1.13 1.26 1.39 1.55 1.68 1.72 1.65 1.64 1.64 1.51 1.38 1.29 1.15 1.01 0.90 0.84 0.75 0.72 0.69 0.64 0.62 0.62 0.60 0.60 0.69 0.72
0.08 0.09 0.15 0.22 0.28 0.60 1.02 1.60 1.93 2.16 2.05 1.70 1.29 1.03 0.93 0.91 0.89 0.91 0.90 0.88 0.82 0.76 0.80 0.88 0.94 1.07 1.15 1.19 1.20 1.11 1.04 0.97 0.90 0.82 0.81 0.74 0.67 0.65 0.62 0.57 0.55 0.56 0.56 0.54 0.52 0.54 0.52 0.57 0.67
0.10 0.11 0.15 0.28 0.34 0.42 0.83 1.75 2.05 2.37 2.32 1.97 1.50 1.13 1.02 0.97 0.90 0.83 0.78 0.74 0.70 0.67 0.66 0.69 0.76 0.80 0.81 0.79 0.76 0.73 0.67 0.64 0.62 0.59 0.57 0.59 0.56 0.53 0.52 0.49 0.49 0.50 0.52 0.53 0.52 0.51 0.52 0.54 0.60

GEFSSGP_prec_meanprecacc_144.txt.gz
Total_Precipitation_Accumulation
0.00 0.00 0.00 0.00 0.00 0.00 0.00 0.01 0.03 0.07 0.09 0.10 0.13 0.13 0.15 0.25 0.53 1.04 0.59 0.32 0.17 0.07 0.04 0.05 0.04 0.04 0.06 0.08 0.12 0.12 0.10 0.12 0.13 0.13 0.13 0.10 0.08 0.07 0.07 0.07 0.12 0.17 0.19 0.17 0.14 0.12 0.12 0.12 0.10
0.00 0.00 0.00 0.00 0.00 0.00 0.01 0.02 0.04 0.07 0.10 0.11 0.19 0.17 0.15 0.20 0.25 0.21 0.24 0.23 0.15 0.07 0.05 0.04 0.05 0.05 0.06 0.06 0.10 0.14 0.12 0.11 0.11 0.12 0.10 0.09 0.08 0.08 0.08 0.09 0.12 0.15 0.14 0.11 0.08 0.08 0.08 0.09 0.08
0.00 0.00 0.00 0.00 0.00 0.00 0.02 0.05 0.08 0.09 0.09 0.13 0.27 0.41 0.37 0.35 0.38 0.26 0.21 0.15 0.12 0.07 0.05 0.06 0.06 0.07 0.08 0.07 0.07 0.13 0.15 0.14 0.14 0.13 0.12 0.12 0.11 0.10 0.10 0.11 0.13 0.13 0.13 0.14 0.13 0.11 0.08 0.08 0.08
0.00 0.00 0.00 0.00 0.00 0.01 0.02 0.08 0.13 0.11 0.12 0.13 0.22 0.47 0.41 0.35 0.38 0.37 0.22 0.18 0.17 0.11 0.07 0.07 0.07 0.09 0.13 0.13 0.12 0.13 0.15 0.16 0.18 0.17 0.16 0.15 0.14 0.12 0.11 0.12 0.12 0.13 0.14 0.17 0.19 0.15 0.09 0.08 0.08
0.00 0.00 0.00 0.00 0.00 0.01 0.03 0.07 0.12 0.12 0.14 0.18 0.21 0.44 0.53 0.43 0.45 0.58 0.47 0.32 0.26 0.19 0.16 0.11 0.10 0.11 0.13 0.16 0.19 0.22 0.18 0.18 0.21 0.20 0.18 0.16 0.16 0.15 0.14 0.14 0.13 0.15 0.18 0.20 0.16 0.11 0.07 0.07 0.08
0.00 0.00 0.00 0.00 0.00 0.01 0.04 0.06 0.09 0.12 0.15 0.27 0.29 0.58 0.92 0.83 0.77 0.83 0.80 0.50 0.37 0.29 0.23 0.18 0.16 0.13 0.14 0.18 0.21 0.27 0.29 0.28 0.27 0.25 0.22 0.20 0.17 0.16 0.18 0.17 0.17 0.20 0.24 0.22 0.13 0.07 0.05 0.06 0.07
0.00 0.00 0.00 0.00 0.01 0.03 0.06 0.09 0.12 0.15 0.23 0.36 0.44 0.81 1.07 1.11 1.11 0.92 0.86 0.68 0.40 0.37 0.38 0.35 0.25 0.21 0.23 0.25 0.24 0.27 0.33 0.34 0.33 0.33 0.33 0.29 0.28 0.25 0.23 0.22 0.21 0.23 0.24 0.19 0.12 0.08 0.06 0.06 0.07
0.00 0.00 0.00 0.00 0.01 0.03 0.06 0.09 0.13 0.19 0.30 0.41 0.56 0.96 1.25 1.23 1.12 0.99 0.83 0.84 0.60 0.54 0.56 0.57 0.57 0.48 0.34 0.31 0.32 0.32 0.39 0.41 0.36 0.34 0.37 0.35 0.29 0.26 0.24 0.20 0.21 0.21 0.21 0.17 0.13 0.12 0.09 0.07 0.06
0.00 0.00 0.00 0.00 0.01 0.03 0.07 0.09 0.14 0.22 0.35 0.53 0.53 0.70 1.10 0.98 1.09 1.31 1.14 1.05 0.88 0.73 0.71 0.66 0.71 0.68 0.49 0.41 0.36 0.37 0.43 0.49 0.46 0.39 0.37 0.35 0.41 0.42 0.36 0.27 0.28 0.24 0.22 0.20 0.17 0.13 0.10 0.08 0.06
0.00 0.00 0.00 0.00 0.00 0.03 0.07 0.12 0.20 0.25 0.26 0.40 0.53 0.57 0.80 0.96 1.04 1.23 1.45 1.28 1.10 0.95 0.92 0.86 0.72 0.65 0.60 0.47 0.45 0.49 0.48 0.51 0.49 0.50 0.48 0.52 0.76 0.84 0.64 0.63 0.50 0.40 0.35 0.29 0.23 0.18 0.13 0.09 0.07
0.00 0.00 0.00 0.00 0.01 0.03 0.07 0.13 0.19 0.28 0.38 0.52 0.70 0.77 0.83 1.00 1.25 1.33 1.61 1.53 1.40 1.32 1.10 1.15 1.01 0.83 0.92 0.93 0.77 0.72 0.70 0.70 0.67 0.81 0.82 0.87 0.98 0.95 0.90 0.97 0.76 0.62 0.54 0.51 0.47 0.29 0.22 0.19 0.20
0.00 0.00 0.00 0.00 0.01 0.02 0.04 0.07 0.18 0.33 0.66 0.80 1.09 1.31 1.31 1.21 1.46 1.54 1.85 1.78 1.77 1.74 1.50 1.39 1.37 1.24 1.28 1.48 1.32 1.05 0.95 0.97 0.98 1.07 0.97 1.11 1.25 1.23 1.20 1.26 1.07 0.98 0.97 0.99 0.88 0.70 0.56 0.48 0.39
0.00 0.00 0.00 0.01 0.01 0.02 0.04 0.09 0.17 0.33 0.56 0.71 1.08 1.48 1.49 1.32 1.29 1.43 2.03 1.87 1.84 1.88 1.78 1.55 1.61 1.58 1.62 1.78 1.64 1.47 1.48 1.31 1.25 1.38 1.27 1.30 1.37 1.43 1.52 1.42 1.35 1.28 1.26 1.22 1.08 1.01 0.95 0.84 0.75
0.00 0.01 0.01 0.01 0.02 0.04 0.07 0.12 0.16 0.25 0.28 0.41 0.69 0.93 0.99 1.07 1.13 1.25 1.64 1.73 1.66 1.70 1.78 1.87 1.86 1.86 1.71 1.76 1.73 1.60 1.54 1.57 1.46 1.44 1.42 1.37 1.42 1.62 1.69 1.67 1.63 1.60 1.61 1.70 1.51 1.30 1.30 1.17 1.11
0.00 0.01 0.02 0.02 0.04 0.07 0.08 0.17 0.25 0.35 0.28 0.36 0.50 0.49 0.68 0.85 1.09 1.33 1.51 1.58 1.62 1.64 1.71 1.88 1.93 1.96 1.89 1.83 1.85 1.81 1.71 1.65 1.67 1.74 1.78 1.63 1.57 1.77 1.84 2.00 1.96 1.90 1.87 1.91 1.88 1.71 1.68 1.54 1.44
0.00 0.01 0.03 0.05 0.05 0.07 0.09 0.23 0.38 0.43 0.40 0.33 0.32 0.32 0.45 0.68 0.90 1.07 1.15 1.31 1.33 1.32 1.49 1.59 1.71 1.80 2.04 2.13 2.20 2.05 2.07 2.03 2.03 1.92 1.91 1.81 1.77 1.91 2.07 2.17 2.18 2.16 2.09 2.19 2.29 2.21 2.00 1.89 1.75
0.00 0.01 0.03 0.06 0.04 0.05 0.09 0.27 0.43 0.37 0.41 0.38 0.31 0.27 0.33 0.50 0.67 0.77 0.85 0.99 1.10 1.17 1.46 1.60 1.71 1.88 2.02 2.18 2.37 2.35 2.46 2.41 2.38 2.34 2.23 2.29 2.35 2.28 2.34 2.45 2.54 2.56 2.60 2.61 2.53 2.57 2.33 2.27 2.15
0.03 0.03 0.06 0.05 0.04 0.05 0.11 0.22 0.33 0.40 0.45 0.45 0.45 0.42 0.40 0.46 0.66 0.74 0.76 0.92 1.05 1.23 1.51 1.72 1.87 2.10 2.38 2.45 2.60 2.56 2.75 2.90 2.99 3.13 3.03 2.90 2.96 2.98 3.05 3.02 3.05 3.03 3.08 2.95 2.89 2.86 2.65 2.47 2.43
0.04 0.04 0.08 0.06 0.06 0.07 0.12 0.25 0.38 0.51 0.64 0.66 0.59 0.53 0.54 0.57 0.65 0.80 0.98 1.20 1.45 1.64 1.69 1.79 1.93 2.13 2.34 2.64 2.98 3.14 3.23 3.46 3.62 3.75 3.92 3.89 3.85 3.95 3.99 3.87 3.76 3.61 3.48 3.30 3.18 2.98 2.81 2.59 2.49
0.01 0.04 0.07 0.07 0.08 0.11 0.19 0.33 0.46 0.54 0.61 0.71 0.72 0.70 0.67 0.71 0.79 1.06 1.34 1.68 1.82 1.86 1.89 1.96 2.06 2.32 2.59 2.93 3.37 3.81 4.02 4.19 4.23 4.30 4.50 4.62 4.64 4.80 4.91 4.81 4.62 4.39 4.04 3.61 3.28 3.08 2.93 2.68 2.62
0.01 0.03 0.05 0.08 0.08 0.13 0.27 0.50 0.65 0.64 0.71 0.78 0.83 0.97 0.92 0.94 1.09 1.32 1.55 1.66 1.81 1.89 1.99 2.09 2.37 2.80 3.23 3.68 4.17 4.61 4.91 4.98 4.92 4.64 4.73 4.87 4.84 4.92 5.10 5.08 4.85 4.49 3.94 3.44 3.27 3.17 3.03 2.85 2.73
0.02 0.02 0.04 0.05 0.07 0.15 0.24 0.57 0.86 0.88 0.91 0.85 0.90 1.02 0.98 1.01 1.14 1.28 1.49 1.69 1.80 1.91 2.09 2.20 2.52 3.07 3.55 3.99 4.63 5.13 5.43 5.61 5.71 5.47 5.16 5.01 4.84 4.72 4.64 4.53 4.16 3.72 3.39 3.14 3.04 3.00 2.81 2.79 2.69
0.02 0.01 0.02 0.03 0.05 0.12 0.17 0.42 0.92 1.06 1.15 1.08 1.04 1.11 0.98 0.89 0.96 1.11 1.24 1.54 1.81 1.90 1.93 2.01 2.41 3.01 3.73 4.41 4.92 5.37 5.73 5.88 5.86 5.50 5.11 4.71 4.36 3.95 3.62 3.30 3.05 2.92 2.73 2.53 2.45 2.43 2.38 2.26 2.18
0.01 0.01 0.02 0.03 0.07 0.17 0.19 0.36 0.92 1.28 1.51 1.57 1.26 1.10 0.98 0.88 0.87 0.90 1.01 1.24 1.56 1.63 1.76 1.95 2.28 2.96 3.70 4.29 4.80 5.15 5.48 5.51 5.24 4.82 4.36 4.06 3.68 3.23 2.81 2.59 2.38 2.25 2.08 1.87 1.75 1.74 1.79 1.86 1.93
0.02 0.04 0.15 0.26 0.31 0.29 0.25 0.44 1.00 1.26 1.26 1.22 1.17 1.17 1.08 0.87 0.82 0.85 0.91 1.05 1.28 1.42 1.68 2.01 2.39 2.88 3.30 3.80 4.24 4.47 4.66 4.71 4.63 4.39 4.03 3.76 3.36 2.93 2.51 2.14 1.94 1.72 1.54 1.45 1.40 1.37 1.37 1.44 1.55
0.02 0.05 0.26 0.39 0.41 0.44 0.50 0.82 1.32 1.19 0.99 0.97 1.04 1.05 0.99 0.91 0.89 1.01 1.11 1.19 1.30 1.41 1.54 1.85 2.17 2.54 2.75 2.97 3.30 3.51 3.65 3.70 3.62 3.45 3.19 2.91 2.62 2.36 2.04 1.64 1.35 1.17 1.06 0.99 1.00 1.04 1.10 1.13 1.18
0.04 0.07 0.14 0.17 0.23 0.46 0.78 1.19 1.65 1.61 1.18 1.01 1.03 1.00 0.93 0.91 0.90 1.04 1.16 1.22 1.26 1.30 1.43 1.55 1.68 1.91 2.14 2.35 2.48 2.57 2.62 2.56 2.50 2.36 2.14 1.93 1.75 1.56 1.34 1.12 0.97 0.89 0.86 0.81 0.76 0.78 0.80 0.85 0.91
0.07 0.09 0.11 0.19 0.37 0.65 0.88 1.37 1.96 2.01 1.59 1.28 1.19 1.12 0.98 0.92 0.96 1.06 1.09 1.12 1.12 1.08 1.15 1.24 1.35 1.47 1.60 1.71 1.74 1.68 1.67 1.68 1.56 1.43 1.34 1.19 1.05 0.94 0.86 0.77 0.74 0.71 0.66 0.64 0.65 0.63 0.62 0.71 0.75
0.09 0.10 0.16 0.23 0.29 0.63 1.06 1.64 1.96 2.20 2.09 1.73 1.32 1.08 0.99 0.97 0.95 0.97 0.97 0.97 0.95 0.87 0.89 0.95 1.01 1.14 1.21 1.23 1.23 1.14 1.08 1.01 0.94 0.85 0.85 0.78 0.71 0.68 0.64 0.59 0.57 0.57 0.58 0.57 0.55 0.56 0.54 0.59 0.70
0.10 0.12 0.16 0.31 0.36 0.44 0.86 1.81 2.08 2.39 2.34 1.99 1.52 1.18 1.07 1.03 0.97 0.89 0.83 0.79 0.76 0.72 0.71 0.74 0.81 0.86 0.87 0.85 0.81 0.77 0.72 0.67 0.66 0.63 0.62 0.63 0.60 0.56 0.54 0.51 0.51 0.51 0.54 0.55 0.54 0.53 0.54 0.55 0.61

GEFSSGP_prec_meanprecacc_150.txt.gz
Total_Precipitation_Accumulation
0.00 0.00 0.00 0.00 0.00 0.00 0.00 0.01 0.03 0.07 0.09 0.10 0.13 0.13 0.15 0.25 0.54 1.10 0.61 0.32 0.17 0.07 0.05 0.05 0.04 0.04 0.06 0.09 0.13 0.14 0.12 0.13 0.15 0.15 0.15 0.12 0.09 0.07 0.07 0.08 0.12 0.18 0.19 0.18 0.14 0.12 0.12 0.12 0.10
0.00 0.00 0.00 0.00 0.00 0.00 0.01 0.02 0.04 0.07 0.10 0.12 0.19 0.17 0.15 0.20 0.25 0.21 0.25 0.24 0.16 0.08 0.05 0.04 0.05 0.05 0.06 0.07 0.11 0.15 0.14 0.13 0.13 0.14 0.12 0.10 0.09 0.09 0.09 0.09 0.12 0.15 0.15 0.12 0.09 0.08 0.08 0.09 0.08
0.00 0.00 0.00 0.00 0.00 0.01 0.03 0.05 0.08 0.09 0.09 0.13 0.27 0.41 0.38 0.35 0.38 0.26 0.21 0.16 0.13 0.07 0.05 0.06 0.06 0.07 0.09 0.08 0.08 0.14 0.16 0.16 0.16 0.16 0.14 0.13 0.13 0.12 0.11 0.12 0.13 0.14 0.13 0.15 0.14 0.11 0.08 0.08 0.08
0.00 0.00 0.00 0.00 0.00 0.01 0.03 0.08 0.13 0.11 0.12 0.13 0.22 0.47 0.41 0.35 0.38 0.37 0.23 0.18 0.17 0.11 0.07 0.07 0.07 0.10 0.13 0.13 0.13 0.14 0.16 0.18 0.20 0.19 0.18 0.17 0.16 0.14 0.12 0.13 0.13 0.14 0.15 0.17 0.19 0.15 0.09 0.08 0.09
0.00 0.00 0.00 0.00 0.00 0.01 0.05 0.09 0.12 0.12 0.14 0.18 0.21 0.45 0.53 0.43 0.46 0.58 0.47 0.33 0.27 0.20 0.16 0.11 0.11 0.11 0.13 0.16 0.20 0.23 0.19 0.19 0.22 0.22 0.20 0.19 0.19 0.16 0.15 0.15 0.14 0.16 0.19 0.20 0.17 0.12 0.07 0.07 0.08
0.00 0.00 0.00 0.00 0.00 0.01 0.05 0.08 0.09 0.13 0.17 0.28 0.30 0.60 0.93 0.83 0.78 0.84 0.81 0.51 0.38 0.30 0.23 0.19 0.17 0.14 0.15 0.19 0.21 0.28 0.30 0.29 0.28 0.26 0.24 0.22 0.19 0.17 0.19 0.18 0.18 0.20 0.24 0.23 0.14 0.08 0.06 0.06 0.07
0.00 0.00 0.00 0.00 0.01 0.04 0.06 0.09 0.12 0.16 0.26 0.40 0.49 0.85 1.09 1.13 1.14 0.92 0.87 0.69 0.40 0.37 0.38 0.36 0.26 0.23 0.24 0.26 0.24 0.27 0.34 0.35 0.35 0.35 0.35 0.31 0.28 0.26 0.24 0.23 0.22 0.24 0.25 0.20 0.12 0.08 0.06 0.06 0.07
0.00 0.00 0.00 0.00 0.01 0.04 0.06 0.09 0.14 0.22 0.35 0.48 0.64 1.01 1.27 1.25 1.13 1.00 0.84 0.85 0.61 0.55 0.56 0.58 0.58 0.49 0.36 0.32 0.33 0.33 0.40 0.43 0.37 0.36 0.37 0.35 0.30 0.26 0.25 0.21 0.23 0.23 0.21 0.18 0.14 0.13 0.09 0.07 0.06
0.00 0.00 0.00 0.00 0.01 0.04 0.08 0.09 0.15 0.24 0.39 0.56 0.56 0.71 1.11 0.98 1.09 1.32 1.15 1.07 0.91 0.76 0.74 0.68 0.74 0.72 0.53 0.44 0.38 0.39 0.45 0.51 0.48 0.41 0.39 0.36 0.43 0.46 0.39 0.30 0.31 0.26 0.24 0.21 0.19 0.14 0.11 0.09 0.06
0.00 0.00 0.00 0.00 0.01 0.05 0.10 0.15 0.21 0.26 0.30 0.44 0.54 0.57 0.80 0.97 1.05 1.24 1.47 1.31 1.13 0.98 0.95 0.90 0.77 0.70 0.65 0.53 0.50 0.55 0.52 0.55 0.53 0.58 0.54 0.57 0.83 0.93 0.72 0.72 0.57 0.46 0.38 0.31 0.26 0.20 0.15 0.10 0.09
0.00 0.00 0.00 0.00 0.02 0.09 0.14 0.18 0.20 0.29 0.41 0.56 0.74 0.78 0.84 1.02 1.26 1.35 1.64 1.56 1.43 1.35 1.14 1.20 1.07 0.89 1.01 1.03 0.85 0.81 0.80 0.81 0.76 0.92 0.94 0.99 1.10 1.05 1.00 1.09 0.87 0.71 0.61 0.59 0.57 0.36 0.28 0.25 0.26
0.00 0.00 0.00 0.00 0.02 0.08 0.12 0.10 0.21 0.35 0.70 0.84 1.11 1.33 1.32 1.22 1.49 1.58 1.89 1.82 1.81 1.77 1.54 1.43 1.43 1.32 1.38 1.61 1.46 1.20 1.10 1.11 1.11 1.18 1.08 1.23 1.37 1.35 1.30 1.37 1.20 1.13 1.10 1.13 1.03 0.85 0.68 0.59 0.49
0.00 0.00 0.00 0.01 0.02 0.06 0.13 0.16 0.23 0.37 0.59 0.74 1.11 1.50 1.51 1.35 1.32 1.47 2.08 1.92 1.88 1.92 1.83 1.59 1.65 1.66 1.74 1.92 1.80 1.64 1.69 1.50 1.39 1.51 1.37 1.40 1.49 1.54 1.63 1.52 1.47 1.39 1.38 1.35 1.21 1.14 1.09 0.96 0.85
0.01 0.01 0.01 0.02 0.02 0.07 0.13 0.17 0.22 0.29 0.30 0.42 0.72 0.95 1.01 1.10 1.17 1.31 1.70 1.79 1.72 1.77 1.85 1.91 1.89 1.90 1.77 1.87 1.90 1.77 1.69 1.71 1.56 1.53 1.49 1.44 1.53 1.73 1.80 1.79 1.77 1.72 1.73 1.80 1.61 1.41 1.45 1.31 1.26
0.00 0.01 0.02 0.03 0.06 0.12 0.14 0.20 0.30 0.38 0.31 0.38 0.52 0.53 0.71 0.89 1.14 1.39 1.58 1.66 1.71 1.74 1.80 1.94 1.97 2.01 1.94 1.90 1.94 1.90 1.80 1.71 1.72 1.80 1.84 1.69 1.63 1.86 1.94 2.11 2.08 2.01 1.98 2.03 2.01 1.85 1.85 1.69 1.59
0.01 0.02 0.05 0.07 0.07 0.08 0.12 0.28 0.43 0.46 0.44 0.37 0.34 0.36 0.49 0.72 0.95 1.12 1.20 1.37 1.41 1.41 1.56 1.66 1.79 1.88 2.12 2.22 2.28 2.13 2.20 2.11 2.08 1.97 1.98 1.88 1.84 1.98 2.17 2.28 2.30 2.28 2.20 2.30 2.43 2.38 2.19 2.07 1.91
0.01 0.04 0.05 0.09 0.06 0.06 0.13 0.34 0.48 0.43 0.48 0.44 0.34 0.30 0.37 0.54 0.71 0.81 0.89 1.03 1.16 1.24 1.53 1.67 1.80 1.97 2.13 2.31 2.48 2.45 2.54 2.47 2.43 2.40 2.31 2.37 2.44 2.36 2.44 2.58 2.67 2.68 2.71 2.72 2.62 2.74 2.53 2.47 2.32
0.04 0.04 0.07 0.07 0.05 0.06 0.13 0.29 0.42 0.45 0.51 0.51 0.49 0.45 0.44 0.51 0.70 0.77 0.79 0.96 1.09 1.29 1.59 1.81 1.98 2.21 2.49 2.57 2.74 2.67 2.84 2.98 3.08 3.22 3.12 2.98 3.04 3.03 3.11 3.10 3.15 3.14 3.19 3.06 3.01 2.99 2.80 2.64 2.61
0.04 0.04 0.08 0.08 0.07 0.07 0.13 0.29 0.47 0.54 0.66 0.67 0.60 0.56 0.58 0.61 0.70 0.85 1.01 1.23 1.50 1.70 1.78 1.91 2.06 2.27 2.48 2.78 3.10 3.26 3.34 3.55 3.70 3.83 3.98 3.95 3.91 4.01 4.06 3.96 3.86 3.71 3.58 3.39 3.28 3.11 2.93 2.71 2.63
0.01 0.04 0.07 0.07 0.09 0.11 0.20 0.34 0.48 0.55 0.62 0.71 0.73 0.73 0.70 0.73 0.82 1.11 1.38 1.72 1.85 1.92 1.96 2.07 2.19 2.46 2.74 3.12 3.57 3.99 4.16 4.29 4.31 4.36 4.58 4.69 4.71 4.87 4.98 4.90 4.71 4.49 4.15 3.72 3.39 3.20 3.04 2.79 2.74
0.01 0.03 0.06 0.09 0.08 0.13 0.28 0.51 0.66 0.65 0.72 0.79 0.85 0.99 0.94 0.96 1.11 1.35 1.60 1.74 1.89 1.96 2.06 2.18 2.50 2.91 3.35 3.83 4.35 4.77 5.04 5.09 5.02 4.73 4.84 4.98 4.94 5.01 5.18 5.16 4.91 4.54 4.01 3.53 3.36 3.28 3.15 2.97 2.87
0.02 0.02 0.04 0.06 0.08 0.15 0.24 0.58 0.88 0.89 0.93 0.87 0.92 1.04 1.00 1.03 1.16 1.33 1.55 1.77 1.85 1.98 2.16 2.29 2.63 3.18 3.65 4.12 4.78 5.29 5.57 5.74 5.84 5.60 5.30 5.15 4.97 4.83 4.73 4.60 4.20 3.75 3.42 3.17 3.09 3.08 2.91 2.89 2.81
0.02 0.01 0.02 0.03 0.05 0.13 0.17 0.44 0.98 1.10 1.18 1.09 1.05 1.12 0.99 0.92 1.02 1.17 1.30 1.59 1.85 1.94 1.98 2.07 2.49 3.09 3.81 4.52 5.07 5.54 5.91 6.04 5.98 5.63 5.26 4.84 4.48 4.06 3.71 3.37 3.09 2.95 2.75 2.55 2.47 2.47 2.44 2.33 2.28
0.01 0.01 0.02 0.03 0.07 0.18 0.19 0.39 1.00 1.33 1.54 1.59 1.28 1.11 0.99 0.91 0.92 0.95 1.05 1.29 1.60 1.66 1.79 2.01 2.35 3.02 3.76 4.37 4.91 5.29 5.62 5.65 5.37 4.94 4.48 4.19 3.81 3.33 2.88 2.65 2.43 2.29 2.11 1.90 1.78 1.77 1.83 1.91 1.98
0.02 0.04 0.17 0.29 0.35 0.33 0.28 0.50 1.09 1.31 1.29 1.25 1.20 1.21 1.11 0.91 0.86 0.91 0.96 1.08 1.30 1.45 1.71 2.08 2.46 2.94 3.38 3.87 4.34 4.59 4.78 4.82 4.74 4.50 4.15 3.87 3.46 3.02 2.57 2.18 1.98 1.75 1.58 1.49 1.43 1.40 1.40 1.48 1.59
0.02 0.06 0.29 0.45 0.48 0.50 0.55 0.89 1.39 1.23 1.02 1.00 1.07 1.09 1.03 0.97 0.95 1.09 1.18 1.23 1.33 1.44 1.59 1.91 2.25 2.63 2.84 3.07 3.41 3.63 3.76 3.82 3.74 3.56 3.30 3.01 2.72 2.45 2.12 1.70 1.39 1.20 1.08 1.02 1.04 1.09 1.14 1.17 1.22
0.04 0.07 0.14 0.18 0.25 0.49 0.84 1.26 1.70 1.65 1.22 1.03 1.06 1.02 0.96 0.95 0.95 1.10 1.24 1.28 1.31 1.36 1.50 1.61 1.75 1.98 2.22 2.43 2.56 2.66 2.71 2.65 2.59 2.45 2.24 2.04 1.86 1.66 1.43 1.19 1.03 0.93 0.89 0.84 0.81 0.82 0.85 0.89 0.95
0.07 0.09 0.12 0.20 0.41 0.71 0.93 1.45 2.08 2.11 1.66 1.32 1.22 1.15 1.02 0.95 0.99 1.09 1.14 1.19 1.19 1.16 1.22 1.31 1.42 1.52 1.66 1.77 1.80 1.74 1.75 1.76 1.64 1.52 1.44 1.29 1.13 1.01 0.93 0.84 0.79 0.75 0.70 0.69 0.70 0.68 0.67 0.76 0.79
0.10 0.11 0.17 0.26 0.32 0.69 1.13 1.75 2.06 2.27 2.13 1.78 1.36 1.11 1.02 1.00 0.98 0.99 0.99 0.99 0.98 0.91 0.94 1.00 1.07 1.19 1.27 1.30 1.31 1.22 1.16 1.09 1.01 0.93 0.92 0.85 0.77 0.74 0.70 0.65 0.62 0.61 0.61 0.60 0.59 0.60 0.58 0.63 0.74
0.11 0.13 0.19 0.36 0.40 0.49 0.93 1.90 2.13 2.41 2.36 2.01 1.55 1.20 1.10 1.06 0.99 0.90 0.85 0.81 0.78 0.75 0.75 0.78 0.85 0.90 0.91 0.91 0.88 0.85 0.79 0.75 0.73 0.70 0.68 0.71 0.68 0.62 0.60 0.57 0.55 0.55 0.56 0.58 0.57 0.56 0.56 0.58 0.64

GEFSSGP_prec_meanprecacc_156.txt.gz
Total_Precipitation_Accumulation
0.00 0.00 0.00 0.00 0.00 0.00 0.00 0.02 0.04 0.08 0.10 0.11 0.14 0.13 0.15 0.26 0.55 1.12 0.62 0.33 0.18 0.08 0.05 0.05 0.04 0.04 0.06 0.09 0.13 0.14 0.12 0.13 0.15 0.15 0.15 0.12 0.09 0.08 0.07 0.08 0.12 0.18 0.19 0.18 0.14 0.12 0.13 0.13 0.11
0.00 0.00 0.00 0.00 0.00 0.00 0.01 0.03 0.06 0.09 0.11 0.12 0.20 0.17 0.16 0.21 0.26 0.22 0.26 0.25 0.17 0.08 0.05 0.04 0.05 0.05 0.06 0.07 0.11 0.16 0.14 0.13 0.13 0.14 0.12 0.10 0.09 0.09 0.09 0.10 0.13 0.16 0.15 0.12 0.09 0.08 0.08 0.10 0.08
0.00 0.00 0.00 0.00 0.00 0.01 0.06 0.07 0.10 0.11 0.11 0.14 0.28 0.41 0.39 0.36 0.39 0.28 0.23 0.17 0.14 0.07 0.05 0.06 0.07 0.08 0.09 0.08 0.08 0.14 0.16 0.17 0.16 0.17 0.15 0.14 0.13 0.12 0.11 0.12 0.14 0.14 0.13 0.15 0.14 0.12 0.09 0.08 0.09
0.00 0.00 0.00 0.00 0.01 0.02 0.07 0.12 0.16 0.14 0.15 0.15 0.24 0.51 0.46 0.37 0.40 0.39 0.24 0.19 0.18 0.12 0.07 0.07 0.07 0.10 0.13 0.13 0.13 0.14 0.16 0.18 0.20 0.19 0.19 0.17 0.16 0.14 0.12 0.13 0.13 0.14 0.15 0.17 0.20 0.15 0.09 0.08 0.09
0.00 0.00 0.00 0.01 0.01 0.02 0.06 0.11 0.15 0.17 0.21 0.23 0.28 0.58 0.58 0.46 0.49 0.62 0.50 0.34 0.28 0.20 0.16 0.12 0.11 0.11 0.13 0.16 0.20 0.23 0.19 0.19 0.22 0.22 0.20 0.19 0.19 0.17 0.15 0.15 0.14 0.16 0.19 0.21 0.17 0.12 0.08 0.07 0.08
0.00 0.00 0.00 0.00 0.01 0.02 0.08 0.12 0.15 0.20 0.28 0.35 0.43 0.78 1.00 0.88 0.82 0.88 0.83 0.52 0.39 0.30 0.25 0.25 0.19 0.14 0.15 0.19 0.21 0.28 0.30 0.30 0.29 0.27 0.24 0.22 0.19 0.18 0.19 0.19 0.19 0.21 0.25 0.23 0.14 0.08 0.06 0.06 0.07
0.00 0.00 0.00 0.01 0.02 0.06 0.10 0.15 0.18 0.22 0.38 0.49 0.63 1.04 1.18 1.18 1.17 0.95 0.89 0.70 0.41 0.38 0.43 0.40 0.28 0.23 0.24 0.26 0.25 0.28 0.34 0.36 0.35 0.36 0.35 0.31 0.29 0.26 0.25 0.24 0.23 0.25 0.26 0.20 0.13 0.08 0.07 0.07 0.07
0.00 0.00 0.00 0.01 0.02 0.07 0.14 0.17 0.25 0.30 0.45 0.60 0.74 1.12 1.32 1.28 1.16 1.01 0.85 0.86 0.63 0.58 0.59 0.59 0.58 0.50 0.36 0.33 0.34 0.33 0.41 0.43 0.38 0.36 0.38 0.35 0.30 0.27 0.25 0.22 0.23 0.23 0.22 0.18 0.15 0.13 0.10 0.08 0.07
0.00 0.00 0.00 0.01 0.03 0.09 0.17 0.19 0.24 0.32 0.52 0.72 0.70 0.82 1.17 1.02 1.13 1.35 1.17 1.09 0.93 0.78 0.75 0.69 0.75 0.72 0.54 0.45 0.39 0.41 0.46 0.52 0.49 0.42 0.40 0.37 0.43 0.47 0.40 0.31 0.33 0.29 0.26 0.23 0.20 0.16 0.12 0.09 0.07
0.00 0.00 0.00 0.00 0.03 0.08 0.16 0.24 0.32 0.36 0.48 0.65 0.75 0.73 0.89 1.01 1.08 1.26 1.48 1.33 1.15 1.00 0.97 0.92 0.79 0.71 0.66 0.54 0.53 0.58 0.55 0.57 0.55 0.59 0.56 0.58 0.85 0.95 0.75 0.76 0.63 0.53 0.44 0.35 0.29 0.23 0.17 0.12 0.09
0.00 0.00 0.00 0.01 0.03 0.11 0.16 0.25 0.27 0.35 0.53 0.67 0.85 0.88 0.90 1.04 1.28 1.37 1.66 1.58 1.45 1.38 1.17 1.23 1.09 0.91 1.03 1.05 0.89 0.85 0.83 0.84 0.79 0.95 0.97 1.02 1.14 1.10 1.04 1.14 0.94 0.79 0.68 0.63 0.62 0.41 0.31 0.28 0.30
0.00 0.00 0.00 0.01 0.03 0.11 0.15 0.16 0.29 0.44 0.83 0.92 1.19 1.39 1.35 1.24 1.50 1.60 1.91 1.85 1.84 1.81 1.58 1.48 1.47 1.35 1.41 1.64 1.50 1.25 1.14 1.15 1.15 1.22 1.12 1.29 1.42 1.40 1.36 1.42 1.26 1.20 1.16 1.18 1.07 0.90 0.74 0.66 0.57
0.00 0.01 0.01 0.02 0.04 0.11 0.18 0.21 0.32 0.54 0.74 0.83 1.19 1.56 1.55 1.38 1.35 1.51 2.13 1.97 1.93 1.97 1.88 1.65 1.70 1.71 1.79 1.97 1.84 1.68 1.76 1.55 1.42 1.54 1.42 1.46 1.55 1.58 1.67 1.59 1.57 1.47 1.44 1.40 1.26 1.20 1.16 1.05 0.95
0.01 0.01 0.01 0.02 0.03 0.10 0.19 0.25 0.32 0.46 0.40 0.49 0.79 1.02 1.09 1.17 1.24 1.38 1.76 1.87 1.80 1.85 1.93 2.02 1.99 1.99 1.85 1.93 1.94 1.80 1.77 1.83 1.65 1.59 1.55 1.51 1.60 1.80 1.85 1.83 1.83 1.79 1.77 1.84 1.66 1.48 1.55 1.41 1.34
0.00 0.01 0.03 0.04 0.07 0.14 0.21 0.33 0.48 0.62 0.46 0.48 0.63 0.62 0.80 1.00 1.26 1.47 1.67 1.80 1.85 1.84 1.90 2.06 2.08 2.10 2.02 1.97 2.00 1.95 1.85 1.82 1.87 1.90 1.92 1.77 1.71 1.93 2.00 2.16 2.11 2.04 2.01 2.07 2.05 1.92 1.92 1.76 1.65
0.01 0.02 0.05 0.08 0.08 0.11 0.20 0.45 0.64 0.70 0.64 0.57 0.60 0.60 0.67 0.86 1.08 1.24 1.30 1.49 1.52 1.51 1.69 1.82 1.92 1.98 2.21 2.30 2.36 2.21 2.29 2.26 2.17 2.04 2.04 1.95 1.91 2.05 2.24 2.34 2.33 2.31 2.23 2.34 2.47 2.42 2.25 2.13 1.96
0.02 0.04 0.06 0.11 0.07 0.07 0.16 0.44 0.62 0.57 0.67 0.66 0.61 0.53 0.55 0.70 0.89 0.97 1.06 1.19 1.28 1.30 1.63 1.80 1.94 2.11 2.25 2.42 2.59 2.55 2.63 2.55 2.50 2.46 2.38 2.45 2.51 2.43 2.51 2.63 2.71 2.73 2.77 2.78 2.68 2.80 2.60 2.53 2.37
0.05 0.05 0.08 0.09 0.07 0.08 0.16 0.33 0.48 0.56 0.68 0.75 0.67 0.57 0.54 0.64 0.82 0.96 1.01 1.13 1.19 1.35 1.65 1.90 2.07 2.33 2.60 2.67 2.84 2.77 2.92 3.05 3.14 3.28 3.17 3.04 3.11 3.11 3.17 3.15 3.19 3.21 3.27 3.14 3.09 3.08 2.87 2.70 2.65
0.06 0.06 0.10 0.10 0.08 0.09 0.16 0.33 0.51 0.61 0.77 0.85 0.73 0.65 0.70 0.71 0.80 1.03 1.21 1.36 1.61 1.81 1.88 1.99 2.14 2.35 2.55 2.85 3.19 3.34 3.42 3.64 3.78 3.89 4.03 3.99 3.96 4.08 4.12 4.02 3.92 3.78 3.66 3.47 3.35 3.17 3.00 2.77 2.69
0.02 0.05 0.08 0.09 0.11 0.12 0.22 0.37 0.52 0.60 0.69 0.82 0.81 0.80 0.78 0.83 0.92 1.22 1.49 1.87 2.02 2.05 2.08 2.16 2.28 2.54 2.83 3.21 3.66 4.08 4.25 4.38 4.41 4.45 4.66 4.76 4.79 4.96 5.08 5.00 4.80 4.57 4.24 3.81 3.47 3.27 3.11 2.85 2.81
0.01 0.04 0.06 0.10 0.10 0.15 0.30 0.56 0.72 0.71 0.80 0.86 0.92 1.06 1.01 1.05 1.23 1.46 1.72 1.89 2.00 2.04 2.13 2.26 2.57 2.99 3.43 3.91 4.42 4.86 5.13 5.17 5.11 4.83 4.95 5.09 5.06 5.13 5.30 5.28 5.03 4.66 4.11 3.62 3.43 3.34 3.21 3.02 2.93
0.02 0.03 0.04 0.06 0.09 0.16 0.26 0.64 0.98 0.98 1.02 0.94 0.98 1.09 1.05 1.08 1.25 1.47 1.67 1.89 1.97 2.06 2.23 2.36 2.70 3.24 3.72 4.18 4.85 5.37 5.65 5.82 5.92 5.71 5.43 5.28 5.11 4.97 4.85 4.70 4.30 3.84 3.50 3.25 3.16 3.15 2.97 2.94 2.85
0.02 0.01 0.02 0.03 0.05 0.13 0.18 0.46 1.05 1.19 1.26 1.16 1.10 1.16 1.03 0.97 1.10 1.33 1.45 1.69 1.96 2.04 2.05 2.13 2.54 3.13 3.86 4.57 5.12 5.61 5.99 6.15 6.10 5.75 5.39 4.99 4.64 4.21 3.84 3.48 3.17 3.02 2.82 2.61 2.53 2.52 2.48 2.37 2.31
0.02 0.01 0.02 0.03 0.07 0.18 0.20 0.41 1.06 1.44 1.64 1.66 1.34 1.16 1.03 0.95 0.99 1.05 1.13 1.33 1.65 1.71 1.85 2.07 2.40 3.06 3.80 4.41 4.96 5.34 5.70 5.75 5.49 5.06 4.61 4.30 3.93 3.46 2.99 2.73 2.50 2.34 2.16 1.95 1.83 1.81 1.86 1.93 2.01
0.02 0.04 0.17 0.30 0.35 0.34 0.31 0.53 1.16 1.39 1.37 1.34 1.29 1.27 1.14 0.94 0.90 0.97 1.00 1.12 1.32 1.48 1.75 2.13 2.50 2.99 3.41 3.92 4.39 4.66 4.85 4.90 4.81 4.57 4.24 3.96 3.54 3.10 2.64 2.23 2.02 1.80 1.63 1.54 1.49 1.44 1.44 1.51 1.61
0.03 0.06 0.30 0.47 0.50 0.55 0.62 0.94 1.44 1.29 1.10 1.09 1.15 1.14 1.07 1.01 0.98 1.12 1.22 1.29 1.39 1.50 1.63 1.96 2.30 2.68 2.89 3.12 3.47 3.69 3.82 3.88 3.79 3.61 3.36 3.08 2.79 2.52 2.17 1.75 1.43 1.25 1.12 1.06 1.09 1.14 1.19 1.21 1.25
0.04 0.08 0.15 0.20 0.27 0.53 0.90 1.33 1.78 1.73 1.30 1.12 1.13 1.07 1.00 0.99 0.98 1.14 1.27 1.36 1.43 1.47 1.59 1.66 1.82 2.03 2.27 2.48 2.61 2.71 2.75 2.68 2.62 2.48 2.27 2.08 1.91 1.70 1.48 1.25 1.08 0.97 0.92 0.87 0.85 0.86 0.88 0.92 0.98
0.07 0.10 0.13 0.23 0.45 0.76 1.00 1.52 2.14 2.16 1.70 1.35 1.26 1.19 1.05 0.99 1.03 1.12 1.17 1.24 1.24 1.20 1.27 1.35 1.46 1.57 1.71 1.83 1.86 1.78 1.79 1.79 1.68 1.56 1.48 1.34 1.19 1.06 0.99 0.89 0.83 0.78 0.71 0.70 0.72 0.70 0.69 0.78 0.81
0.11 0.12 0.18 0.27 0.35 0.72 1.16 1.78 2.10 2.30 2.15 1.79 1.38 1.14 1.06 1.03 1.01 1.02 1.01 1.02 1.02 0.94 0.95 1.03 1.12 1.26 1.34 1.37 1.38 1.29 1.22 1.15 1.07 1.00 0.99 0.92 0.83 0.78 0.74 0.69 0.66 0.64 0.63 0.61 0.60 0.61 0.59 0.64 0.75
0.12 0.14 0.20 0.37 0.42 0.51 0.95 1.94 2.17 2.45 2.37 2.03 1.61 1.27 1.13 1.08 1.01 0.92 0.87 0.83 0.80 0.77 0.77 0.81 0.89 0.95 0.96 0.95 0.93 0.90 0.84 0.80 0.78 0.76 0.76 0.80 0.76 0.69 0.65 0.62 0.60 0.59 0.60 0.61 0.59 0.57 0.57 0.59 0.65

GEFSSGP_prec_meanprecacc_162.txt.gz
Total_Precipitation_Accumulation
0.00 0.00 0.00 0.00 0.00 0.00 0.00 0.02 0.05 0.09 0.12 0.13 0.15 0.14 0.16 0.26 0.55 1.12 0.63 0.33 0.18 0.08 0.05 0.05 0.05 0.05 0.07 0.09 0.13 0.14 0.12 0.14 0.15 0.16 0.15 0.12 0.09 0.08 0.08 0.08 0.12 0.18 0.20 0.18 0.14 0.13 0.13 0.14 0.11
0.00 0.00 0.00 0.00 0.00 0.00 0.02 0.04 0.07 0.11 0.13 0.14 0.21 0.18 0.17 0.21 0.26 0.23 0.27 0.25 0.17 0.08 0.06 0.04 0.06 0.06 0.07 0.07 0.11 0.16 0.14 0.13 0.13 0.14 0.13 0.11 0.10 0.10 0.10 0.10 0.13 0.16 0.15 0.12 0.09 0.09 0.09 0.10 0.09
0.00 0.00 0.00 0.00 0.00 0.01 0.06 0.09 0.13 0.14 0.13 0.16 0.29 0.42 0.40 0.38 0.40 0.28 0.24 0.18 0.14 0.08 0.05 0.07 0.07 0.08 0.09 0.08 0.08 0.14 0.16 0.17 0.17 0.17 0.15 0.15 0.14 0.13 0.12 0.13 0.14 0.15 0.14 0.15 0.15 0.12 0.09 0.09 0.09
0.00 0.00 0.00 0.00 0.01 0.03 0.08 0.13 0.18 0.17 0.17 0.16 0.26 0.53 0.47 0.38 0.41 0.40 0.25 0.20 0.18 0.12 0.07 0.08 0.08 0.10 0.13 0.13 0.13 0.14 0.16 0.18 0.20 0.19 0.19 0.18 0.17 0.16 0.13 0.14 0.14 0.15 0.16 0.18 0.20 0.16 0.10 0.08 0.09
0.00 0.00 0.00 0.01 0.01 0.02 0.07 0.12 0.18 0.20 0.25 0.25 0.30 0.59 0.59 0.47 0.50 0.63 0.51 0.34 0.28 0.21 0.17 0.13 0.13 0.12 0.14 0.16 0.20 0.23 0.19 0.19 0.22 0.23 0.21 0.20 0.19 0.18 0.17 0.16 0.15 0.17 0.20 0.22 0.18 0.13 0.08 0.07 0.09
0.00 0.00 0.00 0.00 0.01 0.02 0.09 0.14 0.16 0.23 0.31 0.37 0.45 0.80 1.01 0.89 0.85 0.91 0.88 0.54 0.40 0.31 0.27 0.27 0.21 0.15 0.15 0.19 0.21 0.28 0.30 0.30 0.29 0.27 0.24 0.23 0.20 0.19 0.21 0.21 0.20 0.22 0.26 0.24 0.15 0.08 0.07 0.06 0.07
0.00 0.00 0.00 0.01 0.02 0.06 0.11 0.16 0.19 0.25 0.41 0.51 0.64 1.06 1.20 1.20 1.22 0.99 0.93 0.72 0.42 0.39 0.43 0.41 0.28 0.24 0.25 0.27 0.25 0.28 0.34 0.36 0.36 0.36 0.35 0.31 0.29 0.27 0.26 0.25 0.24 0.26 0.27 0.21 0.14 0.09 0.07 0.07 0.07
0.00 0.00 0.00 0.01 0.02 0.08 0.15 0.18 0.26 0.33 0.49 0.63 0.76 1.15 1.34 1.30 1.17 1.03 0.86 0.87 0.64 0.60 0.60 0.59 0.59 0.51 0.37 0.34 0.35 0.34 0.41 0.44 0.38 0.36 0.38 0.36 0.31 0.28 0.27 0.23 0.25 0.25 0.24 0.20 0.17 0.16 0.12 0.09 0.08
0.00 0.00 0.00 0.01 0.03 0.10 0.18 0.20 0.27 0.34 0.54 0.76 0.74 0.86 1.21 1.05 1.16 1.37 1.19 1.10 0.94 0.79 0.76 0.70 0.76 0.73 0.55 0.47 0.40 0.42 0.47 0.53 0.50 0.42 0.41 0.38 0.44 0.47 0.41 0.33 0.35 0.32 0.30 0.27 0.24 0.19 0.15 0.12 0.09
0.00 0.00 0.00 0.00 0.03 0.08 0.16 0.25 0.34 0.38 0.50 0.70 0.81 0.78 0.94 1.05 1.10 1.28 1.50 1.35 1.16 1.00 0.98 0.93 0.79 0.72 0.66 0.55 0.53 0.59 0.56 0.57 0.55 0.59 0.56 0.59 0.86 0.96 0.75 0.77 0.67 0.59 0.51 0.42 0.36 0.29 0.22 0.15 0.12
0.00 0.00 0.00 0.01 0.03 0.11 0.18 0.27 0.29 0.37 0.55 0.72 0.90 0.93 0.94 1.08 1.30 1.39 1.69 1.62 1.49 1.40 1.19 1.24 1.11 0.92 1.04 1.07 0.90 0.87 0.84 0.85 0.80 0.96 0.98 1.03 1.15 1.11 1.06 1.15 0.96 0.84 0.74 0.68 0.67 0.47 0.36 0.32 0.34
0.00 0.00 0.00 0.02 0.04 0.12 0.17 0.20 0.32 0.48 0.86 0.96 1.23 1.43 1.39 1.28 1.54 1.64 1.96 1.90 1.89 1.85 1.62 1.51 1.50 1.39 1.45 1.69 1.54 1.29 1.16 1.17 1.17 1.25 1.16 1.33 1.46 1.45 1.40 1.45 1.29 1.23 1.20 1.22 1.10 0.91 0.76 0.70 0.61
0.00 0.01 0.01 0.02 0.06 0.14 0.20 0.24 0.34 0.57 0.78 0.89 1.26 1.61 1.60 1.44 1.42 1.58 2.20 2.03 2.00 2.04 1.95 1.73 1.78 1.79 1.87 2.05 1.91 1.72 1.79 1.58 1.46 1.59 1.47 1.52 1.61 1.64 1.73 1.64 1.63 1.52 1.50 1.46 1.29 1.21 1.18 1.09 0.98
0.01 0.01 0.02 0.03 0.04 0.12 0.21 0.28 0.35 0.48 0.45 0.56 0.89 1.12 1.17 1.25 1.32 1.45 1.83 1.94 1.89 1.95 2.04 2.11 2.08 2.10 1.96 2.02 2.00 1.85 1.81 1.88 1.70 1.64 1.61 1.57 1.66 1.86 1.91 1.90 1.90 1.86 1.83 1.91 1.71 1.52 1.59 1.45 1.37
0.01 0.02 0.04 0.06 0.08 0.17 0.23 0.36 0.51 0.65 0.53 0.59 0.77 0.79 0.98 1.13 1.38 1.59 1.77 1.91 1.96 1.94 2.00 2.13 2.16 2.20 2.12 2.07 2.08 2.01 1.92 1.89 1.94 1.97 1.98 1.83 1.76 1.99 2.06 2.23 2.19 2.12 2.10 2.15 2.12 1.97 1.98 1.80 1.68
0.02 0.03 0.07 0.10 0.09 0.13 0.23 0.48 0.67 0.74 0.73 0.69 0.75 0.79 0.88 1.05 1.28 1.41 1.43 1.59 1.63 1.61 1.77 1.90 2.00 2.06 2.29 2.40 2.47 2.33 2.43 2.40 2.31 2.17 2.15 2.04 1.98 2.12 2.34 2.45 2.44 2.41 2.33 2.44 2.55 2.48 2.29 2.17 1.99
0.02 0.05 0.08 0.13 0.09 0.08 0.18 0.48 0.64 0.60 0.73 0.76 0.72 0.67 0.68 0.83 1.00 1.09 1.16 1.29 1.40 1.41 1.71 1.88 2.03 2.21 2.37 2.57 2.75 2.73 2.82 2.76 2.69 2.63 2.53 2.59 2.62 2.53 2.64 2.78 2.87 2.86 2.88 2.87 2.75 2.85 2.64 2.57 2.41
0.05 0.06 0.09 0.11 0.09 0.09 0.18 0.35 0.51 0.61 0.74 0.81 0.77 0.68 0.64 0.71 0.88 1.03 1.09 1.21 1.27 1.41 1.71 1.96 2.16 2.42 2.73 2.82 3.01 2.96 3.10 3.21 3.30 3.42 3.30 3.14 3.20 3.20 3.31 3.29 3.32 3.33 3.37 3.22 3.17 3.16 2.93 2.75 2.70
0.06 0.07 0.11 0.11 0.09 0.10 0.17 0.34 0.54 0.66 0.84 0.91 0.79 0.76 0.81 0.79 0.87 1.09 1.26 1.42 1.68 1.87 1.94 2.05 2.22 2.43 2.64 2.95 3.29 3.47 3.57 3.79 3.93 4.02 4.12 4.08 4.05 4.18 4.24 4.12 4.01 3.86 3.74 3.55 3.42 3.24 3.07 2.83 2.74
0.03 0.06 0.09 0.10 0.12 0.13 0.23 0.39 0.54 0.66 0.79 0.90 0.88 0.87 0.84 0.90 0.96 1.26 1.55 1.93 2.11 2.14 2.16 2.23 2.35 2.62 2.91 3.30 3.77 4.19 4.36 4.49 4.51 4.54 4.74 4.85 4.89 5.06 5.17 5.09 4.88 4.64 4.30 3.85 3.52 3.32 3.16 2.90 2.86
0.02 0.05 0.07 0.11 0.12 0.17 0.31 0.58 0.74 0.73 0.86 0.92 0.96 1.09 1.05 1.09 1.27 1.50 1.78 1.96 2.09 2.15 2.23 2.33 2.65 3.07 3.51 4.00 4.52 4.95 5.20 5.24 5.17 4.90 5.02 5.17 5.14 5.23 5.43 5.41 5.14 4.74 4.18 3.68 3.50 3.40 3.26 3.07 2.97
0.02 0.03 0.05 0.07 0.11 0.18 0.27 0.65 1.00 1.00 1.05 0.97 1.01 1.12 1.08 1.12 1.28 1.51 1.73 1.96 2.04 2.14 2.32 2.44 2.77 3.31 3.79 4.25 4.91 5.43 5.69 5.88 5.99 5.76 5.47 5.33 5.18 5.06 4.96 4.81 4.40 3.93 3.59 3.33 3.24 3.21 3.02 2.98 2.89
0.02 0.02 0.03 0.03 0.05 0.14 0.19 0.47 1.06 1.20 1.28 1.17 1.11 1.19 1.06 1.00 1.13 1.36 1.50 1.74 2.00 2.08 2.11 2.20 2.63 3.22 3.94 4.65 5.20 5.67 6.04 6.20 6.15 5.81 5.45 5.04 4.70 4.28 3.92 3.56 3.26 3.12 2.91 2.70 2.61 2.59 2.53 2.40 2.35
0.02 0.02 0.02 0.04 0.08 0.18 0.20 0.41 1.07 1.45 1.65 1.68 1.35 1.18 1.06 0.98 1.02 1.08 1.18 1.38 1.68 1.74 1.88 2.11 2.48 3.16 3.89 4.49 5.04 5.42 5.76 5.80 5.54 5.11 4.66 4.34 3.97 3.52 3.06 2.81 2.56 2.41 2.23 2.02 1.90 1.88 1.91 1.98 2.04
0.02 0.04 0.18 0.30 0.36 0.34 0.31 0.53 1.16 1.39 1.37 1.36 1.33 1.33 1.19 0.97 0.92 1.00 1.04 1.15 1.35 1.51 1.78 2.16 2.56 3.07 3.51 4.00 4.45 4.71 4.90 4.95 4.88 4.63 4.29 4.01 3.59 3.15 2.69 2.28 2.07 1.83 1.66 1.58 1.52 1.47 1.47 1.55 1.65
0.03 0.06 0.30 0.47 0.50 0.55 0.62 0.94 1.45 1.30 1.11 1.11 1.18 1.18 1.10 1.02 1.00 1.15 1.25 1.33 1.43 1.54 1.67 2.01 2.39 2.76 2.97 3.20 3.53 3.75 3.88 3.94 3.85 3.66 3.40 3.12 2.84 2.57 2.22 1.80 1.48 1.28 1.14 1.08 1.10 1.15 1.21 1.23 1.28
0.05 0.08 0.15 0.20 0.27 0.53 0.90 1.33 1.79 1.73 1.30 1.12 1.14 1.08 1.01 1.00 1.00 1.17 1.31 1.41 1.49 1.52 1.64 1.72 1.91 2.11 2.35 2.55 2.68 2.77 2.80 2.73 2.66 2.52 2.32 2.13 1.95 1.75 1.54 1.31 1.13 1.01 0.95 0.89 0.86 0.87 0.89 0.95 1.01
0.07 0.10 0.13 0.24 0.45 0.76 1.00 1.52 2.15 2.17 1.70 1.36 1.27 1.19 1.05 0.99 1.04 1.14 1.20 1.27 1.29 1.25 1.32 1.40 1.53 1.63 1.76 1.87 1.89 1.81 1.81 1.82 1.70 1.59 1.51 1.38 1.23 1.11 1.05 0.95 0.89 0.83 0.75 0.73 0.74 0.72 0.70 0.79 0.83
0.11 0.12 0.18 0.27 0.35 0.72 1.16 1.79 2.10 2.30 2.15 1.80 1.38 1.14 1.06 1.04 1.02 1.03 1.03 1.05 1.06 0.99 1.00 1.07 1.15 1.29 1.36 1.39 1.41 1.32 1.25 1.17 1.09 1.02 1.02 0.96 0.87 0.83 0.80 0.76 0.73 0.71 0.68 0.65 0.62 0.63 0.61 0.65 0.76
0.12 0.14 0.20 0.38 0.43 0.51 0.96 1.94 2.18 2.45 2.38 2.03 1.61 1.27 1.13 1.09 1.02 0.94 0.89 0.86 0.84 0.81 0.80 0.84 0.91 0.97 0.98 0.97 0.95 0.93 0.88 0.84 0.81 0.78 0.79 0.84 0.80 0.74 0.72 0.70 0.69 0.69 0.69 0.68 0.65 0.61 0.59 0.61 0.67

GEFSSGP_prec_meanprecacc_168.txt.gz
Total_Precipitation_Accumulation
0.00 0.00 0.00 0.00 0.00 0.00 0.01 0.02 0.05 0.09 0.12 0.13 0.16 0.15 0.18 0.28 0.58 1.16 0.64 0.33 0.18 0.08 0.06 0.05 0.05 0.05 0.07 0.09 0.13 0.14 0.13 0.14 0.16 0.17 0.16 0.13 0.10 0.08 0.09 0.09 0.13 0.19 0.21 0.19 0.15 0.13 0.14 0.14 0.12
0.00 0.00 0.00 0.00 0.00 0.00 0.02 0.04 0.08 0.11 0.14 0.16 0.22 0.19 0.20 0.23 0.27 0.23 0.27 0.26 0.17 0.08 0.06 0.04 0.06 0.06 0.07 0.07 0.11 0.16 0.15 0.14 0.14 0.15 0.14 0.12 0.11 0.11 0.11 0.11 0.14 0.17 0.16 0.13 0.10 0.09 0.09 0.11 0.09
0.00 0.00 0.00 0.00 0.00 0.01 0.06 0.09 0.13 0.14 0.13 0.17 0.30 0.43 0.42 0.39 0.40 0.28 0.24 0.18 0.14 0.08 0.05 0.07 0.08 0.09 0.10 0.09 0.08 0.14 0.17 0.17 0.17 0.17 0.16 0.16 0.15 0.14 0.13 0.14 0.15 0.15 0.15 0.16 0.16 0.13 0.10 0.10 0.10
0.00 0.00 0.00 0.00 0.01 0.03 0.08 0.13 0.18 0.18 0.17 0.17 0.26 0.53 0.48 0.39 0.42 0.40 0.26 0.20 0.18 0.12 0.08 0.09 0.10 0.11 0.14 0.14 0.13 0.15 0.16 0.19 0.21 0.20 0.20 0.19 0.18 0.17 0.15 0.15 0.15 0.16 0.17 0.19 0.22 0.18 0.11 0.09 0.10
0.00 0.00 0.00 0.01 0.01 0.02 0.07 0.13 0.18 0.20 0.25 0.26 0.30 0.59 0.60 0.47 0.51 0.63 0.51 0.35 0.29 0.22 0.19 0.15 0.15 0.14 0.15 0.17 0.21 0.24 0.20 0.20 0.23 0.23 0.21 0.21 0.21 0.19 0.18 0.18 0.17 0.18 0.22 0.23 0.19 0.14 0.09 0.08 0.10
0.00 0.00 0.00 0.00 0.01 0.02 0.09 0.14 0.17 0.23 0.31 0.38 0.46 0.81 1.02 0.90 0.85 0.92 0.89 0.55 0.41 0.32 0.28 0.28 0.23 0.16 0.17 0.20 0.23 0.29 0.31 0.30 0.29 0.27 0.25 0.24 0.22 0.21 0.23 0.23 0.23 0.25 0.29 0.27 0.17 0.10 0.08 0.08 0.09
0.00 0.00 0.00 0.01 0.02 0.06 0.11 0.16 0.20 0.26 0.42 0.51 0.64 1.06 1.20 1.21 1.22 1.00 0.95 0.73 0.43 0.41 0.45 0.43 0.31 0.26 0.27 0.29 0.27 0.29 0.36 0.37 0.37 0.37 0.37 0.33 0.31 0.29 0.28 0.27 0.27 0.30 0.31 0.25 0.17 0.12 0.09 0.09 0.09
0.00 0.00 0.00 0.01 0.02 0.08 0.15 0.18 0.26 0.34 0.50 0.64 0.76 1.16 1.34 1.31 1.18 1.04 0.87 0.88 0.66 0.62 0.63 0.62 0.62 0.55 0.41 0.38 0.38 0.37 0.43 0.46 0.40 0.38 0.40 0.39 0.34 0.31 0.30 0.26 0.29 0.29 0.28 0.25 0.22 0.20 0.16 0.12 0.10
0.00 0.00 0.00 0.01 0.03 0.10 0.18 0.20 0.27 0.35 0.56 0.78 0.75 0.87 1.21 1.06 1.17 1.38 1.20 1.12 0.96 0.82 0.80 0.74 0.80 0.77 0.60 0.51 0.43 0.46 0.52 0.57 0.53 0.45 0.44 0.41 0.47 0.51 0.46 0.37 0.39 0.37 0.35 0.33 0.31 0.26 0.22 0.18 0.14
0.00 0.00 0.00 0.00 0.03 0.08 0.17 0.26 0.35 0.39 0.52 0.72 0.84 0.80 0.96 1.07 1.12 1.30 1.52 1.37 1.19 1.02 1.01 0.96 0.82 0.74 0.69 0.57 0.57 0.65 0.62 0.63 0.60 0.64 0.61 0.63 0.91 1.01 0.80 0.82 0.71 0.65 0.57 0.49 0.43 0.36 0.30 0.23 0.19
0.00 0.00 0.00 0.01 0.03 0.11 0.18 0.27 0.29 0.38 0.56 0.73 0.92 0.97 0.98 1.11 1.32 1.41 1.71 1.63 1.51 1.41 1.20 1.25 1.13 0.95 1.08 1.12 0.96 0.94 0.91 0.91 0.86 1.02 1.04 1.10 1.23 1.20 1.15 1.24 1.05 0.94 0.84 0.79 0.79 0.56 0.44 0.41 0.44
0.00 0.00 0.01 0.02 0.04 0.12 0.17 0.20 0.33 0.48 0.87 0.97 1.25 1.48 1.44 1.31 1.56 1.66 1.98 1.91 1.90 1.87 1.64 1.54 1.54 1.43 1.50 1.74 1.59 1.35 1.22 1.23 1.23 1.31 1.24 1.44 1.58 1.54 1.49 1.55 1.42 1.38 1.34 1.36 1.22 1.03 0.86 0.79 0.69
0.00 0.01 0.01 0.02 0.06 0.14 0.21 0.24 0.34 0.57 0.79 0.90 1.27 1.64 1.66 1.49 1.44 1.61 2.22 2.06 2.03 2.07 1.99 1.76 1.82 1.85 1.94 2.12 1.96 1.77 1.83 1.63 1.54 1.66 1.56 1.62 1.71 1.73 1.81 1.74 1.74 1.64 1.61 1.59 1.43 1.34 1.30 1.21 1.10
0.01 0.01 0.02 0.03 0.05 0.13 0.22 0.29 0.35 0.48 0.46 0.57 0.90 1.14 1.21 1.31 1.37 1.48 1.86 1.99 1.95 2.01 2.10 2.17 2.14 2.15 2.02 2.07 2.05 1.89 1.85 1.93 1.75 1.70 1.69 1.65 1.72 1.93 1.99 1.98 1.98 1.95 1.94 2.02 1.81 1.62 1.71 1.56 1.49
0.01 0.02 0.05 0.06 0.09 0.17 0.24 0.36 0.51 0.66 0.55 0.61 0.79 0.83 1.01 1.21 1.47 1.65 1.83 1.96 2.01 1.99 2.05 2.18 2.19 2.23 2.16 2.11 2.13 2.07 1.97 1.94 2.00 2.03 2.05 1.89 1.82 2.05 2.13 2.30 2.26 2.20 2.18 2.24 2.20 2.06 2.07 1.88 1.75
0.02 0.03 0.07 0.10 0.10 0.13 0.23 0.49 0.68 0.74 0.75 0.71 0.77 0.82 0.93 1.14 1.40 1.52 1.48 1.63 1.66 1.65 1.82 1.94 2.03 2.11 2.33 2.44 2.52 2.38 2.48 2.47 2.40 2.25 2.23 2.10 2.05 2.20 2.41 2.53 2.52 2.50 2.42 2.52 2.63 2.57 2.37 2.24 2.06
0.03 0.06 0.08 0.14 0.09 0.09 0.19 0.49 0.65 0.61 0.74 0.78 0.74 0.69 0.72 0.89 1.10 1.22 1.25 1.34 1.44 1.44 1.75 1.92 2.07 2.25 2.41 2.62 2.82 2.80 2.92 2.88 2.83 2.75 2.62 2.66 2.71 2.63 2.75 2.89 2.97 2.96 2.99 2.97 2.83 2.93 2.74 2.66 2.49
0.06 0.06 0.10 0.11 0.09 0.10 0.18 0.36 0.51 0.62 0.75 0.83 0.79 0.70 0.67 0.75 0.95 1.12 1.18 1.27 1.30 1.44 1.75 2.01 2.20 2.47 2.78 2.88 3.08 3.03 3.20 3.33 3.42 3.53 3.38 3.22 3.29 3.29 3.40 3.37 3.39 3.40 3.46 3.32 3.28 3.27 3.03 2.83 2.79
0.07 0.07 0.11 0.11 0.10 0.10 0.17 0.35 0.54 0.67 0.87 0.97 0.85 0.80 0.84 0.82 0.91 1.15 1.32 1.47 1.71 1.92 2.00 2.11 2.27 2.49 2.70 3.01 3.36 3.55 3.66 3.88 4.02 4.10 4.21 4.16 4.13 4.26 4.31 4.18 4.07 3.93 3.82 3.64 3.52 3.33 3.15 2.91 2.83
0.03 0.06 0.09 0.11 0.12 0.14 0.24 0.40 0.55 0.67 0.81 0.93 0.92 0.90 0.87 0.93 0.99 1.29 1.61 1.98 2.15 2.20 2.21 2.29 2.40 2.67 2.97 3.37 3.85 4.27 4.44 4.57 4.59 4.62 4.82 4.93 4.97 5.14 5.24 5.15 4.93 4.68 4.35 3.91 3.59 3.40 3.24 2.97 2.94
0.02 0.05 0.08 0.11 0.13 0.17 0.32 0.59 0.75 0.74 0.87 0.94 0.98 1.11 1.06 1.10 1.29 1.52 1.81 2.01 2.14 2.19 2.27 2.39 2.70 3.11 3.56 4.05 4.58 5.02 5.28 5.30 5.23 4.97 5.09 5.24 5.21 5.31 5.49 5.47 5.20 4.80 4.24 3.74 3.56 3.48 3.35 3.16 3.06
0.03 0.04 0.05 0.08 0.12 0.19 0.29 0.68 1.01 1.01 1.06 0.98 1.02 1.13 1.10 1.14 1.30 1.53 1.75 1.99 2.06 2.16 2.34 2.48 2.81 3.34 3.83 4.28 4.95 5.49 5.76 5.95 6.06 5.84 5.54 5.39 5.23 5.12 5.01 4.85 4.44 3.97 3.63 3.37 3.28 3.27 3.09 3.08 3.00
0.03 0.02 0.03 0.04 0.06 0.15 0.20 0.49 1.06 1.21 1.28 1.18 1.12 1.19 1.07 1.02 1.15 1.39 1.52 1.76 2.02 2.10 2.13 2.22 2.66 3.24 3.97 4.68 5.23 5.72 6.11 6.27 6.22 5.86 5.50 5.09 4.75 4.32 3.96 3.59 3.29 3.15 2.95 2.75 2.66 2.64 2.59 2.47 2.42
0.02 0.02 0.03 0.04 0.08 0.19 0.21 0.42 1.07 1.45 1.65 1.69 1.36 1.19 1.08 1.00 1.04 1.11 1.19 1.39 1.70 1.76 1.90 2.12 2.49 3.18 3.92 4.52 5.07 5.48 5.83 5.88 5.60 5.16 4.70 4.39 4.01 3.56 3.12 2.86 2.60 2.44 2.26 2.06 1.95 1.95 1.99 2.05 2.11
0.02 0.05 0.18 0.31 0.36 0.35 0.31 0.53 1.16 1.39 1.38 1.36 1.35 1.35 1.21 0.99 0.94 1.00 1.05 1.16 1.36 1.53 1.79 2.17 2.58 3.10 3.54 4.04 4.51 4.79 4.99 5.02 4.93 4.67 4.33 4.04 3.62 3.18 2.73 2.32 2.11 1.88 1.70 1.61 1.56 1.53 1.52 1.61 1.72
0.03 0.06 0.30 0.48 0.51 0.55 0.62 0.94 1.45 1.30 1.11 1.11 1.19 1.20 1.10 1.03 1.00 1.16 1.26 1.34 1.44 1.56 1.69 2.02 2.40 2.79 3.01 3.24 3.60 3.83 3.97 4.02 3.91 3.70 3.44 3.16 2.87 2.60 2.26 1.85 1.52 1.32 1.19 1.12 1.14 1.19 1.24 1.27 1.32
0.05 0.08 0.15 0.20 0.27 0.53 0.90 1.33 1.79 1.73 1.31 1.13 1.14 1.08 1.01 1.00 1.01 1.17 1.32 1.42 1.50 1.54 1.66 1.74 1.93 2.15 2.41 2.61 2.75 2.85 2.89 2.81 2.71 2.54 2.34 2.17 1.99 1.78 1.57 1.35 1.16 1.04 0.99 0.95 0.92 0.92 0.93 0.99 1.06
0.08 0.10 0.13 0.24 0.46 0.77 1.00 1.52 2.15 2.17 1.70 1.36 1.27 1.19 1.05 0.99 1.04 1.14 1.21 1.29 1.31 1.27 1.34 1.42 1.57 1.68 1.82 1.95 1.99 1.90 1.89 1.89 1.76 1.62 1.54 1.41 1.26 1.15 1.08 0.98 0.92 0.87 0.80 0.79 0.80 0.77 0.75 0.84 0.88
0.11 0.12 0.18 0.28 0.36 0.73 1.17 1.79 2.10 2.30 2.16 1.80 1.38 1.14 1.06 1.04 1.02 1.03 1.04 1.06 1.08 1.01 1.02 1.10 1.20 1.34 1.41 1.44 1.47 1.39 1.32 1.22 1.13 1.06 1.05 0.98 0.90 0.86 0.83 0.79 0.78 0.76 0.74 0.70 0.68 0.68 0.66 0.71 0.82
0.12 0.15 0.20 0.39 0.43 0.52 0.97 1.95 2.18 2.45 2.38 2.04 1.61 1.28 1.13 1.10 1.02 0.94 0.90 0.87 0.86 0.83 0.82 0.87 0.94 1.01 1.02 1.01 0.99 0.97 0.92 0.87 0.84 0.82 0.82 0.86 0.82 0.76 0.74 0.74 0.74 0.75 0.75 0.74 0.70 0.65 0.63 0.66 0.74

GEFSSGP_prec_meanprecacc_174.txt.gz
Total_Precipitation_Accumulation
0.00 0.00 0.00 0.00 0.00 0.00 0.01 0.03 0.05 0.09 0.12 0.13 0.17 0.16 0.18 0.28 0.59 1.19 0.65 0.33 0.18 0.08 0.06 0.05 0.05 0.05 0.07 0.10 0.13 0.15 0.13 0.15 0.17 0.18 0.18 0.14 0.11 0.09 0.09 0.09 0.14 0.19 0.21 0.19 0.16 0.14 0.14 0.15 0.12
0.00 0.00 0.00 0.00 0.00 0.01 0.02 0.05 0.08 0.11 0.14 0.16 0.22 0.19 0.20 0.24 0.27 0.23 0.27 0.26 0.17 0.08 0.06 0.04 0.06 0.06 0.07 0.07 0.11 0.16 0.16 0.15 0.15 0.16 0.15 0.14 0.13 0.12 0.12 0.12 0.15 0.17 0.17 0.13 0.11 0.10 0.10 0.12 0.10
0.00 0.00 0.00 0.00 0.00 0.02 0.06 0.09 0.13 0.14 0.14 0.18 0.31 0.43 0.42 0.41 0.41 0.28 0.24 0.18 0.14 0.08 0.06 0.07 0.08 0.09 0.10 0.09 0.08 0.14 0.17 0.17 0.18 0.18 0.17 0.17 0.17 0.16 0.15 0.15 0.17 0.17 0.17 0.18 0.17 0.14 0.11 0.11 0.11
0.00 0.00 0.00 0.00 0.01 0.03 0.09 0.15 0.19 0.18 0.17 0.17 0.27 0.53 0.49 0.40 0.42 0.40 0.26 0.20 0.18 0.12 0.09 0.10 0.10 0.11 0.14 0.14 0.14 0.15 0.17 0.19 0.21 0.21 0.20 0.20 0.19 0.19 0.16 0.17 0.17 0.18 0.19 0.22 0.24 0.20 0.13 0.11 0.11
0.00 0.00 0.00 0.01 0.01 0.03 0.07 0.14 0.18 0.21 0.26 0.26 0.30 0.60 0.61 0.49 0.52 0.63 0.51 0.35 0.29 0.23 0.20 0.16 0.15 0.14 0.15 0.17 0.22 0.25 0.20 0.21 0.24 0.24 0.22 0.22 0.22 0.21 0.20 0.19 0.18 0.21 0.24 0.25 0.21 0.16 0.11 0.10 0.11
0.00 0.00 0.00 0.01 0.01 0.03 0.09 0.16 0.17 0.25 0.32 0.38 0.46 0.81 1.03 0.90 0.85 0.92 0.89 0.55 0.41 0.33 0.29 0.29 0.23 0.16 0.17 0.21 0.23 0.29 0.32 0.32 0.31 0.29 0.26 0.26 0.24 0.22 0.24 0.25 0.25 0.28 0.32 0.29 0.19 0.12 0.10 0.09 0.10
0.00 0.00 0.00 0.01 0.02 0.06 0.12 0.17 0.21 0.29 0.44 0.55 0.68 1.07 1.21 1.21 1.22 1.00 0.95 0.73 0.43 0.41 0.46 0.44 0.31 0.27 0.28 0.30 0.28 0.32 0.39 0.40 0.39 0.39 0.38 0.34 0.33 0.31 0.31 0.30 0.30 0.32 0.33 0.27 0.19 0.14 0.11 0.10 0.11
0.00 0.00 0.00 0.01 0.02 0.09 0.15 0.19 0.27 0.36 0.55 0.69 0.80 1.17 1.36 1.34 1.19 1.04 0.88 0.89 0.66 0.62 0.64 0.65 0.66 0.59 0.45 0.42 0.44 0.43 0.51 0.50 0.43 0.40 0.42 0.40 0.36 0.34 0.33 0.29 0.32 0.32 0.31 0.28 0.25 0.23 0.18 0.15 0.13
0.00 0.00 0.00 0.01 0.03 0.10 0.18 0.21 0.28 0.36 0.59 0.81 0.76 0.87 1.22 1.07 1.17 1.39 1.21 1.13 0.97 0.83 0.83 0.77 0.84 0.83 0.68 0.59 0.53 0.61 0.64 0.62 0.56 0.47 0.46 0.44 0.51 0.56 0.51 0.42 0.44 0.42 0.41 0.39 0.36 0.33 0.27 0.22 0.17
0.00 0.00 0.01 0.01 0.03 0.10 0.18 0.27 0.36 0.39 0.53 0.74 0.85 0.81 0.96 1.07 1.12 1.31 1.53 1.39 1.21 1.05 1.03 1.00 0.87 0.80 0.78 0.68 0.68 0.76 0.72 0.71 0.65 0.70 0.67 0.70 0.98 1.09 0.88 0.91 0.80 0.72 0.64 0.57 0.50 0.43 0.37 0.30 0.23
0.01 0.01 0.01 0.01 0.03 0.13 0.19 0.28 0.30 0.38 0.58 0.75 0.94 0.98 0.99 1.12 1.33 1.42 1.73 1.66 1.53 1.44 1.23 1.28 1.16 1.01 1.15 1.20 1.05 1.05 1.04 1.04 0.97 1.11 1.15 1.21 1.35 1.33 1.26 1.36 1.16 1.05 0.94 0.89 0.90 0.65 0.53 0.49 0.50
0.01 0.01 0.01 0.02 0.04 0.12 0.18 0.22 0.34 0.49 0.88 0.98 1.26 1.49 1.46 1.33 1.58 1.68 2.00 1.93 1.92 1.89 1.68 1.57 1.58 1.49 1.56 1.82 1.68 1.45 1.32 1.35 1.37 1.47 1.40 1.62 1.71 1.68 1.63 1.68 1.57 1.53 1.48 1.50 1.38 1.16 0.99 0.91 0.78
0.00 0.01 0.01 0.02 0.06 0.14 0.22 0.27 0.37 0.58 0.79 0.90 1.27 1.65 1.69 1.53 1.47 1.64 2.25 2.09 2.07 2.12 2.03 1.81 1.87 1.90 2.01 2.20 2.05 1.85 1.91 1.72 1.63 1.78 1.69 1.78 1.85 1.85 1.95 1.87 1.86 1.76 1.74 1.71 1.55 1.46 1.42 1.33 1.20
0.01 0.01 0.02 0.03 0.05 0.13 0.23 0.29 0.36 0.50 0.46 0.57 0.91 1.16 1.23 1.34 1.41 1.52 1.91 2.04 2.01 2.06 2.15 2.21 2.18 2.20 2.07 2.13 2.13 1.98 1.92 2.00 1.84 1.80 1.82 1.79 1.86 2.07 2.14 2.13 2.11 2.07 2.03 2.11 1.90 1.70 1.80 1.66 1.58
0.01 0.02 0.05 0.06 0.09 0.17 0.24 0.37 0.53 0.67 0.55 0.62 0.80 0.85 1.04 1.24 1.51 1.71 1.88 2.02 2.07 2.05 2.09 2.22 2.23 2.28 2.21 2.18 2.20 2.14 2.05 2.03 2.10 2.14 2.17 1.99 1.93 2.18 2.26 2.44 2.39 2.32 2.28 2.31 2.27 2.13 2.16 1.96 1.84
0.02 0.03 0.07 0.10 0.10 0.13 0.23 0.52 0.70 0.75 0.76 0.74 0.80 0.84 0.95 1.17 1.44 1.56 1.53 1.68 1.72 1.71 1.86 1.99 2.08 2.16 2.38 2.49 2.58 2.45 2.55 2.54 2.48 2.34 2.34 2.21 2.16 2.30 2.54 2.66 2.65 2.62 2.52 2.62 2.73 2.66 2.47 2.33 2.15
0.03 0.06 0.08 0.14 0.10 0.09 0.21 0.53 0.70 0.63 0.78 0.82 0.79 0.74 0.76 0.93 1.14 1.27 1.29 1.38 1.48 1.48 1.79 1.97 2.11 2.29 2.44 2.66 2.87 2.86 2.98 2.94 2.90 2.82 2.71 2.75 2.80 2.73 2.86 3.00 3.07 3.07 3.10 3.09 2.94 3.07 2.86 2.77 2.58
0.06 0.06 0.10 0.12 0.10 0.11 0.21 0.43 0.56 0.65 0.77 0.86 0.82 0.74 0.71 0.81 1.02 1.19 1.23 1.30 1.33 1.48 1.80 2.06 2.24 2.50 2.82 2.93 3.13 3.09 3.27 3.40 3.49 3.59 3.46 3.30 3.37 3.38 3.49 3.47 3.51 3.53 3.59 3.44 3.40 3.41 3.15 2.94 2.89
0.07 0.07 0.12 0.12 0.11 0.13 0.20 0.39 0.57 0.69 0.88 0.98 0.87 0.83 0.88 0.88 1.01 1.23 1.38 1.52 1.76 1.96 2.04 2.16 2.32 2.54 2.76 3.08 3.44 3.62 3.73 3.94 4.08 4.16 4.27 4.23 4.20 4.34 4.40 4.29 4.19 4.04 3.93 3.74 3.63 3.46 3.27 3.03 2.95
0.03 0.07 0.10 0.11 0.12 0.14 0.25 0.42 0.58 0.68 0.81 0.94 0.92 0.91 0.90 0.97 1.04 1.34 1.65 2.04 2.22 2.26 2.28 2.35 2.47 2.74 3.03 3.43 3.92 4.34 4.51 4.63 4.67 4.70 4.90 5.00 5.05 5.23 5.32 5.25 5.03 4.78 4.46 4.02 3.69 3.51 3.34 3.05 3.05
0.03 0.05 0.08 0.12 0.13 0.18 0.33 0.61 0.78 0.76 0.88 0.94 0.98 1.12 1.08 1.13 1.31 1.55 1.85 2.05 2.19 2.24 2.33 2.47 2.79 3.19 3.63 4.11 4.64 5.08 5.33 5.37 5.32 5.05 5.16 5.32 5.29 5.38 5.58 5.54 5.28 4.89 4.32 3.83 3.66 3.58 3.45 3.26 3.17
0.03 0.04 0.05 0.08 0.13 0.21 0.30 0.71 1.05 1.04 1.09 0.99 1.03 1.14 1.11 1.15 1.32 1.55 1.77 2.01 2.09 2.20 2.39 2.55 2.90 3.44 3.90 4.34 5.01 5.54 5.82 6.03 6.13 5.92 5.62 5.46 5.28 5.17 5.08 4.94 4.53 4.10 3.77 3.49 3.38 3.37 3.20 3.18 3.09
0.03 0.03 0.04 0.04 0.08 0.19 0.22 0.53 1.13 1.26 1.33 1.22 1.16 1.21 1.08 1.03 1.17 1.41 1.54 1.78 2.06 2.13 2.17 2.28 2.76 3.36 4.05 4.73 5.29 5.79 6.17 6.34 6.29 5.93 5.56 5.13 4.79 4.36 4.01 3.67 3.40 3.27 3.09 2.88 2.78 2.75 2.69 2.56 2.51
0.03 0.03 0.04 0.06 0.13 0.24 0.24 0.45 1.13 1.51 1.70 1.73 1.39 1.20 1.09 1.00 1.06 1.12 1.21 1.41 1.73 1.80 1.94 2.16 2.55 3.24 3.98 4.58 5.13 5.55 5.92 5.97 5.68 5.23 4.75 4.44 4.07 3.62 3.17 2.91 2.67 2.52 2.36 2.15 2.04 2.04 2.08 2.15 2.20
0.03 0.08 0.22 0.35 0.41 0.38 0.33 0.57 1.23 1.44 1.39 1.38 1.36 1.36 1.22 1.00 0.94 1.02 1.06 1.17 1.39 1.56 1.83 2.20 2.62 3.15 3.60 4.10 4.58 4.86 5.09 5.12 5.02 4.74 4.39 4.11 3.69 3.25 2.79 2.37 2.16 1.95 1.77 1.67 1.61 1.58 1.60 1.69 1.80
0.04 0.10 0.35 0.52 0.55 0.58 0.64 0.98 1.51 1.34 1.12 1.12 1.20 1.20 1.11 1.03 1.00 1.16 1.27 1.36 1.46 1.59 1.74 2.07 2.45 2.85 3.06 3.29 3.66 3.91 4.05 4.11 4.01 3.79 3.51 3.24 2.95 2.67 2.32 1.90 1.57 1.37 1.23 1.17 1.20 1.25 1.30 1.33 1.39
0.05 0.10 0.17 0.21 0.29 0.57 0.94 1.36 1.83 1.76 1.31 1.13 1.14 1.08 1.01 1.00 1.01 1.17 1.32 1.43 1.51 1.56 1.69 1.78 1.97 2.20 2.46 2.66 2.81 2.93 2.98 2.91 2.83 2.63 2.41 2.24 2.07 1.85 1.63 1.40 1.19 1.07 1.02 0.99 0.98 0.98 0.99 1.06 1.13
0.08 0.10 0.13 0.24 0.48 0.80 1.05 1.57 2.20 2.19 1.71 1.36 1.27 1.19 1.06 1.00 1.04 1.15 1.21 1.29 1.31 1.29 1.36 1.46 1.62 1.74 1.89 2.02 2.07 1.98 1.97 1.96 1.82 1.67 1.57 1.45 1.29 1.18 1.12 1.02 0.96 0.89 0.82 0.83 0.85 0.82 0.81 0.90 0.93
0.12 0.13 0.19 0.28 0.38 0.79 1.24 1.88 2.15 2.32 2.17 1.81 1.39 1.15 1.07 1.04 1.02 1.04 1.04 1.07 1.10 1.03 1.04 1.14 1.26 1.43 1.52 1.54 1.55 1.47 1.39 1.27 1.17 1.09 1.07 1.00 0.93 0.89 0.87 0.83 0.82 0.79 0.77 0.75 0.73 0.72 0.70 0.76 0.87
0.13 0.15 0.21 0.41 0.46 0.56 1.03 2.03 2.21 2.48 2.39 2.05 1.63 1.31 1.16 1.11 1.03 0.95 0.91 0.89 0.88 0.85 0.86 0.92 1.00 1.07 1.10 1.10 1.06 1.04 0.98 0.91 0.87 0.85 0.85 0.89 0.86 0.80 0.79 0.77 0.78 0.79 0.80 0.80 0.75 0.69 0.67 0.71 0.79

GEFSSGP_prec_meanprecacc_180.txt.gz
Total_Precipitation_Accumulation
0.00 0.00 0.00 0.00 0.01 0.02 0.02 0.04 0.07 0.11 0.14 0.15 0.18 0.19 0.21 0.31 0.64 1.23 0.67 0.35 0.19 0.08 0.06 0.05 0.05 0.05 0.07 0.10 0.13 0.15 0.13 0.15 0.17 0.18 0.18 0.15 0.11 0.10 0.10 0.10 0.14 0.19 0.21 0.19 0.16 0.14 0.14 0.15 0.12
0.00 0.00 0.00 0.01 0.01 0.03 0.05 0.08 0.11 0.13 0.17 0.18 0.24 0.24 0.23 0.25 0.28 0.24 0.28 0.27 0.18 0.09 0.06 0.04 0.06 0.06 0.07 0.07 0.11 0.17 0.16 0.15 0.15 0.16 0.16 0.14 0.13 0.13 0.13 0.13 0.15 0.18 0.18 0.14 0.11 0.11 0.11 0.12 0.11
0.00 0.00 0.00 0.01 0.02 0.04 0.08 0.12 0.16 0.16 0.16 0.21 0.33 0.45 0.44 0.42 0.42 0.30 0.26 0.19 0.14 0.08 0.06 0.07 0.08 0.09 0.10 0.09 0.08 0.14 0.17 0.18 0.18 0.18 0.17 0.17 0.17 0.16 0.15 0.16 0.18 0.18 0.18 0.19 0.18 0.15 0.12 0.11 0.11
0.00 0.00 0.01 0.01 0.02 0.05 0.11 0.17 0.21 0.20 0.20 0.19 0.28 0.55 0.50 0.42 0.46 0.44 0.27 0.21 0.19 0.13 0.09 0.10 0.10 0.11 0.14 0.14 0.14 0.15 0.17 0.19 0.21 0.21 0.21 0.20 0.20 0.19 0.17 0.17 0.18 0.19 0.20 0.22 0.25 0.20 0.13 0.11 0.12
0.00 0.01 0.01 0.02 0.03 0.07 0.11 0.17 0.21 0.23 0.28 0.28 0.31 0.61 0.63 0.52 0.57 0.67 0.54 0.37 0.30 0.23 0.21 0.16 0.15 0.14 0.15 0.17 0.22 0.25 0.20 0.21 0.24 0.24 0.22 0.22 0.22 0.21 0.20 0.20 0.19 0.21 0.24 0.26 0.22 0.17 0.12 0.11 0.12
0.00 0.00 0.01 0.01 0.03 0.06 0.13 0.18 0.20 0.29 0.35 0.41 0.51 0.85 1.08 0.95 0.90 0.96 0.92 0.57 0.43 0.35 0.30 0.29 0.23 0.16 0.17 0.21 0.24 0.30 0.32 0.32 0.31 0.29 0.27 0.27 0.25 0.24 0.25 0.26 0.26 0.29 0.33 0.30 0.20 0.13 0.11 0.10 0.11
0.00 0.00 0.01 0.02 0.03 0.09 0.14 0.22 0.23 0.33 0.48 0.60 0.79 1.18 1.30 1.28 1.26 1.05 1.03 0.78 0.48 0.45 0.47 0.45 0.32 0.28 0.29 0.31 0.31 0.35 0.40 0.40 0.40 0.40 0.39 0.35 0.34 0.33 0.32 0.32 0.32 0.35 0.36 0.29 0.21 0.16 0.13 0.12 0.12
0.00 0.00 0.00 0.02 0.06 0.12 0.19 0.23 0.29 0.38 0.58 0.74 0.86 1.25 1.43 1.40 1.22 1.10 0.97 0.97 0.73 0.67 0.67 0.67 0.68 0.61 0.48 0.45 0.50 0.49 0.53 0.51 0.44 0.41 0.43 0.42 0.38 0.35 0.35 0.32 0.34 0.35 0.35 0.31 0.28 0.27 0.22 0.17 0.14
0.00 0.00 0.00 0.02 0.06 0.13 0.22 0.26 0.32 0.38 0.63 0.86 0.80 0.91 1.29 1.13 1.23 1.45 1.28 1.19 1.04 0.89 0.87 0.80 0.87 0.85 0.70 0.61 0.56 0.64 0.67 0.64 0.58 0.49 0.48 0.46 0.53 0.58 0.53 0.45 0.49 0.48 0.47 0.44 0.42 0.38 0.32 0.27 0.21
0.00 0.00 0.01 0.02 0.04 0.11 0.20 0.30 0.40 0.44 0.57 0.78 0.89 0.84 1.00 1.11 1.17 1.40 1.66 1.45 1.25 1.09 1.07 1.03 0.91 0.84 0.81 0.73 0.75 0.83 0.79 0.76 0.69 0.74 0.71 0.74 1.01 1.12 0.92 0.96 0.88 0.81 0.74 0.65 0.57 0.50 0.44 0.35 0.28
0.01 0.01 0.01 0.02 0.04 0.14 0.21 0.29 0.33 0.43 0.62 0.78 0.96 1.01 1.01 1.15 1.36 1.46 1.84 1.77 1.58 1.48 1.28 1.34 1.22 1.05 1.23 1.32 1.16 1.13 1.11 1.11 1.03 1.16 1.19 1.26 1.40 1.39 1.33 1.45 1.28 1.18 1.08 1.00 0.99 0.74 0.59 0.54 0.55
0.01 0.01 0.02 0.03 0.06 0.13 0.20 0.23 0.36 0.52 0.92 0.99 1.27 1.51 1.49 1.35 1.60 1.71 2.07 2.02 1.98 1.96 1.75 1.63 1.64 1.54 1.63 1.91 1.74 1.52 1.39 1.41 1.43 1.54 1.50 1.74 1.83 1.78 1.72 1.78 1.68 1.66 1.61 1.61 1.46 1.24 1.05 0.97 0.83
0.00 0.01 0.01 0.02 0.06 0.15 0.23 0.28 0.40 0.63 0.82 0.92 1.29 1.66 1.71 1.56 1.50 1.67 2.29 2.14 2.12 2.19 2.10 1.86 1.91 1.94 2.05 2.25 2.11 1.91 1.96 1.76 1.70 1.87 1.84 1.96 1.99 1.96 2.04 1.96 1.95 1.85 1.82 1.78 1.62 1.52 1.48 1.39 1.24
0.01 0.01 0.03 0.04 0.05 0.13 0.24 0.32 0.40 0.56 0.50 0.60 0.94 1.19 1.25 1.37 1.45 1.57 1.97 2.11 2.07 2.13 2.23 2.29 2.23 2.23 2.12 2.20 2.19 2.02 1.95 2.05 1.89 1.86 1.89 1.87 1.95 2.17 2.23 2.22 2.20 2.15 2.10 2.17 1.97 1.76 1.85 1.71 1.63
0.01 0.02 0.05 0.06 0.09 0.17 0.25 0.39 0.58 0.75 0.63 0.67 0.85 0.88 1.06 1.27 1.56 1.78 1.96 2.09 2.12 2.10 2.15 2.29 2.29 2.34 2.26 2.22 2.24 2.18 2.08 2.07 2.13 2.17 2.21 2.04 1.99 2.25 2.34 2.52 2.48 2.42 2.35 2.39 2.34 2.18 2.21 2.00 1.88
0.02 0.04 0.07 0.11 0.10 0.14 0.25 0.57 0.81 0.85 0.84 0.82 0.86 0.89 0.99 1.21 1.49 1.64 1.63 1.76 1.79 1.77 1.92 2.05 2.15 2.21 2.44 2.54 2.63 2.50 2.60 2.59 2.51 2.38 2.38 2.25 2.21 2.37 2.59 2.72 2.72 2.73 2.63 2.70 2.79 2.72 2.53 2.39 2.21
0.03 0.06 0.08 0.15 0.11 0.11 0.23 0.60 0.83 0.78 0.88 0.93 0.88 0.79 0.80 0.97 1.19 1.35 1.41 1.50 1.56 1.55 1.85 2.03 2.17 2.37 2.54 2.76 2.97 2.96 3.09 3.02 2.95 2.87 2.76 2.82 2.88 2.80 2.92 3.06 3.12 3.12 3.16 3.15 3.00 3.15 2.96 2.86 2.68
0.07 0.07 0.10 0.12 0.11 0.12 0.25 0.49 0.66 0.76 0.85 0.93 0.88 0.79 0.75 0.84 1.05 1.25 1.34 1.46 1.48 1.58 1.87 2.13 2.33 2.66 3.01 3.12 3.29 3.22 3.39 3.49 3.56 3.66 3.53 3.39 3.47 3.46 3.56 3.53 3.56 3.58 3.64 3.49 3.47 3.49 3.24 3.02 2.97
0.08 0.08 0.12 0.12 0.11 0.14 0.23 0.43 0.63 0.74 0.94 1.05 0.92 0.86 0.91 0.91 1.04 1.28 1.47 1.66 1.91 2.08 2.15 2.29 2.52 2.78 2.96 3.27 3.61 3.77 3.85 4.04 4.16 4.24 4.34 4.31 4.28 4.40 4.46 4.34 4.23 4.08 3.96 3.80 3.70 3.53 3.33 3.10 3.02
0.04 0.07 0.10 0.11 0.13 0.15 0.27 0.44 0.62 0.71 0.85 0.99 0.97 0.95 0.93 1.00 1.08 1.38 1.71 2.13 2.33 2.40 2.41 2.56 2.79 3.00 3.19 3.59 4.09 4.50 4.64 4.74 4.77 4.79 4.98 5.08 5.12 5.30 5.37 5.30 5.07 4.82 4.50 4.06 3.74 3.55 3.39 3.10 3.11
0.03 0.06 0.09 0.12 0.15 0.20 0.36 0.64 0.82 0.83 0.95 1.02 1.05 1.17 1.11 1.16 1.34 1.58 1.88 2.12 2.29 2.39 2.49 2.68 2.98 3.33 3.76 4.26 4.77 5.19 5.44 5.49 5.42 5.14 5.24 5.40 5.37 5.44 5.63 5.59 5.32 4.94 4.38 3.88 3.71 3.63 3.50 3.31 3.23
0.04 0.05 0.06 0.10 0.15 0.24 0.33 0.76 1.12 1.16 1.20 1.09 1.10 1.20 1.15 1.18 1.35 1.58 1.81 2.07 2.17 2.33 2.56 2.74 3.06 3.62 4.08 4.47 5.12 5.65 5.94 6.14 6.23 5.99 5.68 5.52 5.34 5.22 5.14 4.99 4.58 4.15 3.83 3.57 3.47 3.46 3.28 3.25 3.15
0.04 0.03 0.06 0.08 0.10 0.21 0.24 0.56 1.20 1.34 1.42 1.30 1.22 1.28 1.13 1.06 1.21 1.48 1.59 1.83 2.12 2.25 2.35 2.50 2.96 3.56 4.26 4.91 5.44 5.92 6.30 6.47 6.41 6.02 5.64 5.20 4.84 4.42 4.08 3.74 3.48 3.36 3.18 2.98 2.88 2.85 2.79 2.65 2.59
0.03 0.04 0.07 0.10 0.15 0.27 0.26 0.46 1.18 1.59 1.78 1.82 1.48 1.28 1.14 1.05 1.11 1.20 1.29 1.46 1.79 1.91 2.12 2.33 2.69 3.39 4.13 4.77 5.32 5.72 6.05 6.08 5.77 5.30 4.82 4.51 4.14 3.68 3.25 3.01 2.76 2.61 2.45 2.25 2.15 2.14 2.20 2.26 2.29
0.03 0.09 0.25 0.40 0.44 0.42 0.35 0.59 1.28 1.51 1.46 1.42 1.42 1.42 1.26 1.03 0.98 1.07 1.10 1.24 1.45 1.63 1.92 2.28 2.71 3.26 3.70 4.22 4.71 4.98 5.19 5.22 5.11 4.81 4.45 4.17 3.75 3.33 2.88 2.45 2.23 2.00 1.81 1.70 1.64 1.62 1.65 1.77 1.88
0.04 0.11 0.39 0.56 0.60 0.64 0.70 1.03 1.57 1.38 1.17 1.15 1.24 1.25 1.15 1.06 1.03 1.19 1.30 1.38 1.50 1.63 1.79 2.12 2.52 2.92 3.14 3.39 3.77 4.02 4.15 4.22 4.11 3.88 3.57 3.30 3.02 2.75 2.39 1.96 1.61 1.39 1.25 1.19 1.22 1.27 1.32 1.36 1.45
0.06 0.11 0.18 0.24 0.33 0.61 0.99 1.44 1.91 1.82 1.36 1.17 1.18 1.13 1.05 1.05 1.05 1.21 1.36 1.46 1.55 1.60 1.74 1.84 2.04 2.25 2.51 2.73 2.90 3.03 3.08 3.02 2.92 2.71 2.48 2.30 2.13 1.91 1.68 1.43 1.22 1.10 1.04 1.01 1.01 1.01 1.01 1.08 1.17
0.09 0.12 0.15 0.26 0.52 0.84 1.10 1.62 2.27 2.27 1.78 1.41 1.32 1.26 1.12 1.06 1.08 1.18 1.25 1.32 1.36 1.35 1.43 1.53 1.67 1.79 1.94 2.08 2.14 2.06 2.06 2.04 1.91 1.74 1.64 1.51 1.34 1.22 1.15 1.05 0.98 0.91 0.84 0.84 0.87 0.84 0.83 0.93 0.97
0.13 0.14 0.21 0.31 0.40 0.83 1.28 1.93 2.20 2.38 2.21 1.84 1.44 1.22 1.13 1.09 1.06 1.08 1.09 1.10 1.13 1.08 1.11 1.19 1.33 1.52 1.60 1.59 1.60 1.53 1.46 1.34 1.24 1.16 1.14 1.07 0.97 0.92 0.90 0.86 0.84 0.81 0.79 0.77 0.75 0.74 0.72 0.79 0.91
0.13 0.16 0.23 0.43 0.48 0.60 1.06 2.08 2.26 2.54 2.43 2.08 1.67 1.36 1.22 1.16 1.08 1.01 0.96 0.92 0.90 0.88 0.88 0.96 1.06 1.15 1.17 1.16 1.12 1.10 1.05 0.99 0.95 0.93 0.91 0.94 0.90 0.83 0.82 0.80 0.80 0.81 0.82 0.82 0.78 0.71 0.69 0.74 0.82

GEFSSGP_prec_meanprecacc_186.txt.gz
Total_Precipitation_Accumulation
0.00 0.00 0.00 0.00 0.01 0.02 0.03 0.04 0.08 0.14 0.15 0.16 0.19 0.20 0.23 0.33 0.66 1.24 0.67 0.35 0.20 0.09 0.06 0.05 0.05 0.05 0.07 0.10 0.13 0.15 0.13 0.15 0.17 0.18 0.18 0.15 0.11 0.10 0.10 0.10 0.15 0.20 0.22 0.20 0.17 0.15 0.15 0.15 0.13
0.00 0.00 0.00 0.01 0.01 0.03 0.05 0.08 0.12 0.14 0.18 0.19 0.25 0.25 0.25 0.27 0.29 0.25 0.29 0.28 0.18 0.09 0.06 0.04 0.06 0.06 0.07 0.08 0.11 0.17 0.16 0.15 0.15 0.17 0.16 0.14 0.13 0.13 0.13 0.13 0.16 0.19 0.19 0.16 0.13 0.12 0.12 0.13 0.11
0.00 0.00 0.01 0.01 0.02 0.04 0.08 0.13 0.17 0.17 0.18 0.22 0.36 0.49 0.46 0.42 0.43 0.31 0.27 0.19 0.15 0.08 0.06 0.08 0.08 0.09 0.10 0.09 0.09 0.14 0.17 0.18 0.18 0.19 0.18 0.18 0.18 0.18 0.16 0.17 0.19 0.19 0.19 0.21 0.20 0.18 0.14 0.13 0.13
0.00 0.01 0.01 0.02 0.03 0.06 0.12 0.18 0.22 0.22 0.22 0.22 0.33 0.60 0.52 0.43 0.46 0.44 0.28 0.22 0.19 0.14 0.10 0.10 0.10 0.12 0.14 0.14 0.14 0.15 0.17 0.20 0.22 0.21 0.21 0.21 0.21 0.21 0.19 0.19 0.19 0.20 0.22 0.24 0.27 0.23 0.16 0.13 0.13
0.00 0.01 0.01 0.02 0.04 0.07 0.12 0.18 0.22 0.25 0.31 0.31 0.36 0.66 0.66 0.54 0.58 0.68 0.54 0.37 0.31 0.24 0.22 0.16 0.15 0.14 0.15 0.18 0.22 0.25 0.21 0.22 0.25 0.25 0.24 0.23 0.24 0.23 0.23 0.23 0.22 0.24 0.27 0.28 0.24 0.19 0.14 0.13 0.14
0.00 0.01 0.01 0.02 0.03 0.06 0.13 0.20 0.22 0.31 0.38 0.44 0.56 0.90 1.12 0.97 0.91 0.97 0.94 0.59 0.45 0.37 0.32 0.31 0.24 0.17 0.18 0.22 0.25 0.31 0.34 0.33 0.33 0.31 0.29 0.29 0.27 0.26 0.28 0.29 0.30 0.33 0.36 0.34 0.23 0.17 0.15 0.14 0.14
0.00 0.00 0.01 0.02 0.04 0.10 0.16 0.24 0.27 0.37 0.51 0.62 0.82 1.21 1.32 1.30 1.27 1.07 1.05 0.80 0.53 0.51 0.53 0.50 0.36 0.30 0.30 0.32 0.33 0.37 0.42 0.42 0.42 0.42 0.41 0.37 0.37 0.35 0.35 0.35 0.36 0.39 0.39 0.34 0.26 0.22 0.19 0.18 0.17
0.00 0.00 0.00 0.02 0.06 0.13 0.20 0.25 0.32 0.42 0.62 0.77 0.89 1.28 1.44 1.42 1.23 1.12 1.00 0.99 0.76 0.71 0.73 0.72 0.72 0.65 0.51 0.48 0.53 0.51 0.55 0.53 0.45 0.43 0.45 0.44 0.41 0.38 0.39 0.36 0.40 0.41 0.42 0.38 0.35 0.35 0.30 0.26 0.22
0.00 0.00 0.00 0.02 0.06 0.14 0.24 0.28 0.34 0.41 0.66 0.89 0.83 0.93 1.31 1.15 1.24 1.47 1.30 1.21 1.07 0.92 0.91 0.83 0.90 0.90 0.75 0.66 0.60 0.67 0.70 0.66 0.59 0.50 0.49 0.47 0.55 0.61 0.57 0.49 0.56 0.57 0.57 0.55 0.53 0.50 0.44 0.38 0.31
0.00 0.00 0.01 0.02 0.04 0.12 0.21 0.31 0.42 0.46 0.59 0.81 0.91 0.87 1.03 1.13 1.19 1.42 1.68 1.47 1.27 1.12 1.10 1.06 0.95 0.88 0.85 0.77 0.82 0.89 0.82 0.78 0.71 0.76 0.73 0.76 1.03 1.16 0.97 1.03 1.00 0.94 0.86 0.78 0.72 0.67 0.60 0.50 0.38
0.01 0.01 0.02 0.03 0.05 0.15 0.22 0.30 0.34 0.43 0.64 0.80 0.98 1.03 1.04 1.19 1.40 1.49 1.86 1.79 1.60 1.51 1.31 1.38 1.26 1.09 1.26 1.38 1.23 1.17 1.14 1.14 1.06 1.19 1.22 1.29 1.44 1.44 1.40 1.52 1.36 1.28 1.19 1.10 1.10 0.87 0.71 0.66 0.65
0.01 0.02 0.02 0.03 0.06 0.14 0.21 0.24 0.37 0.54 0.93 1.01 1.29 1.54 1.53 1.41 1.64 1.74 2.09 2.04 2.00 1.98 1.78 1.67 1.68 1.58 1.67 1.94 1.78 1.56 1.43 1.44 1.46 1.58 1.53 1.78 1.86 1.81 1.75 1.82 1.72 1.71 1.66 1.68 1.53 1.32 1.14 1.05 0.90
0.01 0.02 0.02 0.03 0.07 0.15 0.24 0.29 0.41 0.65 0.84 0.93 1.31 1.70 1.75 1.61 1.55 1.73 2.36 2.19 2.16 2.22 2.14 1.90 1.97 2.00 2.10 2.30 2.16 1.96 2.01 1.80 1.73 1.91 1.88 1.99 2.03 2.00 2.08 1.99 1.97 1.87 1.84 1.82 1.67 1.58 1.54 1.45 1.31
0.01 0.02 0.03 0.04 0.06 0.14 0.25 0.33 0.41 0.58 0.54 0.64 0.97 1.24 1.30 1.42 1.53 1.65 2.05 2.20 2.14 2.19 2.30 2.33 2.29 2.32 2.21 2.28 2.26 2.08 2.01 2.10 1.94 1.91 1.93 1.91 2.00 2.20 2.27 2.25 2.22 2.17 2.13 2.20 2.02 1.80 1.89 1.75 1.67
0.01 0.03 0.06 0.07 0.10 0.18 0.25 0.40 0.59 0.77 0.67 0.70 0.88 0.93 1.12 1.33 1.63 1.88 2.05 2.17 2.20 2.17 2.21 2.35 2.37 2.44 2.38 2.33 2.34 2.26 2.15 2.13 2.19 2.22 2.26 2.09 2.05 2.31 2.39 2.57 2.52 2.46 2.40 2.42 2.37 2.22 2.24 2.02 1.90
0.02 0.04 0.08 0.11 0.11 0.14 0.25 0.57 0.82 0.87 0.87 0.85 0.88 0.92 1.04 1.29 1.58 1.74 1.74 1.84 1.85 1.82 1.97 2.12 2.25 2.35 2.57 2.67 2.76 2.63 2.74 2.73 2.63 2.47 2.46 2.33 2.30 2.48 2.71 2.83 2.81 2.79 2.68 2.74 2.82 2.75 2.56 2.41 2.23
0.03 0.06 0.09 0.15 0.12 0.12 0.24 0.60 0.83 0.79 0.90 0.95 0.89 0.81 0.82 1.02 1.28 1.46 1.52 1.59 1.62 1.61 1.94 2.14 2.32 2.54 2.71 2.94 3.15 3.14 3.27 3.17 3.07 2.97 2.86 2.91 2.98 2.93 3.06 3.18 3.21 3.18 3.21 3.19 3.03 3.18 3.00 2.90 2.72
0.07 0.07 0.10 0.12 0.11 0.13 0.26 0.50 0.68 0.77 0.87 0.95 0.90 0.80 0.77 0.88 1.11 1.32 1.43 1.58 1.57 1.68 2.01 2.29 2.51 2.86 3.22 3.34 3.51 3.45 3.58 3.65 3.68 3.77 3.62 3.48 3.56 3.56 3.67 3.63 3.64 3.64 3.69 3.54 3.52 3.54 3.29 3.07 3.01
0.08 0.08 0.12 0.13 0.12 0.15 0.24 0.45 0.67 0.77 0.96 1.07 0.95 0.88 0.94 0.95 1.10 1.34 1.55 1.77 2.03 2.21 2.29 2.44 2.70 2.98 3.18 3.48 3.81 3.98 4.04 4.23 4.34 4.38 4.47 4.43 4.39 4.51 4.57 4.44 4.32 4.16 4.04 3.86 3.75 3.58 3.38 3.14 3.06
0.04 0.07 0.10 0.11 0.13 0.16 0.28 0.46 0.67 0.77 0.87 1.02 1.02 0.99 0.96 1.03 1.12 1.44 1.78 2.21 2.43 2.53 2.54 2.73 3.00 3.23 3.42 3.78 4.25 4.65 4.79 4.88 4.90 4.92 5.12 5.21 5.24 5.39 5.46 5.38 5.16 4.92 4.60 4.15 3.80 3.60 3.43 3.14 3.14
0.03 0.06 0.09 0.12 0.15 0.21 0.37 0.65 0.84 0.88 0.99 1.07 1.10 1.21 1.15 1.19 1.38 1.62 1.93 2.18 2.37 2.47 2.58 2.79 3.17 3.55 3.96 4.42 4.92 5.31 5.56 5.59 5.52 5.25 5.38 5.56 5.50 5.54 5.69 5.64 5.39 5.02 4.46 3.96 3.78 3.69 3.56 3.36 3.27
0.04 0.05 0.07 0.10 0.15 0.25 0.34 0.77 1.14 1.19 1.23 1.15 1.16 1.25 1.20 1.23 1.39 1.63 1.85 2.11 2.22 2.38 2.62 2.83 3.17 3.76 4.22 4.61 5.25 5.78 6.06 6.26 6.36 6.14 5.84 5.66 5.47 5.34 5.22 5.05 4.64 4.21 3.89 3.62 3.52 3.53 3.35 3.31 3.20
0.04 0.04 0.06 0.08 0.11 0.21 0.24 0.57 1.22 1.38 1.46 1.35 1.27 1.32 1.17 1.11 1.27 1.53 1.62 1.86 2.15 2.28 2.40 2.60 3.07 3.66 4.36 5.01 5.55 6.03 6.43 6.64 6.58 6.17 5.76 5.29 4.94 4.53 4.18 3.82 3.54 3.44 3.26 3.04 2.93 2.90 2.85 2.70 2.63
0.03 0.04 0.07 0.10 0.15 0.28 0.27 0.47 1.19 1.61 1.82 1.84 1.51 1.30 1.17 1.09 1.16 1.25 1.33 1.49 1.82 1.95 2.16 2.40 2.77 3.47 4.21 4.84 5.43 5.85 6.21 6.26 5.95 5.43 4.92 4.60 4.22 3.76 3.32 3.09 2.84 2.69 2.52 2.30 2.17 2.16 2.22 2.30 2.33
0.03 0.09 0.26 0.40 0.45 0.43 0.36 0.59 1.29 1.52 1.47 1.43 1.45 1.46 1.29 1.07 1.02 1.11 1.14 1.28 1.50 1.67 1.96 2.32 2.77 3.31 3.77 4.30 4.80 5.08 5.31 5.38 5.30 4.98 4.56 4.25 3.82 3.40 2.95 2.51 2.29 2.05 1.85 1.73 1.66 1.64 1.67 1.79 1.91
0.04 0.12 0.39 0.57 0.61 0.65 0.70 1.04 1.58 1.40 1.18 1.16 1.27 1.30 1.18 1.10 1.07 1.23 1.32 1.42 1.55 1.68 1.84 2.18 2.58 2.98 3.21 3.47 3.86 4.11 4.24 4.30 4.18 3.94 3.62 3.35 3.07 2.81 2.47 2.02 1.66 1.44 1.29 1.22 1.24 1.29 1.34 1.39 1.47
0.06 0.11 0.19 0.25 0.34 0.61 1.00 1.45 1.93 1.85 1.38 1.18 1.20 1.15 1.08 1.09 1.09 1.24 1.39 1.51 1.61 1.68 1.85 1.95 2.14 2.34 2.58 2.80 2.98 3.11 3.15 3.07 2.96 2.75 2.52 2.33 2.16 1.94 1.72 1.48 1.26 1.13 1.08 1.05 1.05 1.04 1.05 1.11 1.20
0.09 0.12 0.16 0.27 0.52 0.85 1.11 1.63 2.30 2.31 1.80 1.42 1.34 1.28 1.15 1.08 1.10 1.20 1.28 1.39 1.45 1.43 1.53 1.62 1.79 1.87 1.99 2.13 2.18 2.11 2.10 2.08 1.93 1.77 1.67 1.54 1.38 1.27 1.20 1.10 1.03 0.96 0.88 0.88 0.91 0.88 0.86 0.96 1.00
0.13 0.14 0.21 0.31 0.41 0.85 1.29 1.94 2.24 2.42 2.24 1.87 1.47 1.24 1.15 1.11 1.07 1.09 1.11 1.16 1.20 1.14 1.15 1.24 1.38 1.58 1.66 1.65 1.66 1.58 1.51 1.38 1.27 1.19 1.16 1.09 1.03 1.00 0.96 0.93 0.89 0.85 0.83 0.80 0.78 0.77 0.75 0.82 0.94
0.13 0.17 0.24 0.45 0.50 0.61 1.08 2.11 2.31 2.59 2.48 2.12 1.70 1.37 1.25 1.19 1.10 1.03 0.98 0.95 0.95 0.91 0.92 0.99 1.09 1.18 1.22 1.23 1.19 1.18 1.12 1.04 0.99 0.97 0.95 0.97 0.93 0.88 0.88 0.86 0.85 0.84 0.85 0.85 0.81 0.75 0.72 0.76 0.85

GEFSSGP_prec_meanprecacc_192.txt.gz
Total_Precipitation_Accumulation
0.00 0.00 0.00 0.00 0.01 0.02 0.03 0.04 0.08 0.14 0.15 0.16 0.19 0.21 0.23 0.34 0.67 1.26 0.68 0.35 0.20 0.09 0.07 0.06 0.07 0.06 0.07 0.10 0.14 0.15 0.14 0.15 0.17 0.19 0.19 0.16 0.13 0.11 0.11 0.11 0.16 0.21 0.23 0.21 0.17 0.16 0.16 0.16 0.14
0.00 0.00 0.00 0.01 0.01 0.04 0.06 0.08 0.12 0.14 0.18 0.19 0.25 0.25 0.26 0.28 0.30 0.26 0.29 0.28 0.18 0.09 0.07 0.05 0.07 0.07 0.08 0.08 0.12 0.17 0.16 0.15 0.15 0.17 0.16 0.15 0.15 0.15 0.15 0.15 0.18 0.20 0.20 0.17 0.14 0.13 0.14 0.15 0.13
0.00 0.00 0.01 0.01 0.02 0.04 0.09 0.13 0.17 0.17 0.18 0.23 0.37 0.50 0.47 0.43 0.44 0.33 0.28 0.20 0.15 0.08 0.07 0.09 0.09 0.10 0.12 0.10 0.10 0.16 0.18 0.19 0.19 0.20 0.19 0.20 0.20 0.19 0.18 0.19 0.20 0.21 0.22 0.23 0.22 0.20 0.16 0.15 0.15
0.00 0.01 0.01 0.02 0.03 0.06 0.12 0.19 0.23 0.22 0.22 0.22 0.34 0.63 0.55 0.44 0.47 0.45 0.29 0.23 0.20 0.14 0.10 0.11 0.11 0.13 0.16 0.15 0.15 0.17 0.19 0.22 0.24 0.24 0.24 0.24 0.24 0.24 0.23 0.23 0.24 0.24 0.25 0.28 0.30 0.27 0.19 0.16 0.17
0.00 0.01 0.01 0.02 0.04 0.08 0.12 0.18 0.22 0.26 0.31 0.32 0.38 0.68 0.68 0.56 0.59 0.68 0.55 0.39 0.32 0.25 0.22 0.17 0.16 0.15 0.16 0.19 0.24 0.27 0.23 0.24 0.28 0.28 0.26 0.26 0.27 0.26 0.27 0.28 0.29 0.31 0.32 0.33 0.29 0.24 0.19 0.18 0.20
0.00 0.01 0.01 0.02 0.03 0.06 0.14 0.20 0.22 0.32 0.38 0.45 0.58 0.91 1.15 0.99 0.92 0.98 0.95 0.60 0.47 0.38 0.32 0.31 0.25 0.18 0.19 0.24 0.27 0.33 0.37 0.37 0.36 0.35 0.33 0.33 0.31 0.30 0.32 0.33 0.35 0.39 0.42 0.40 0.30 0.24 0.22 0.22 0.21
0.00 0.00 0.01 0.02 0.04 0.10 0.16 0.25 0.27 0.37 0.52 0.62 0.83 1.22 1.34 1.31 1.28 1.08 1.06 0.81 0.54 0.52 0.53 0.50 0.37 0.31 0.32 0.35 0.36 0.41 0.45 0.45 0.45 0.45 0.45 0.43 0.42 0.40 0.39 0.39 0.40 0.44 0.46 0.42 0.34 0.31 0.29 0.27 0.25
0.00 0.00 0.01 0.02 0.06 0.13 0.21 0.26 0.33 0.42 0.62 0.78 0.90 1.30 1.46 1.44 1.24 1.13 1.01 1.01 0.78 0.72 0.74 0.73 0.74 0.66 0.52 0.50 0.56 0.55 0.59 0.56 0.48 0.45 0.47 0.47 0.44 0.42 0.43 0.40 0.45 0.47 0.49 0.45 0.45 0.47 0.44 0.40 0.33
0.00 0.00 0.00 0.02 0.06 0.14 0.24 0.29 0.35 0.41 0.66 0.90 0.84 0.94 1.34 1.17 1.26 1.49 1.32 1.24 1.10 0.94 0.93 0.85 0.91 0.91 0.77 0.69 0.63 0.70 0.74 0.70 0.62 0.53 0.52 0.50 0.58 0.64 0.61 0.53 0.61 0.62 0.64 0.63 0.64 0.63 0.57 0.54 0.46
0.00 0.00 0.01 0.02 0.05 0.12 0.21 0.32 0.42 0.47 0.59 0.81 0.92 0.88 1.06 1.16 1.23 1.46 1.71 1.49 1.29 1.14 1.13 1.09 0.97 0.91 0.87 0.80 0.84 0.92 0.86 0.81 0.73 0.79 0.77 0.80 1.08 1.21 1.01 1.06 1.03 0.98 0.94 0.88 0.83 0.79 0.75 0.67 0.54
0.01 0.01 0.02 0.03 0.05 0.15 0.22 0.31 0.34 0.44 0.64 0.80 0.99 1.05 1.08 1.26 1.46 1.54 1.90 1.82 1.62 1.53 1.34 1.41 1.29 1.13 1.28 1.40 1.25 1.20 1.18 1.18 1.10 1.23 1.26 1.33 1.49 1.48 1.43 1.56 1.40 1.34 1.27 1.23 1.27 1.04 0.83 0.80 0.80
0.01 0.02 0.02 0.04 0.06 0.14 0.21 0.24 0.38 0.54 0.93 1.01 1.29 1.55 1.56 1.45 1.70 1.80 2.13 2.06 2.02 2.00 1.80 1.69 1.71 1.61 1.70 1.98 1.82 1.60 1.47 1.49 1.51 1.62 1.57 1.83 1.91 1.86 1.81 1.88 1.79 1.79 1.77 1.80 1.68 1.52 1.32 1.20 1.07
0.01 0.02 0.02 0.03 0.07 0.15 0.24 0.29 0.41 0.65 0.84 0.94 1.31 1.71 1.77 1.63 1.57 1.75 2.38 2.22 2.19 2.26 2.16 1.91 1.99 2.04 2.16 2.36 2.23 2.01 2.05 1.85 1.78 1.95 1.93 2.06 2.11 2.07 2.14 2.06 2.03 1.93 1.92 1.90 1.78 1.71 1.71 1.63 1.44
0.02 0.03 0.03 0.04 0.06 0.15 0.25 0.33 0.42 0.58 0.54 0.64 0.98 1.25 1.31 1.43 1.54 1.67 2.07 2.23 2.19 2.25 2.33 2.36 2.33 2.39 2.29 2.39 2.37 2.15 2.06 2.15 1.99 1.95 1.99 1.98 2.08 2.29 2.35 2.33 2.28 2.23 2.19 2.27 2.09 1.87 1.99 1.86 1.77
0.02 0.03 0.06 0.07 0.10 0.18 0.25 0.40 0.60 0.77 0.68 0.71 0.88 0.93 1.13 1.34 1.64 1.90 2.07 2.19 2.22 2.19 2.24 2.38 2.42 2.54 2.50 2.46 2.47 2.35 2.22 2.19 2.25 2.29 2.35 2.19 2.15 2.40 2.47 2.65 2.60 2.53 2.46 2.49 2.43 2.27 2.30 2.10 1.99
0.02 0.04 0.08 0.11 0.11 0.14 0.26 0.58 0.83 0.87 0.88 0.87 0.89 0.93 1.05 1.30 1.60 1.76 1.76 1.86 1.87 1.84 2.00 2.18 2.32 2.44 2.69 2.78 2.87 2.73 2.82 2.79 2.70 2.55 2.54 2.40 2.37 2.55 2.79 2.91 2.89 2.88 2.74 2.80 2.88 2.81 2.61 2.47 2.30
0.03 0.06 0.09 0.15 0.12 0.12 0.24 0.61 0.84 0.80 0.92 0.97 0.91 0.82 0.83 1.03 1.30 1.48 1.55 1.61 1.65 1.64 1.99 2.20 2.40 2.63 2.82 3.07 3.29 3.24 3.33 3.23 3.13 3.05 2.94 2.99 3.07 3.04 3.18 3.30 3.33 3.28 3.28 3.25 3.09 3.24 3.06 2.96 2.77
0.07 0.07 0.10 0.13 0.12 0.13 0.26 0.50 0.68 0.78 0.89 0.97 0.91 0.81 0.78 0.89 1.13 1.34 1.45 1.60 1.60 1.71 2.05 2.35 2.59 2.97 3.33 3.44 3.60 3.53 3.64 3.70 3.74 3.86 3.75 3.58 3.65 3.68 3.80 3.78 3.78 3.76 3.79 3.63 3.59 3.60 3.36 3.13 3.07
0.08 0.08 0.13 0.13 0.12 0.15 0.24 0.45 0.67 0.78 0.97 1.09 0.96 0.90 0.95 0.96 1.11 1.36 1.59 1.81 2.07 2.24 2.32 2.49 2.76 3.05 3.26 3.57 3.89 4.04 4.10 4.29 4.41 4.45 4.52 4.52 4.51 4.61 4.67 4.55 4.44 4.27 4.14 3.95 3.85 3.66 3.46 3.21 3.12
0.04 0.08 0.11 0.12 0.14 0.16 0.28 0.47 0.68 0.78 0.89 1.03 1.04 1.00 0.98 1.04 1.14 1.47 1.82 2.27 2.48 2.56 2.57 2.77 3.05 3.29 3.48 3.86 4.31 4.70 4.85 4.94 4.97 4.99 5.19 5.31 5.34 5.49 5.55 5.48 5.26 5.03 4.73 4.26 3.89 3.67 3.49 3.19 3.22
0.04 0.07 0.09 0.13 0.16 0.22 0.37 0.66 0.86 0.89 1.01 1.09 1.12 1.24 1.18 1.22 1.41 1.65 1.98 2.23 2.41 2.50 2.61 2.83 3.22 3.60 4.01 4.49 4.97 5.36 5.63 5.66 5.58 5.31 5.45 5.63 5.57 5.63 5.80 5.76 5.52 5.16 4.59 4.07 3.88 3.77 3.64 3.43 3.34
0.04 0.06 0.07 0.11 0.16 0.25 0.34 0.78 1.15 1.21 1.26 1.18 1.21 1.32 1.25 1.26 1.42 1.66 1.89 2.14 2.25 2.41 2.65 2.86 3.21 3.81 4.27 4.66 5.30 5.83 6.12 6.32 6.43 6.22 5.95 5.77 5.56 5.44 5.33 5.15 4.74 4.33 4.00 3.71 3.60 3.60 3.43 3.39 3.27
0.04 0.04 0.07 0.08 0.11 0.22 0.25 0.58 1.23 1.39 1.49 1.41 1.37 1.41 1.22 1.14 1.30 1.56 1.65 1.88 2.17 2.29 2.42 2.62 3.10 3.69 4.38 5.03 5.59 6.07 6.49 6.71 6.65 6.26 5.87 5.38 5.02 4.61 4.26 3.90 3.63 3.54 3.37 3.16 3.04 2.97 2.89 2.76 2.70
0.03 0.04 0.08 0.11 0.16 0.29 0.27 0.48 1.20 1.63 1.85 1.90 1.61 1.38 1.22 1.14 1.20 1.28 1.35 1.50 1.83 1.95 2.17 2.41 2.79 3.49 4.23 4.87 5.48 5.90 6.26 6.32 6.01 5.49 4.98 4.66 4.28 3.83 3.39 3.15 2.92 2.79 2.62 2.39 2.25 2.22 2.27 2.36 2.39
0.04 0.09 0.27 0.41 0.46 0.44 0.36 0.60 1.31 1.57 1.52 1.49 1.53 1.54 1.36 1.12 1.06 1.14 1.16 1.30 1.51 1.69 1.98 2.35 2.81 3.34 3.79 4.32 4.82 5.12 5.37 5.44 5.35 5.03 4.60 4.29 3.87 3.46 3.01 2.58 2.35 2.11 1.91 1.80 1.73 1.69 1.72 1.84 1.97
0.04 0.12 0.40 0.58 0.61 0.66 0.71 1.06 1.61 1.49 1.23 1.20 1.32 1.37 1.23 1.13 1.10 1.25 1.35 1.45 1.57 1.71 1.88 2.24 2.68 3.05 3.23 3.48 3.88 4.16 4.30 4.37 4.25 4.01 3.67 3.38 3.11 2.85 2.52 2.09 1.73 1.50 1.35 1.29 1.32 1.35 1.39 1.44 1.53
0.06 0.11 0.19 0.25 0.34 0.62 1.01 1.46 1.98 1.91 1.43 1.23 1.25 1.19 1.11 1.12 1.12 1.28 1.42 1.55 1.66 1.72 1.89 2.01 2.22 2.40 2.61 2.82 3.00 3.15 3.19 3.12 3.02 2.81 2.57 2.37 2.18 1.96 1.74 1.52 1.33 1.21 1.15 1.12 1.11 1.11 1.11 1.16 1.25
0.09 0.12 0.16 0.28 0.54 0.87 1.12 1.65 2.36 2.37 1.85 1.47 1.39 1.32 1.18 1.12 1.14 1.24 1.31 1.45 1.53 1.50 1.58 1.66 1.83 1.90 2.02 2.16 2.21 2.14 2.14 2.12 1.97 1.80 1.71 1.57 1.41 1.29 1.23 1.13 1.07 1.02 0.95 0.96 0.99 0.95 0.93 1.01 1.05
0.13 0.14 0.22 0.32 0.42 0.86 1.31 1.99 2.30 2.48 2.31 1.94 1.53 1.29 1.19 1.15 1.11 1.12 1.14 1.20 1.26 1.21 1.23 1.30 1.43 1.62 1.70 1.68 1.69 1.61 1.55 1.43 1.32 1.22 1.19 1.13 1.06 1.03 0.99 0.96 0.93 0.91 0.89 0.87 0.85 0.84 0.82 0.86 0.98
0.13 0.17 0.25 0.46 0.51 0.63 1.11 2.14 2.35 2.65 2.54 2.19 1.78 1.45 1.31 1.25 1.14 1.05 1.00 0.98 0.98 0.96 0.96 1.03 1.11 1.21 1.25 1.25 1.22 1.21 1.16 1.07 1.03 0.99 0.97 1.00 0.96 0.91 0.91 0.91 0.90 0.89 0.91 0.92 0.87 0.79 0.76 0.80 0.88

GEFSSGP_prec_meanprecacc_198.txt.gz
Total_Precipitation_Accumulation
0.00 0.00 0.00 0.00 0.01 0.04 0.06 0.05 0.09 0.14 0.17 0.18 0.20 0.21 0.24 0.36 0.70 1.33 0.74 0.38 0.21 0.10 0.07 0.07 0.07 0.07 0.08 0.10 0.14 0.15 0.14 0.16 0.18 0.20 0.20 0.18 0.15 0.14 0.14 0.13 0.17 0.22 0.23 0.22 0.18 0.17 0.17 0.17 0.16
0.00 0.00 0.00 0.01 0.02 0.07 0.08 0.09 0.13 0.15 0.19 0.20 0.26 0.27 0.28 0.30 0.32 0.31 0.33 0.30 0.20 0.10 0.08 0.06 0.07 0.08 0.08 0.09 0.12 0.17 0.17 0.16 0.16 0.18 0.18 0.17 0.16 0.17 0.18 0.18 0.20 0.22 0.22 0.19 0.16 0.15 0.15 0.16 0.16
0.00 0.00 0.01 0.01 0.02 0.06 0.10 0.13 0.17 0.18 0.18 0.23 0.37 0.50 0.49 0.45 0.47 0.37 0.31 0.22 0.16 0.09 0.08 0.09 0.09 0.11 0.12 0.11 0.10 0.16 0.18 0.19 0.20 0.21 0.19 0.21 0.22 0.22 0.21 0.22 0.24 0.24 0.25 0.27 0.26 0.23 0.20 0.18 0.18
0.00 0.01 0.01 0.02 0.03 0.06 0.13 0.20 0.24 0.23 0.22 0.22 0.35 0.63 0.56 0.46 0.49 0.48 0.31 0.24 0.21 0.15 0.11 0.11 0.12 0.13 0.16 0.15 0.15 0.17 0.19 0.23 0.25 0.25 0.25 0.25 0.26 0.26 0.25 0.26 0.28 0.29 0.30 0.32 0.35 0.32 0.25 0.21 0.21
0.00 0.01 0.01 0.03 0.04 0.08 0.14 0.22 0.24 0.26 0.31 0.32 0.39 0.71 0.70 0.57 0.60 0.69 0.56 0.40 0.34 0.26 0.23 0.17 0.16 0.15 0.17 0.19 0.24 0.27 0.24 0.26 0.29 0.30 0.28 0.28 0.29 0.29 0.30 0.31 0.33 0.37 0.37 0.37 0.33 0.30 0.25 0.23 0.23
0.00 0.01 0.01 0.02 0.04 0.07 0.16 0.23 0.24 0.32 0.38 0.45 0.59 0.93 1.18 1.02 0.94 1.00 0.97 0.62 0.49 0.39 0.33 0.32 0.25 0.19 0.20 0.25 0.28 0.34 0.39 0.38 0.37 0.36 0.35 0.35 0.34 0.33 0.36 0.37 0.40 0.44 0.49 0.48 0.37 0.30 0.28 0.27 0.25
0.00 0.00 0.01 0.02 0.04 0.11 0.18 0.27 0.29 0.38 0.52 0.62 0.84 1.24 1.37 1.35 1.30 1.10 1.08 0.84 0.56 0.54 0.55 0.52 0.38 0.32 0.34 0.36 0.37 0.42 0.46 0.46 0.45 0.46 0.46 0.44 0.44 0.42 0.42 0.43 0.45 0.49 0.51 0.50 0.44 0.41 0.37 0.35 0.32
0.00 0.00 0.01 0.02 0.07 0.15 0.24 0.31 0.36 0.43 0.63 0.78 0.91 1.32 1.51 1.46 1.26 1.14 1.04 1.04 0.81 0.74 0.76 0.76 0.75 0.69 0.58 0.56 0.62 0.59 0.60 0.56 0.48 0.45 0.48 0.48 0.45 0.43 0.45 0.43 0.49 0.53 0.56 0.53 0.54 0.56 0.51 0.47 0.41
0.00 0.00 0.01 0.02 0.07 0.16 0.28 0.34 0.38 0.42 0.67 0.91 0.85 0.95 1.36 1.19 1.27 1.50 1.34 1.27 1.12 0.96 0.95 0.88 0.95 0.96 0.84 0.78 0.73 0.78 0.76 0.71 0.63 0.55 0.55 0.54 0.63 0.70 0.68 0.59 0.66 0.68 0.71 0.71 0.72 0.71 0.65 0.62 0.54
0.00 0.00 0.01 0.02 0.05 0.13 0.25 0.37 0.45 0.47 0.60 0.82 0.94 0.91 1.08 1.18 1.25 1.48 1.74 1.51 1.31 1.17 1.15 1.11 1.00 0.94 0.90 0.83 0.89 0.97 0.90 0.88 0.80 0.87 0.85 0.87 1.16 1.31 1.12 1.17 1.16 1.09 1.04 0.97 0.90 0.86 0.83 0.75 0.60
0.01 0.01 0.02 0.03 0.06 0.15 0.25 0.35 0.35 0.45 0.65 0.80 1.00 1.07 1.11 1.29 1.48 1.57 1.94 1.85 1.64 1.55 1.36 1.44 1.32 1.16 1.31 1.44 1.30 1.26 1.24 1.27 1.20 1.33 1.36 1.41 1.57 1.57 1.52 1.66 1.51 1.44 1.38 1.34 1.38 1.14 0.91 0.87 0.87
0.01 0.02 0.02 0.04 0.07 0.14 0.22 0.25 0.38 0.54 0.94 1.01 1.30 1.58 1.60 1.47 1.72 1.82 2.15 2.08 2.04 2.03 1.84 1.72 1.74 1.65 1.74 2.02 1.87 1.66 1.54 1.57 1.60 1.71 1.65 1.92 2.01 1.95 1.90 1.99 1.90 1.90 1.88 1.91 1.78 1.62 1.39 1.26 1.13
0.01 0.02 0.02 0.03 0.07 0.15 0.24 0.29 0.41 0.66 0.84 0.94 1.32 1.74 1.82 1.66 1.60 1.78 2.40 2.23 2.22 2.29 2.20 1.98 2.02 2.08 2.21 2.42 2.29 2.10 2.14 1.93 1.86 2.03 2.02 2.16 2.21 2.17 2.24 2.14 2.12 2.02 2.01 1.99 1.87 1.78 1.78 1.69 1.50
0.02 0.03 0.04 0.05 0.06 0.15 0.25 0.33 0.42 0.58 0.54 0.66 1.00 1.26 1.34 1.48 1.59 1.71 2.11 2.25 2.21 2.28 2.36 2.41 2.37 2.44 2.35 2.44 2.43 2.21 2.11 2.21 2.05 2.02 2.07 2.08 2.19 2.39 2.45 2.42 2.37 2.31 2.27 2.34 2.16 1.95 2.09 1.94 1.86
0.02 0.03 0.06 0.07 0.10 0.18 0.25 0.41 0.60 0.78 0.68 0.74 0.92 0.95 1.15 1.39 1.69 1.94 2.11 2.22 2.25 2.23 2.27 2.41 2.45 2.57 2.54 2.51 2.52 2.40 2.26 2.24 2.30 2.36 2.43 2.28 2.25 2.51 2.58 2.74 2.67 2.61 2.55 2.57 2.50 2.37 2.41 2.19 2.07
0.03 0.05 0.09 0.12 0.11 0.14 0.26 0.60 0.85 0.89 0.90 0.89 0.92 0.95 1.07 1.36 1.64 1.80 1.79 1.89 1.90 1.90 2.06 2.22 2.34 2.47 2.72 2.83 2.93 2.78 2.86 2.84 2.77 2.63 2.61 2.47 2.45 2.66 2.91 3.01 2.98 2.98 2.84 2.89 2.97 2.91 2.71 2.57 2.40
0.05 0.07 0.10 0.17 0.13 0.12 0.27 0.65 0.86 0.82 0.94 0.99 0.93 0.84 0.86 1.08 1.37 1.54 1.57 1.63 1.67 1.67 2.02 2.25 2.45 2.68 2.88 3.14 3.35 3.29 3.39 3.29 3.20 3.12 3.02 3.06 3.15 3.13 3.29 3.40 3.45 3.40 3.38 3.34 3.17 3.34 3.17 3.07 2.88
0.08 0.08 0.11 0.13 0.13 0.13 0.26 0.51 0.71 0.79 0.90 1.00 0.94 0.83 0.80 0.93 1.17 1.37 1.49 1.63 1.63 1.73 2.07 2.38 2.64 3.02 3.39 3.51 3.67 3.59 3.71 3.77 3.81 3.94 3.82 3.66 3.73 3.77 3.89 3.87 3.89 3.88 3.90 3.74 3.68 3.70 3.46 3.24 3.17
0.09 0.10 0.14 0.14 0.13 0.16 0.24 0.46 0.69 0.79 0.98 1.11 0.99 0.92 0.98 1.00 1.14 1.39 1.61 1.83 2.09 2.26 2.35 2.53 2.81 3.12 3.31 3.62 3.93 4.10 4.17 4.36 4.47 4.52 4.59 4.58 4.58 4.69 4.75 4.63 4.55 4.39 4.25 4.06 3.95 3.76 3.55 3.30 3.22
0.05 0.09 0.13 0.13 0.14 0.16 0.29 0.48 0.70 0.80 0.91 1.06 1.07 1.03 1.01 1.07 1.17 1.50 1.85 2.29 2.51 2.59 2.61 2.82 3.09 3.34 3.53 3.90 4.37 4.77 4.93 5.02 5.05 5.06 5.25 5.37 5.39 5.55 5.61 5.55 5.35 5.12 4.84 4.36 3.99 3.77 3.58 3.27 3.32
0.04 0.08 0.10 0.14 0.16 0.23 0.38 0.70 0.91 0.93 1.06 1.15 1.16 1.26 1.20 1.23 1.43 1.69 2.01 2.27 2.45 2.54 2.65 2.85 3.25 3.64 4.06 4.54 5.03 5.43 5.70 5.73 5.65 5.38 5.53 5.69 5.63 5.70 5.86 5.82 5.59 5.23 4.66 4.14 3.96 3.86 3.73 3.52 3.43
0.05 0.06 0.07 0.11 0.17 0.27 0.36 0.83 1.22 1.26 1.32 1.25 1.25 1.35 1.27 1.28 1.46 1.70 1.93 2.18 2.29 2.45 2.70 2.90 3.26 3.87 4.33 4.72 5.37 5.90 6.19 6.40 6.51 6.32 6.03 5.83 5.62 5.51 5.40 5.22 4.81 4.40 4.06 3.78 3.67 3.68 3.53 3.50 3.36
0.04 0.04 0.07 0.09 0.12 0.23 0.26 0.62 1.31 1.46 1.54 1.44 1.41 1.46 1.27 1.18 1.34 1.60 1.69 1.91 2.20 2.32 2.46 2.68 3.17 3.77 4.46 5.10 5.65 6.15 6.58 6.80 6.76 6.36 5.96 5.46 5.08 4.67 4.33 3.97 3.70 3.60 3.43 3.22 3.12 3.09 3.00 2.87 2.79
0.03 0.05 0.09 0.11 0.17 0.32 0.30 0.53 1.29 1.69 1.87 1.94 1.66 1.43 1.27 1.17 1.22 1.30 1.38 1.53 1.86 1.98 2.20 2.45 2.84 3.55 4.30 4.93 5.53 5.97 6.34 6.41 6.10 5.58 5.08 4.75 4.35 3.89 3.44 3.20 2.97 2.85 2.68 2.46 2.33 2.31 2.36 2.45 2.49
0.04 0.11 0.30 0.45 0.51 0.51 0.40 0.64 1.37 1.61 1.55 1.54 1.60 1.61 1.43 1.15 1.08 1.17 1.21 1.33 1.54 1.71 2.00 2.37 2.85 3.40 3.84 4.38 4.88 5.19 5.43 5.51 5.43 5.10 4.67 4.37 3.94 3.51 3.08 2.65 2.42 2.18 1.98 1.87 1.81 1.77 1.79 1.92 2.05
0.05 0.14 0.44 0.63 0.68 0.71 0.74 1.10 1.67 1.52 1.26 1.23 1.35 1.42 1.29 1.18 1.14 1.30 1.40 1.49 1.60 1.72 1.89 2.26 2.72 3.12 3.30 3.54 3.95 4.22 4.36 4.43 4.32 4.08 3.73 3.45 3.17 2.91 2.59 2.17 1.81 1.57 1.42 1.36 1.40 1.42 1.46 1.51 1.61
0.07 0.12 0.20 0.29 0.38 0.66 1.05 1.52 2.07 1.98 1.48 1.27 1.29 1.24 1.18 1.17 1.16 1.33 1.48 1.59 1.69 1.74 1.90 2.03 2.29 2.50 2.69 2.89 3.06 3.19 3.24 3.18 3.08 2.87 2.62 2.42 2.23 2.02 1.82 1.59 1.42 1.28 1.22 1.19 1.19 1.17 1.17 1.25 1.33
0.10 0.14 0.17 0.31 0.58 0.92 1.20 1.77 2.51 2.50 1.93 1.51 1.43 1.37 1.24 1.16 1.19 1.30 1.37 1.49 1.56 1.52 1.60 1.69 1.88 1.98 2.10 2.23 2.29 2.18 2.19 2.17 2.03 1.86 1.77 1.62 1.45 1.34 1.28 1.19 1.15 1.10 1.02 1.03 1.07 1.03 1.01 1.10 1.14
0.13 0.16 0.25 0.35 0.45 0.92 1.42 2.14 2.43 2.59 2.37 1.97 1.58 1.35 1.25 1.19 1.15 1.16 1.19 1.24 1.29 1.23 1.25 1.32 1.47 1.67 1.75 1.74 1.77 1.68 1.61 1.49 1.40 1.30 1.26 1.18 1.11 1.08 1.04 1.03 1.00 0.97 0.95 0.94 0.93 0.91 0.90 0.95 1.07
0.14 0.18 0.29 0.53 0.56 0.68 1.19 2.26 2.43 2.71 2.59 2.23 1.84 1.52 1.38 1.30 1.17 1.09 1.05 1.02 1.03 1.00 1.00 1.08 1.16 1.26 1.30 1.33 1.31 1.28 1.23 1.14 1.10 1.07 1.03 1.04 1.01 0.96 0.97 0.96 0.94 0.95 0.97 1.00 0.95 0.86 0.83 0.88 0.96

GEFSSGP_prec_meanprecacc_204.txt.gz
Total_Precipitation_Accumulation
0.00 0.00 0.00 0.01 0.02 0.08 0.13 0.08 0.12 0.16 0.18 0.19 0.22 0.23 0.26 0.38 0.73 1.40 0.82 0.43 0.28 0.14 0.09 0.07 0.07 0.07 0.08 0.10 0.14 0.15 0.14 0.16 0.18 0.20 0.21 0.18 0.15 0.14 0.15 0.13 0.17 0.23 0.24 0.23 0.20 0.19 0.19 0.19 0.18
0.00 0.00 0.01 0.01 0.04 0.13 0.16 0.14 0.16 0.16 0.21 0.22 0.27 0.28 0.29 0.33 0.34 0.34 0.37 0.37 0.29 0.16 0.10 0.07 0.08 0.08 0.08 0.09 0.12 0.17 0.17 0.16 0.16 0.18 0.18 0.17 0.17 0.18 0.19 0.19 0.21 0.23 0.23 0.21 0.17 0.17 0.17 0.19 0.19
0.00 0.00 0.01 0.01 0.04 0.11 0.16 0.17 0.20 0.20 0.21 0.27 0.40 0.51 0.51 0.48 0.49 0.43 0.36 0.29 0.23 0.15 0.13 0.11 0.10 0.11 0.12 0.11 0.10 0.16 0.18 0.19 0.20 0.21 0.20 0.21 0.22 0.22 0.22 0.23 0.25 0.26 0.27 0.28 0.28 0.26 0.24 0.23 0.23
0.01 0.01 0.01 0.02 0.04 0.08 0.15 0.23 0.28 0.27 0.27 0.26 0.36 0.64 0.58 0.48 0.51 0.53 0.37 0.29 0.27 0.20 0.14 0.14 0.14 0.14 0.16 0.15 0.15 0.18 0.20 0.23 0.25 0.26 0.25 0.25 0.27 0.27 0.26 0.27 0.30 0.31 0.32 0.34 0.37 0.34 0.27 0.24 0.24
0.00 0.01 0.01 0.03 0.05 0.10 0.16 0.25 0.29 0.31 0.36 0.34 0.40 0.72 0.71 0.58 0.62 0.72 0.62 0.45 0.42 0.36 0.28 0.21 0.19 0.16 0.17 0.19 0.25 0.28 0.25 0.26 0.29 0.30 0.28 0.28 0.29 0.30 0.31 0.32 0.34 0.39 0.40 0.39 0.36 0.32 0.27 0.25 0.26
0.00 0.01 0.01 0.02 0.05 0.11 0.20 0.26 0.27 0.34 0.43 0.48 0.61 0.95 1.20 1.06 0.98 1.03 1.01 0.68 0.55 0.48 0.41 0.36 0.27 0.19 0.20 0.25 0.28 0.35 0.39 0.38 0.37 0.37 0.35 0.36 0.34 0.34 0.37 0.39 0.42 0.47 0.52 0.51 0.41 0.34 0.32 0.30 0.28
0.00 0.01 0.02 0.02 0.05 0.16 0.21 0.30 0.32 0.42 0.57 0.65 0.85 1.25 1.40 1.38 1.34 1.13 1.12 0.93 0.63 0.61 0.60 0.54 0.39 0.33 0.35 0.39 0.38 0.42 0.46 0.46 0.46 0.47 0.47 0.45 0.44 0.43 0.43 0.44 0.47 0.52 0.55 0.54 0.50 0.46 0.42 0.40 0.37
0.00 0.01 0.01 0.03 0.08 0.19 0.27 0.33 0.40 0.50 0.70 0.82 0.92 1.33 1.52 1.48 1.28 1.18 1.09 1.14 0.92 0.85 0.83 0.80 0.78 0.71 0.60 0.59 0.63 0.61 0.62 0.57 0.49 0.46 0.49 0.49 0.46 0.45 0.47 0.45 0.52 0.56 0.59 0.56 0.59 0.64 0.61 0.55 0.48
0.00 0.00 0.01 0.03 0.08 0.18 0.29 0.38 0.48 0.51 0.72 0.94 0.86 0.96 1.37 1.20 1.30 1.55 1.42 1.38 1.27 1.09 1.08 0.96 1.00 1.00 0.86 0.80 0.76 0.81 0.81 0.75 0.65 0.57 0.58 0.56 0.64 0.72 0.69 0.63 0.71 0.72 0.75 0.77 0.80 0.78 0.73 0.74 0.66
0.00 0.01 0.02 0.03 0.06 0.14 0.25 0.39 0.50 0.52 0.63 0.86 0.95 0.94 1.11 1.20 1.27 1.52 1.79 1.60 1.46 1.29 1.25 1.18 1.07 1.01 0.97 0.89 0.94 1.03 1.02 0.99 0.84 0.89 0.86 0.88 1.17 1.32 1.14 1.21 1.20 1.14 1.11 1.07 1.02 0.94 0.89 0.81 0.67
0.01 0.01 0.02 0.05 0.07 0.16 0.25 0.37 0.39 0.47 0.66 0.82 1.01 1.11 1.16 1.34 1.51 1.60 1.98 1.92 1.76 1.64 1.44 1.51 1.42 1.31 1.44 1.51 1.38 1.35 1.39 1.43 1.27 1.36 1.38 1.43 1.59 1.58 1.54 1.67 1.53 1.47 1.42 1.38 1.45 1.22 0.99 0.93 0.91
0.01 0.03 0.03 0.06 0.09 0.15 0.23 0.26 0.39 0.55 0.95 1.02 1.30 1.59 1.61 1.51 1.76 1.86 2.18 2.13 2.14 2.14 1.93 1.87 1.89 1.82 1.88 2.12 1.93 1.73 1.62 1.66 1.67 1.76 1.69 1.96 2.04 1.98 1.93 2.01 1.92 1.92 1.90 1.94 1.82 1.67 1.45 1.30 1.17
0.02 0.04 0.04 0.05 0.08 0.16 0.24 0.30 0.41 0.67 0.85 0.95 1.34 1.77 1.84 1.69 1.65 1.82 2.45 2.28 2.28 2.40 2.29 2.04 2.11 2.19 2.35 2.54 2.36 2.14 2.20 1.99 1.92 2.10 2.09 2.22 2.27 2.22 2.29 2.19 2.17 2.07 2.05 2.03 1.92 1.84 1.84 1.73 1.54
0.04 0.05 0.06 0.06 0.07 0.15 0.25 0.33 0.43 0.60 0.55 0.68 1.03 1.33 1.41 1.55 1.65 1.76 2.15 2.29 2.25 2.34 2.43 2.48 2.43 2.48 2.39 2.50 2.49 2.26 2.15 2.26 2.12 2.11 2.16 2.17 2.27 2.48 2.54 2.50 2.45 2.39 2.35 2.41 2.24 2.02 2.16 2.00 1.90
0.03 0.05 0.08 0.09 0.11 0.19 0.26 0.42 0.62 0.80 0.69 0.77 0.97 1.07 1.27 1.49 1.78 2.03 2.18 2.26 2.28 2.28 2.32 2.47 2.50 2.60 2.57 2.54 2.57 2.44 2.30 2.28 2.36 2.44 2.52 2.37 2.35 2.62 2.69 2.83 2.76 2.71 2.65 2.66 2.60 2.46 2.48 2.25 2.13
0.04 0.06 0.12 0.14 0.13 0.15 0.27 0.62 0.87 0.92 0.92 0.93 0.98 1.05 1.18 1.46 1.74 1.88 1.86 1.93 1.92 1.93 2.10 2.27 2.42 2.52 2.76 2.86 2.96 2.82 2.90 2.87 2.81 2.70 2.68 2.56 2.54 2.75 3.01 3.09 3.04 3.05 2.92 2.96 3.06 3.01 2.79 2.65 2.47
0.06 0.09 0.13 0.19 0.14 0.13 0.28 0.68 0.89 0.85 0.99 1.04 0.97 0.92 0.98 1.21 1.46 1.61 1.64 1.69 1.72 1.70 2.05 2.30 2.53 2.78 2.95 3.19 3.42 3.37 3.46 3.35 3.25 3.19 3.08 3.13 3.21 3.21 3.37 3.47 3.50 3.46 3.46 3.43 3.25 3.42 3.24 3.14 2.94
0.10 0.11 0.14 0.16 0.15 0.15 0.28 0.53 0.73 0.83 0.95 1.04 0.98 0.90 0.89 1.05 1.30 1.47 1.60 1.72 1.70 1.79 2.12 2.43 2.70 3.11 3.50 3.60 3.76 3.68 3.81 3.85 3.88 4.00 3.89 3.72 3.80 3.83 3.95 3.92 3.92 3.93 3.96 3.80 3.75 3.77 3.53 3.32 3.24
0.10 0.12 0.16 0.15 0.14 0.18 0.27 0.48 0.71 0.83 1.02 1.15 1.07 1.01 1.09 1.14 1.29 1.52 1.71 1.89 2.14 2.33 2.44 2.61 2.88 3.20 3.41 3.73 4.02 4.17 4.25 4.44 4.54 4.57 4.65 4.65 4.65 4.75 4.81 4.67 4.60 4.45 4.32 4.12 4.01 3.83 3.62 3.37 3.29
0.05 0.10 0.14 0.14 0.15 0.18 0.30 0.50 0.72 0.81 0.94 1.11 1.15 1.14 1.13 1.23 1.33 1.64 1.94 2.36 2.57 2.65 2.68 2.90 3.21 3.51 3.68 4.05 4.48 4.85 5.00 5.09 5.12 5.13 5.32 5.44 5.47 5.62 5.68 5.63 5.42 5.21 4.92 4.45 4.06 3.84 3.64 3.33 3.38
0.05 0.08 0.10 0.16 0.18 0.25 0.40 0.72 0.93 0.95 1.09 1.20 1.23 1.37 1.33 1.35 1.55 1.79 2.10 2.36 2.53 2.62 2.71 2.90 3.32 3.78 4.23 4.68 5.12 5.50 5.76 5.78 5.70 5.44 5.59 5.75 5.69 5.76 5.92 5.88 5.65 5.30 4.74 4.21 4.00 3.90 3.77 3.56 3.47
0.05 0.06 0.08 0.12 0.18 0.30 0.38 0.85 1.25 1.30 1.38 1.31 1.32 1.43 1.37 1.36 1.54 1.78 1.99 2.23 2.37 2.52 2.75 2.94 3.29 3.92 4.43 4.82 5.43 5.95 6.24 6.46 6.58 6.39 6.09 5.88 5.66 5.55 5.44 5.26 4.85 4.45 4.11 3.82 3.70 3.72 3.56 3.53 3.40
0.04 0.04 0.08 0.09 0.13 0.25 0.29 0.67 1.36 1.54 1.61 1.50 1.46 1.51 1.33 1.24 1.40 1.66 1.76 1.98 2.27 2.38 2.51 2.72 3.20 3.80 4.50 5.14 5.70 6.20 6.64 6.87 6.82 6.42 6.01 5.52 5.15 4.74 4.37 4.00 3.73 3.63 3.47 3.26 3.16 3.12 3.04 2.90 2.83
0.04 0.05 0.10 0.12 0.19 0.35 0.34 0.59 1.37 1.78 1.96 2.02 1.71 1.48 1.33 1.22 1.28 1.36 1.45 1.61 1.93 2.04 2.24 2.48 2.89 3.60 4.34 4.98 5.60 6.05 6.43 6.47 6.15 5.62 5.11 4.79 4.42 3.95 3.48 3.23 3.00 2.88 2.71 2.49 2.37 2.35 2.39 2.47 2.52
0.04 0.12 0.31 0.46 0.54 0.54 0.43 0.70 1.44 1.69 1.62 1.61 1.64 1.66 1.47 1.20 1.16 1.24 1.27 1.38 1.57 1.73 2.01 2.39 2.87 3.44 3.91 4.42 4.93 5.26 5.49 5.57 5.49 5.16 4.72 4.42 3.98 3.55 3.11 2.68 2.45 2.22 2.03 1.92 1.87 1.83 1.82 1.94 2.09
0.05 0.14 0.46 0.66 0.70 0.73 0.76 1.15 1.76 1.60 1.31 1.26 1.39 1.46 1.34 1.24 1.24 1.37 1.45 1.52 1.62 1.75 1.92 2.29 2.75 3.16 3.37 3.59 3.98 4.26 4.41 4.48 4.37 4.13 3.78 3.50 3.21 2.94 2.61 2.20 1.85 1.62 1.49 1.42 1.46 1.48 1.50 1.55 1.66
0.08 0.13 0.24 0.32 0.40 0.69 1.11 1.60 2.14 2.02 1.51 1.31 1.34 1.30 1.23 1.23 1.23 1.40 1.54 1.63 1.71 1.76 1.91 2.05 2.31 2.54 2.77 2.95 3.11 3.23 3.27 3.22 3.11 2.90 2.66 2.45 2.27 2.05 1.84 1.62 1.45 1.32 1.27 1.25 1.25 1.23 1.23 1.30 1.39
0.11 0.16 0.21 0.35 0.62 0.96 1.26 1.83 2.56 2.53 1.97 1.57 1.47 1.41 1.29 1.22 1.26 1.38 1.44 1.53 1.58 1.53 1.62 1.70 1.90 2.00 2.16 2.30 2.32 2.22 2.23 2.22 2.07 1.90 1.81 1.68 1.50 1.39 1.32 1.23 1.19 1.13 1.06 1.09 1.13 1.07 1.06 1.16 1.20
0.14 0.17 0.27 0.39 0.48 0.95 1.49 2.21 2.47 2.63 2.41 2.01 1.60 1.37 1.27 1.23 1.21 1.24 1.26 1.28 1.31 1.25 1.26 1.35 1.50 1.70 1.79 1.79 1.81 1.73 1.67 1.55 1.46 1.35 1.31 1.23 1.14 1.12 1.08 1.06 1.04 1.01 0.99 0.98 0.97 0.95 0.95 1.01 1.14
0.14 0.19 0.30 0.55 0.59 0.71 1.24 2.32 2.46 2.74 2.62 2.25 1.86 1.54 1.40 1.33 1.22 1.15 1.11 1.07 1.07 1.03 1.05 1.13 1.20 1.30 1.34 1.36 1.36 1.35 1.29 1.20 1.16 1.11 1.07 1.07 1.04 1.00 1.00 0.99 0.98 0.99 1.02 1.03 0.99 0.90 0.89 0.95 1.04

GEFSSGP_prec_meanprecacc_210.txt.gz
Total_Precipitation_Accumulation
0.00 0.00 0.00 0.01 0.03 0.08 0.14 0.09 0.13 0.17 0.20 0.20 0.24 0.26 0.29 0.41 0.75 1.42 0.85 0.44 0.30 0.14 0.09 0.07 0.08 0.08 0.09 0.11 0.14 0.16 0.15 0.17 0.19 0.21 0.21 0.19 0.16 0.15 0.15 0.14 0.19 0.24 0.26 0.25 0.21 0.21 0.21 0.22 0.22
0.01 0.00 0.01 0.02 0.05 0.14 0.17 0.16 0.18 0.19 0.24 0.23 0.29 0.30 0.31 0.34 0.35 0.36 0.39 0.39 0.30 0.17 0.11 0.07 0.08 0.09 0.10 0.09 0.12 0.18 0.17 0.16 0.17 0.19 0.18 0.18 0.18 0.19 0.20 0.20 0.23 0.26 0.26 0.24 0.20 0.19 0.19 0.21 0.21
0.00 0.00 0.01 0.02 0.05 0.12 0.17 0.18 0.23 0.23 0.24 0.30 0.42 0.53 0.52 0.49 0.50 0.44 0.37 0.30 0.24 0.17 0.13 0.12 0.11 0.12 0.14 0.12 0.11 0.17 0.19 0.20 0.20 0.22 0.21 0.23 0.24 0.24 0.24 0.26 0.29 0.29 0.31 0.33 0.33 0.30 0.27 0.26 0.25
0.01 0.01 0.01 0.03 0.04 0.09 0.17 0.25 0.31 0.29 0.29 0.28 0.38 0.66 0.58 0.48 0.52 0.54 0.38 0.31 0.28 0.22 0.15 0.15 0.15 0.16 0.18 0.17 0.17 0.19 0.20 0.24 0.27 0.27 0.26 0.27 0.28 0.28 0.28 0.31 0.34 0.35 0.37 0.40 0.43 0.41 0.33 0.29 0.28
0.00 0.01 0.01 0.04 0.06 0.10 0.17 0.27 0.31 0.32 0.37 0.36 0.42 0.74 0.72 0.59 0.62 0.73 0.62 0.46 0.43 0.37 0.30 0.23 0.21 0.19 0.19 0.21 0.26 0.29 0.26 0.26 0.30 0.31 0.29 0.30 0.31 0.31 0.32 0.34 0.37 0.42 0.43 0.43 0.41 0.38 0.33 0.32 0.32
0.01 0.01 0.01 0.02 0.05 0.12 0.21 0.28 0.30 0.36 0.44 0.49 0.62 0.96 1.21 1.07 0.98 1.03 1.02 0.70 0.57 0.50 0.43 0.38 0.29 0.21 0.22 0.28 0.30 0.36 0.41 0.39 0.38 0.37 0.37 0.37 0.35 0.35 0.38 0.40 0.43 0.49 0.55 0.55 0.44 0.37 0.36 0.36 0.36
0.00 0.01 0.02 0.02 0.06 0.17 0.22 0.31 0.35 0.43 0.58 0.67 0.86 1.26 1.41 1.39 1.35 1.14 1.14 0.95 0.65 0.62 0.62 0.56 0.41 0.35 0.37 0.41 0.41 0.45 0.49 0.48 0.47 0.48 0.49 0.47 0.46 0.45 0.44 0.46 0.50 0.55 0.59 0.57 0.53 0.50 0.46 0.45 0.44
0.00 0.01 0.02 0.03 0.08 0.20 0.28 0.34 0.41 0.52 0.72 0.82 0.93 1.34 1.52 1.48 1.28 1.19 1.11 1.16 0.94 0.87 0.86 0.82 0.80 0.73 0.63 0.61 0.67 0.64 0.66 0.60 0.51 0.48 0.52 0.53 0.49 0.47 0.49 0.47 0.54 0.60 0.62 0.59 0.62 0.69 0.67 0.62 0.53
0.00 0.00 0.01 0.03 0.08 0.19 0.31 0.39 0.49 0.52 0.73 0.95 0.87 0.97 1.37 1.21 1.31 1.57 1.45 1.41 1.32 1.17 1.13 1.00 1.05 1.04 0.90 0.84 0.80 0.85 0.85 0.78 0.68 0.59 0.60 0.58 0.66 0.74 0.72 0.66 0.75 0.78 0.81 0.84 0.87 0.85 0.79 0.79 0.71
0.00 0.01 0.02 0.03 0.06 0.14 0.26 0.40 0.51 0.54 0.64 0.87 0.96 0.95 1.13 1.21 1.29 1.55 1.83 1.64 1.53 1.37 1.33 1.23 1.12 1.06 1.01 0.92 0.98 1.07 1.06 1.04 0.87 0.91 0.89 0.91 1.21 1.36 1.17 1.24 1.25 1.20 1.19 1.16 1.11 1.03 0.97 0.88 0.72
0.01 0.01 0.02 0.05 0.08 0.17 0.26 0.37 0.39 0.48 0.68 0.83 1.01 1.11 1.17 1.35 1.54 1.64 2.01 1.95 1.81 1.69 1.50 1.56 1.46 1.34 1.47 1.53 1.40 1.39 1.43 1.47 1.31 1.40 1.42 1.47 1.63 1.64 1.60 1.71 1.57 1.52 1.46 1.42 1.50 1.28 1.05 0.99 0.96
0.01 0.03 0.03 0.07 0.10 0.16 0.24 0.26 0.39 0.56 0.95 1.02 1.31 1.60 1.63 1.54 1.79 1.89 2.21 2.17 2.18 2.18 1.98 1.90 1.92 1.84 1.90 2.14 1.94 1.74 1.63 1.67 1.69 1.78 1.73 2.00 2.08 2.04 2.01 2.08 1.97 1.94 1.92 1.96 1.84 1.70 1.49 1.36 1.22
0.02 0.04 0.04 0.06 0.10 0.18 0.25 0.30 0.42 0.68 0.86 0.96 1.35 1.79 1.88 1.73 1.67 1.85 2.48 2.31 2.32 2.46 2.36 2.10 2.14 2.22 2.37 2.56 2.37 2.15 2.20 2.00 1.93 2.12 2.12 2.28 2.35 2.32 2.39 2.28 2.22 2.10 2.08 2.06 1.96 1.87 1.88 1.77 1.59
0.04 0.05 0.07 0.07 0.08 0.17 0.26 0.34 0.44 0.61 0.58 0.70 1.06 1.36 1.46 1.59 1.69 1.81 2.20 2.33 2.29 2.41 2.53 2.57 2.48 2.52 2.42 2.52 2.50 2.27 2.17 2.27 2.14 2.14 2.21 2.24 2.37 2.59 2.67 2.62 2.52 2.43 2.38 2.44 2.28 2.07 2.22 2.06 1.97
0.03 0.05 0.08 0.10 0.12 0.20 0.27 0.43 0.64 0.81 0.72 0.80 1.02 1.14 1.34 1.55 1.83 2.08 2.23 2.30 2.32 2.33 2.38 2.52 2.55 2.66 2.61 2.58 2.59 2.46 2.31 2.31 2.39 2.48 2.56 2.43 2.42 2.69 2.77 2.93 2.83 2.75 2.69 2.70 2.64 2.53 2.58 2.35 2.21
0.05 0.07 0.13 0.15 0.14 0.17 0.29 0.62 0.88 0.94 0.95 0.97 1.03 1.12 1.25 1.52 1.79 1.94 1.92 1.99 1.97 1.97 2.14 2.33 2.50 2.60 2.83 2.91 3.00 2.85 2.93 2.91 2.85 2.73 2.71 2.59 2.59 2.81 3.09 3.17 3.11 3.11 2.98 3.04 3.13 3.07 2.88 2.73 2.54
0.07 0.10 0.14 0.21 0.16 0.15 0.29 0.68 0.90 0.88 1.02 1.07 1.01 0.97 1.04 1.26 1.51 1.67 1.71 1.76 1.79 1.77 2.12 2.39 2.63 2.88 3.06 3.27 3.49 3.43 3.52 3.41 3.30 3.22 3.10 3.15 3.26 3.28 3.45 3.54 3.55 3.51 3.52 3.50 3.33 3.49 3.31 3.21 3.01
0.11 0.12 0.16 0.17 0.16 0.16 0.29 0.54 0.74 0.85 0.97 1.07 1.01 0.94 0.94 1.10 1.35 1.53 1.67 1.81 1.80 1.89 2.20 2.51 2.78 3.20 3.61 3.69 3.84 3.75 3.89 3.93 3.94 4.05 3.92 3.74 3.84 3.92 4.04 3.98 3.98 3.98 4.00 3.85 3.82 3.85 3.62 3.39 3.31
0.10 0.12 0.17 0.16 0.15 0.19 0.28 0.49 0.72 0.85 1.04 1.17 1.09 1.05 1.13 1.18 1.36 1.61 1.81 2.02 2.25 2.44 2.55 2.72 2.97 3.28 3.51 3.84 4.14 4.28 4.36 4.56 4.63 4.63 4.69 4.69 4.71 4.84 4.89 4.71 4.63 4.49 4.37 4.18 4.09 3.92 3.72 3.45 3.39
0.06 0.10 0.14 0.14 0.16 0.18 0.31 0.51 0.73 0.83 0.96 1.13 1.18 1.17 1.17 1.25 1.37 1.73 2.04 2.48 2.71 2.78 2.80 3.01 3.33 3.63 3.80 4.19 4.65 5.04 5.18 5.25 5.27 5.25 5.40 5.51 5.53 5.67 5.72 5.66 5.46 5.25 4.97 4.49 4.12 3.93 3.74 3.41 3.46
0.05 0.08 0.10 0.16 0.19 0.26 0.41 0.73 0.94 0.96 1.10 1.21 1.25 1.39 1.35 1.37 1.59 1.86 2.19 2.46 2.63 2.73 2.83 3.00 3.41 3.87 4.32 4.80 5.29 5.71 5.94 5.97 5.87 5.59 5.68 5.82 5.74 5.80 5.94 5.91 5.69 5.34 4.79 4.26 4.07 3.98 3.84 3.62 3.53
0.05 0.06 0.08 0.12 0.18 0.31 0.39 0.86 1.26 1.32 1.39 1.32 1.33 1.45 1.39 1.39 1.58 1.83 2.04 2.31 2.45 2.61 2.85 3.03 3.38 4.01 4.52 4.90 5.52 6.09 6.36 6.57 6.69 6.49 6.18 5.94 5.71 5.58 5.46 5.28 4.88 4.48 4.14 3.84 3.73 3.76 3.61 3.59 3.45
0.04 0.05 0.08 0.09 0.13 0.25 0.29 0.67 1.39 1.57 1.64 1.51 1.48 1.53 1.36 1.28 1.43 1.71 1.81 2.05 2.34 2.46 2.58 2.79 3.28 3.89 4.56 5.19 5.75 6.29 6.72 6.92 6.87 6.47 6.06 5.56 5.19 4.76 4.38 4.01 3.75 3.65 3.48 3.27 3.18 3.15 3.06 2.93 2.86
0.04 0.05 0.10 0.12 0.19 0.35 0.34 0.59 1.38 1.80 1.98 2.04 1.73 1.50 1.34 1.24 1.30 1.40 1.51 1.67 1.98 2.09 2.29 2.53 2.93 3.65 4.38 5.01 5.62 6.10 6.49 6.53 6.19 5.65 5.14 4.82 4.45 3.98 3.51 3.25 3.02 2.89 2.73 2.51 2.39 2.38 2.42 2.50 2.55
0.04 0.12 0.31 0.47 0.54 0.54 0.44 0.70 1.46 1.71 1.64 1.62 1.66 1.68 1.49 1.22 1.18 1.27 1.31 1.44 1.63 1.79 2.07 2.42 2.90 3.46 3.92 4.43 4.94 5.28 5.54 5.61 5.53 5.19 4.75 4.45 4.02 3.60 3.14 2.70 2.47 2.24 2.04 1.94 1.90 1.86 1.86 1.97 2.11
0.05 0.14 0.46 0.66 0.70 0.73 0.76 1.16 1.78 1.61 1.32 1.28 1.40 1.48 1.36 1.26 1.26 1.40 1.49 1.57 1.66 1.78 1.96 2.32 2.76 3.17 3.38 3.60 3.99 4.27 4.44 4.52 4.41 4.16 3.80 3.52 3.24 2.96 2.63 2.21 1.87 1.64 1.51 1.44 1.49 1.51 1.53 1.58 1.68
0.08 0.13 0.24 0.32 0.40 0.69 1.11 1.61 2.15 2.03 1.52 1.32 1.35 1.31 1.24 1.24 1.25 1.43 1.58 1.67 1.75 1.79 1.94 2.07 2.32 2.55 2.78 2.96 3.12 3.24 3.29 3.23 3.13 2.92 2.68 2.48 2.29 2.06 1.85 1.64 1.46 1.34 1.29 1.28 1.29 1.26 1.26 1.34 1.43
0.12 0.16 0.21 0.36 0.62 0.96 1.26 1.84 2.57 2.54 1.97 1.58 1.49 1.42 1.30 1.23 1.29 1.43 1.48 1.57 1.61 1.56 1.64 1.72 1.92 2.02 2.18 2.31 2.34 2.22 2.23 2.22 2.08 1.92 1.83 1.69 1.51 1.39 1.33 1.24 1.20 1.15 1.08 1.12 1.16 1.12 1.11 1.20 1.23
0.14 0.18 0.28 0.39 0.48 0.96 1.49 2.21 2.47 2.63 2.41 2.02 1.62 1.39 1.29 1.25 1.23 1.26 1.29 1.33 1.34 1.27 1.28 1.36 1.51 1.72 1.81 1.81 1.82 1.74 1.68 1.56 1.47 1.37 1.33 1.24 1.16 1.13 1.10 1.08 1.06 1.03 1.01 1.01 1.00 0.97 0.98 1.04 1.17
0.14 0.19 0.31 0.55 0.59 0.72 1.25 2.33 2.46 2.74 2.62 2.26 1.87 1.55 1.41 1.35 1.24 1.17 1.13 1.11 1.10 1.06 1.07 1.15 1.20 1.30 1.35 1.38 1.37 1.36 1.30 1.21 1.17 1.12 1.08 1.09 1.05 1.02 1.03 1.02 1.00 1.02 1.05 1.06 1.01 0.92 0.91 0.97 1.06

GEFSSGP_prec_meanprecacc_216.txt.gz
Total_Precipitation_Accumulation
0.01 0.01 0.00 0.01 0.03 0.09 0.14 0.09 0.13 0.17 0.20 0.20 0.25 0.26 0.30 0.42 0.77 1.45 0.87 0.45 0.30 0.15 0.10 0.08 0.09 0.09 0.11 0.12 0.16 0.18 0.17 0.18 0.20 0.22 0.23 0.20 0.17 0.16 0.18 0.17 0.22 0.29 0.32 0.31 0.27 0.26 0.28 0.28 0.27
0.01 0.01 0.01 0.02 0.05 0.14 0.18 0.16 0.19 0.20 0.24 0.24 0.29 0.30 0.31 0.34 0.36 0.37 0.40 0.40 0.31 0.17 0.11 0.08 0.10 0.11 0.12 0.12 0.15 0.21 0.19 0.18 0.18 0.20 0.20 0.20 0.20 0.21 0.22 0.23 0.27 0.31 0.32 0.32 0.32 0.30 0.27 0.27 0.28
0.01 0.00 0.01 0.02 0.06 0.13 0.18 0.19 0.23 0.24 0.25 0.30 0.42 0.53 0.53 0.49 0.50 0.44 0.38 0.31 0.25 0.17 0.14 0.13 0.13 0.15 0.17 0.15 0.14 0.21 0.22 0.22 0.23 0.23 0.22 0.24 0.26 0.27 0.27 0.30 0.32 0.34 0.37 0.40 0.40 0.40 0.36 0.33 0.32
0.01 0.01 0.02 0.04 0.05 0.09 0.17 0.25 0.31 0.29 0.30 0.28 0.38 0.67 0.59 0.49 0.52 0.54 0.38 0.31 0.28 0.22 0.15 0.16 0.17 0.19 0.20 0.19 0.20 0.21 0.22 0.26 0.29 0.29 0.28 0.28 0.30 0.30 0.31 0.35 0.39 0.41 0.43 0.48 0.51 0.48 0.41 0.36 0.36
0.01 0.01 0.01 0.04 0.06 0.11 0.18 0.28 0.31 0.33 0.37 0.36 0.42 0.74 0.73 0.60 0.63 0.73 0.63 0.47 0.44 0.38 0.30 0.23 0.22 0.21 0.21 0.23 0.28 0.31 0.28 0.29 0.33 0.33 0.31 0.32 0.33 0.33 0.35 0.38 0.41 0.46 0.47 0.48 0.45 0.43 0.38 0.37 0.39
0.01 0.01 0.01 0.02 0.05 0.14 0.22 0.28 0.30 0.36 0.44 0.50 0.62 0.97 1.22 1.08 0.99 1.04 1.02 0.70 0.58 0.51 0.44 0.39 0.30 0.22 0.25 0.31 0.33 0.39 0.42 0.41 0.40 0.39 0.39 0.40 0.39 0.38 0.42 0.44 0.47 0.53 0.60 0.59 0.49 0.42 0.41 0.40 0.41
0.01 0.01 0.02 0.03 0.06 0.18 0.23 0.31 0.35 0.43 0.58 0.67 0.86 1.26 1.41 1.40 1.35 1.15 1.15 0.96 0.66 0.64 0.63 0.57 0.43 0.36 0.39 0.43 0.43 0.47 0.51 0.50 0.49 0.51 0.53 0.52 0.50 0.49 0.48 0.50 0.54 0.59 0.63 0.62 0.58 0.55 0.52 0.50 0.48
0.01 0.01 0.02 0.03 0.09 0.21 0.28 0.35 0.42 0.52 0.72 0.82 0.93 1.35 1.53 1.49 1.29 1.20 1.12 1.17 0.95 0.89 0.87 0.83 0.82 0.75 0.65 0.63 0.68 0.66 0.68 0.63 0.54 0.52 0.57 0.57 0.53 0.51 0.54 0.51 0.58 0.65 0.67 0.64 0.68 0.76 0.74 0.68 0.58
0.00 0.01 0.01 0.03 0.08 0.19 0.31 0.40 0.50 0.53 0.73 0.95 0.87 0.97 1.38 1.21 1.32 1.58 1.46 1.43 1.33 1.18 1.15 1.02 1.06 1.05 0.92 0.86 0.81 0.87 0.86 0.80 0.70 0.63 0.64 0.62 0.70 0.78 0.77 0.70 0.80 0.85 0.91 0.96 0.98 0.96 0.91 0.91 0.80
0.01 0.01 0.02 0.03 0.07 0.15 0.27 0.41 0.52 0.55 0.65 0.88 0.97 0.95 1.13 1.22 1.30 1.56 1.84 1.67 1.57 1.39 1.34 1.24 1.13 1.07 1.02 0.93 1.00 1.09 1.07 1.05 0.89 0.94 0.93 0.95 1.26 1.42 1.22 1.28 1.30 1.27 1.27 1.25 1.21 1.16 1.14 1.05 0.84
0.01 0.02 0.03 0.05 0.08 0.17 0.27 0.38 0.40 0.49 0.68 0.84 1.02 1.12 1.18 1.36 1.55 1.65 2.03 1.98 1.86 1.75 1.54 1.58 1.49 1.36 1.49 1.54 1.41 1.41 1.45 1.50 1.33 1.42 1.46 1.52 1.69 1.70 1.66 1.76 1.62 1.57 1.51 1.48 1.58 1.37 1.14 1.09 1.06
0.01 0.03 0.03 0.07 0.10 0.17 0.24 0.27 0.40 0.57 0.97 1.03 1.32 1.61 1.64 1.55 1.80 1.91 2.24 2.20 2.23 2.26 2.04 1.95 1.96 1.88 1.93 2.16 1.97 1.76 1.66 1.69 1.70 1.79 1.75 2.04 2.13 2.09 2.07 2.14 2.03 2.00 1.98 2.02 1.91 1.78 1.58 1.44 1.31
0.02 0.04 0.05 0.06 0.10 0.18 0.26 0.31 0.43 0.69 0.87 0.97 1.36 1.80 1.89 1.75 1.70 1.88 2.52 2.34 2.36 2.51 2.44 2.19 2.20 2.26 2.41 2.59 2.40 2.18 2.23 2.02 1.95 2.14 2.14 2.31 2.39 2.36 2.43 2.32 2.27 2.15 2.13 2.11 2.01 1.92 1.93 1.82 1.64
0.04 0.05 0.07 0.07 0.09 0.17 0.27 0.34 0.45 0.62 0.58 0.71 1.08 1.38 1.48 1.62 1.72 1.85 2.23 2.36 2.34 2.44 2.56 2.63 2.54 2.57 2.46 2.55 2.53 2.29 2.19 2.29 2.16 2.16 2.24 2.27 2.41 2.62 2.69 2.64 2.55 2.47 2.42 2.49 2.32 2.10 2.26 2.11 2.01
0.03 0.05 0.09 0.10 0.13 0.21 0.28 0.44 0.64 0.81 0.73 0.81 1.03 1.16 1.37 1.59 1.88 2.12 2.27 2.32 2.35 2.36 2.41 2.55 2.59 2.69 2.64 2.60 2.62 2.49 2.34 2.34 2.42 2.50 2.59 2.46 2.45 2.71 2.79 2.95 2.86 2.78 2.73 2.74 2.68 2.56 2.62 2.39 2.25
0.05 0.08 0.13 0.16 0.14 0.17 0.29 0.63 0.88 0.94 0.96 0.98 1.04 1.14 1.28 1.57 1.84 1.98 1.95 2.00 1.99 1.99 2.17 2.37 2.52 2.63 2.86 2.95 3.04 2.89 2.95 2.93 2.89 2.77 2.75 2.63 2.62 2.84 3.12 3.20 3.14 3.13 3.02 3.07 3.16 3.11 2.91 2.76 2.58
0.08 0.10 0.14 0.21 0.16 0.15 0.30 0.70 0.91 0.88 1.03 1.09 1.03 1.00 1.08 1.30 1.55 1.71 1.74 1.77 1.80 1.79 2.15 2.43 2.66 2.91 3.09 3.32 3.54 3.48 3.58 3.45 3.33 3.26 3.16 3.20 3.30 3.32 3.48 3.56 3.57 3.54 3.55 3.53 3.36 3.52 3.34 3.26 3.06
0.11 0.12 0.16 0.17 0.16 0.16 0.30 0.55 0.75 0.85 0.98 1.08 1.03 0.97 0.98 1.13 1.38 1.55 1.69 1.83 1.81 1.91 2.23 2.54 2.81 3.22 3.63 3.72 3.87 3.81 3.97 3.98 3.97 4.08 3.96 3.79 3.88 3.97 4.07 4.00 4.01 4.01 4.04 3.89 3.85 3.89 3.66 3.44 3.38
0.10 0.12 0.17 0.16 0.15 0.19 0.28 0.50 0.73 0.85 1.05 1.17 1.11 1.07 1.17 1.21 1.39 1.63 1.83 2.04 2.27 2.45 2.57 2.75 3.01 3.32 3.54 3.86 4.16 4.32 4.41 4.59 4.66 4.66 4.72 4.73 4.74 4.88 4.92 4.73 4.66 4.53 4.40 4.21 4.13 3.98 3.76 3.50 3.45
0.06 0.10 0.14 0.14 0.16 0.19 0.31 0.51 0.73 0.83 0.97 1.14 1.19 1.20 1.20 1.30 1.40 1.76 2.08 2.51 2.75 2.81 2.83 3.05 3.37 3.67 3.83 4.22 4.69 5.08 5.20 5.28 5.31 5.28 5.43 5.54 5.57 5.70 5.75 5.69 5.49 5.28 5.00 4.53 4.17 4.01 3.80 3.46 3.53
0.05 0.08 0.11 0.16 0.19 0.27 0.42 0.74 0.95 0.96 1.11 1.22 1.26 1.41 1.37 1.40 1.63 1.89 2.24 2.51 2.68 2.78 2.88 3.05 3.48 3.94 4.38 4.85 5.36 5.79 6.01 6.05 5.94 5.65 5.72 5.85 5.77 5.82 5.97 5.93 5.71 5.37 4.83 4.30 4.12 4.04 3.91 3.70 3.62
0.05 0.06 0.08 0.12 0.19 0.32 0.39 0.88 1.27 1.32 1.39 1.32 1.34 1.46 1.40 1.40 1.61 1.89 2.11 2.38 2.52 2.66 2.89 3.08 3.45 4.10 4.60 4.97 5.59 6.19 6.45 6.65 6.77 6.55 6.22 5.97 5.73 5.60 5.49 5.30 4.90 4.51 4.17 3.88 3.77 3.81 3.67 3.65 3.51
0.05 0.05 0.08 0.09 0.13 0.25 0.29 0.68 1.40 1.58 1.65 1.52 1.48 1.53 1.37 1.29 1.46 1.76 1.87 2.12 2.40 2.50 2.62 2.85 3.38 3.98 4.65 5.28 5.82 6.35 6.78 6.97 6.95 6.56 6.13 5.61 5.22 4.80 4.43 4.06 3.79 3.70 3.52 3.32 3.22 3.20 3.12 2.99 2.92
0.05 0.05 0.10 0.12 0.19 0.36 0.34 0.60 1.40 1.81 2.00 2.05 1.74 1.51 1.35 1.25 1.33 1.43 1.54 1.71 2.02 2.13 2.33 2.59 3.02 3.77 4.49 5.09 5.69 6.15 6.54 6.57 6.25 5.73 5.23 4.91 4.53 4.04 3.56 3.30 3.07 2.94 2.76 2.56 2.44 2.43 2.46 2.54 2.59
0.05 0.12 0.31 0.47 0.55 0.55 0.44 0.71 1.47 1.72 1.65 1.64 1.66 1.68 1.50 1.22 1.19 1.29 1.33 1.47 1.66 1.82 2.10 2.46 2.96 3.56 4.03 4.53 5.02 5.35 5.59 5.66 5.57 5.23 4.81 4.51 4.09 3.65 3.18 2.75 2.52 2.29 2.09 1.98 1.95 1.91 1.90 2.01 2.15
0.06 0.14 0.47 0.67 0.71 0.74 0.77 1.17 1.79 1.63 1.34 1.29 1.41 1.49 1.36 1.26 1.26 1.41 1.51 1.59 1.69 1.82 1.99 2.35 2.81 3.23 3.45 3.68 4.06 4.34 4.49 4.55 4.44 4.19 3.84 3.57 3.28 2.99 2.66 2.25 1.90 1.69 1.56 1.48 1.53 1.56 1.58 1.63 1.72
0.08 0.13 0.24 0.33 0.41 0.70 1.12 1.63 2.17 2.04 1.53 1.33 1.37 1.33 1.25 1.25 1.26 1.44 1.59 1.70 1.78 1.82 1.96 2.09 2.35 2.58 2.81 3.00 3.16 3.27 3.32 3.26 3.15 2.95 2.70 2.51 2.33 2.09 1.88 1.67 1.50 1.38 1.33 1.33 1.34 1.32 1.32 1.40 1.49
0.12 0.16 0.21 0.37 0.64 0.97 1.28 1.86 2.58 2.55 1.99 1.59 1.50 1.44 1.31 1.24 1.30 1.44 1.51 1.59 1.64 1.58 1.66 1.74 1.93 2.04 2.20 2.33 2.36 2.24 2.25 2.24 2.10 1.94 1.85 1.71 1.54 1.42 1.36 1.27 1.24 1.20 1.13 1.17 1.21 1.17 1.18 1.27 1.30
0.15 0.18 0.28 0.40 0.50 0.97 1.50 2.23 2.48 2.64 2.42 2.03 1.63 1.40 1.29 1.25 1.24 1.27 1.31 1.35 1.37 1.30 1.30 1.38 1.53 1.73 1.82 1.82 1.84 1.75 1.69 1.57 1.47 1.38 1.34 1.26 1.18 1.15 1.13 1.12 1.11 1.08 1.06 1.06 1.04 1.01 1.03 1.09 1.21
0.15 0.20 0.32 0.56 0.60 0.73 1.27 2.35 2.47 2.75 2.63 2.27 1.88 1.57 1.42 1.36 1.25 1.18 1.15 1.13 1.13 1.09 1.09 1.16 1.22 1.31 1.35 1.39 1.38 1.37 1.31 1.22 1.17 1.13 1.09 1.10 1.07 1.04 1.06 1.06 1.06 1.08 1.11 1.12 1.06 0.96 0.95 1.01 1.10

GEFSSGP_prec_meanprecacc_222.txt.gz
Total_Precipitation_Accumulation
0.01 0.01 0.00 0.01 0.03 0.10 0.16 0.10 0.14 0.18 0.21 0.21 0.25 0.28 0.31 0.43 0.80 1.54 0.91 0.46 0.31 0.21 0.23 0.11 0.10 0.10 0.11 0.13 0.16 0.19 0.18 0.20 0.22 0.23 0.24 0.21 0.18 0.19 0.20 0.20 0.25 0.33 0.36 0.35 0.32 0.30 0.32 0.34 0.33
0.01 0.01 0.01 0.02 0.06 0.17 0.20 0.17 0.19 0.21 0.26 0.25 0.30 0.32 0.32 0.35 0.37 0.38 0.41 0.40 0.31 0.20 0.19 0.13 0.11 0.12 0.13 0.13 0.17 0.22 0.21 0.20 0.20 0.22 0.22 0.21 0.22 0.23 0.25 0.26 0.29 0.34 0.37 0.38 0.38 0.36 0.33 0.34 0.34
0.02 0.01 0.02 0.03 0.06 0.16 0.21 0.20 0.24 0.25 0.25 0.31 0.44 0.55 0.55 0.50 0.51 0.45 0.38 0.31 0.25 0.18 0.16 0.16 0.16 0.17 0.18 0.17 0.17 0.23 0.24 0.25 0.25 0.25 0.24 0.25 0.27 0.28 0.29 0.32 0.35 0.38 0.41 0.44 0.46 0.45 0.40 0.37 0.37
0.01 0.01 0.02 0.04 0.06 0.11 0.20 0.29 0.33 0.31 0.30 0.29 0.39 0.68 0.61 0.50 0.52 0.54 0.38 0.31 0.29 0.22 0.16 0.18 0.20 0.21 0.22 0.21 0.21 0.23 0.24 0.28 0.32 0.32 0.31 0.31 0.32 0.32 0.33 0.38 0.42 0.45 0.48 0.52 0.55 0.54 0.46 0.41 0.41
0.01 0.01 0.02 0.04 0.07 0.12 0.20 0.32 0.33 0.34 0.38 0.37 0.43 0.75 0.75 0.61 0.63 0.74 0.63 0.47 0.44 0.38 0.31 0.24 0.23 0.22 0.22 0.24 0.29 0.33 0.31 0.32 0.36 0.36 0.34 0.34 0.36 0.36 0.38 0.41 0.44 0.49 0.51 0.52 0.49 0.48 0.44 0.43 0.45
0.01 0.01 0.04 0.04 0.06 0.15 0.22 0.30 0.32 0.37 0.45 0.51 0.64 0.98 1.24 1.09 0.99 1.05 1.03 0.71 0.59 0.52 0.45 0.39 0.31 0.23 0.26 0.33 0.35 0.41 0.45 0.44 0.43 0.42 0.42 0.43 0.41 0.42 0.45 0.47 0.51 0.58 0.64 0.64 0.54 0.48 0.46 0.46 0.46
0.02 0.03 0.06 0.04 0.08 0.20 0.24 0.32 0.36 0.45 0.63 0.71 0.89 1.29 1.43 1.40 1.36 1.16 1.16 0.97 0.68 0.66 0.65 0.58 0.44 0.37 0.40 0.45 0.46 0.50 0.53 0.52 0.51 0.53 0.54 0.54 0.53 0.52 0.52 0.53 0.58 0.63 0.67 0.66 0.62 0.60 0.58 0.56 0.54
0.02 0.04 0.04 0.04 0.10 0.24 0.31 0.36 0.43 0.54 0.75 0.86 0.96 1.38 1.55 1.50 1.30 1.21 1.14 1.19 0.98 0.92 0.93 0.86 0.83 0.77 0.66 0.65 0.71 0.68 0.69 0.64 0.55 0.53 0.57 0.58 0.54 0.53 0.57 0.55 0.62 0.68 0.70 0.68 0.71 0.79 0.79 0.73 0.64
0.01 0.04 0.05 0.04 0.10 0.24 0.35 0.43 0.51 0.54 0.75 0.96 0.88 1.00 1.40 1.23 1.33 1.59 1.48 1.46 1.38 1.26 1.20 1.05 1.09 1.07 0.93 0.88 0.83 0.89 0.88 0.81 0.72 0.64 0.66 0.63 0.72 0.81 0.82 0.74 0.86 0.91 0.95 0.99 1.01 0.99 0.96 0.97 0.86
0.01 0.04 0.04 0.04 0.07 0.18 0.30 0.43 0.54 0.56 0.66 0.89 0.98 0.97 1.14 1.23 1.31 1.58 1.86 1.71 1.67 1.48 1.38 1.29 1.17 1.11 1.05 0.96 1.04 1.13 1.10 1.07 0.91 0.96 0.95 0.98 1.31 1.47 1.26 1.34 1.36 1.33 1.32 1.29 1.25 1.21 1.19 1.10 0.90
0.02 0.03 0.04 0.06 0.09 0.19 0.28 0.39 0.42 0.51 0.70 0.85 1.03 1.13 1.19 1.37 1.56 1.68 2.06 2.02 1.92 1.82 1.60 1.63 1.53 1.41 1.53 1.59 1.46 1.46 1.49 1.54 1.35 1.44 1.50 1.56 1.73 1.75 1.72 1.83 1.68 1.63 1.57 1.55 1.65 1.43 1.19 1.15 1.12
0.02 0.03 0.04 0.07 0.10 0.17 0.25 0.29 0.43 0.59 0.98 1.05 1.33 1.62 1.65 1.56 1.83 1.94 2.26 2.21 2.25 2.33 2.10 2.00 2.02 1.93 1.99 2.22 2.02 1.81 1.69 1.73 1.73 1.84 1.79 2.08 2.17 2.15 2.13 2.20 2.09 2.06 2.03 2.08 1.97 1.84 1.64 1.52 1.38
0.02 0.04 0.05 0.07 0.11 0.20 0.28 0.33 0.46 0.71 0.89 0.98 1.38 1.82 1.91 1.76 1.72 1.90 2.53 2.36 2.38 2.54 2.48 2.23 2.24 2.31 2.47 2.65 2.45 2.23 2.27 2.07 1.99 2.19 2.18 2.35 2.44 2.43 2.50 2.38 2.32 2.20 2.17 2.15 2.05 1.97 1.98 1.88 1.70
0.04 0.05 0.08 0.08 0.09 0.18 0.29 0.36 0.46 0.64 0.61 0.73 1.10 1.40 1.50 1.65 1.75 1.87 2.25 2.38 2.35 2.46 2.59 2.66 2.57 2.61 2.52 2.62 2.59 2.35 2.23 2.34 2.21 2.22 2.29 2.32 2.46 2.69 2.75 2.69 2.61 2.52 2.45 2.51 2.36 2.15 2.32 2.15 2.05
0.03 0.06 0.10 0.11 0.14 0.21 0.28 0.44 0.65 0.83 0.75 0.84 1.05 1.18 1.40 1.64 1.94 2.15 2.28 2.34 2.37 2.38 2.43 2.58 2.62 2.72 2.70 2.67 2.67 2.54 2.39 2.39 2.48 2.57 2.66 2.52 2.50 2.77 2.87 3.02 2.92 2.83 2.76 2.78 2.72 2.61 2.68 2.44 2.29
0.05 0.08 0.15 0.17 0.15 0.18 0.31 0.66 0.90 0.95 0.97 0.99 1.05 1.15 1.30 1.62 1.91 2.02 1.98 2.02 2.01 2.01 2.20 2.39 2.55 2.66 2.91 3.02 3.12 2.95 3.01 2.98 2.94 2.82 2.81 2.69 2.69 2.90 3.19 3.26 3.19 3.19 3.07 3.12 3.22 3.16 2.97 2.84 2.65
0.08 0.11 0.15 0.22 0.17 0.16 0.32 0.72 0.93 0.90 1.04 1.10 1.06 1.02 1.10 1.33 1.58 1.73 1.76 1.79 1.82 1.80 2.17 2.46 2.70 2.95 3.14 3.39 3.61 3.54 3.63 3.49 3.37 3.30 3.20 3.25 3.38 3.41 3.56 3.64 3.64 3.60 3.60 3.58 3.41 3.59 3.42 3.34 3.15
0.13 0.14 0.18 0.18 0.17 0.17 0.31 0.57 0.78 0.88 0.99 1.09 1.06 1.00 1.00 1.15 1.39 1.57 1.71 1.85 1.84 1.94 2.26 2.58 2.84 3.27 3.69 3.78 3.94 3.87 4.02 4.03 4.01 4.12 4.00 3.83 3.93 4.03 4.17 4.10 4.10 4.10 4.11 3.95 3.92 3.95 3.74 3.53 3.48
0.14 0.16 0.21 0.17 0.17 0.21 0.29 0.52 0.76 0.88 1.06 1.19 1.13 1.09 1.18 1.23 1.40 1.65 1.86 2.07 2.31 2.49 2.61 2.80 3.05 3.36 3.58 3.91 4.22 4.37 4.45 4.63 4.70 4.70 4.76 4.78 4.79 4.92 4.96 4.78 4.74 4.62 4.48 4.29 4.20 4.05 3.84 3.58 3.54
0.09 0.13 0.17 0.18 0.19 0.21 0.32 0.53 0.77 0.87 1.00 1.16 1.21 1.22 1.22 1.32 1.44 1.82 2.14 2.58 2.80 2.86 2.88 3.09 3.42 3.72 3.89 4.28 4.77 5.14 5.26 5.33 5.36 5.33 5.49 5.60 5.62 5.75 5.79 5.74 5.54 5.35 5.08 4.62 4.24 4.08 3.86 3.51 3.60
0.07 0.09 0.11 0.18 0.22 0.28 0.43 0.78 1.02 1.02 1.14 1.24 1.27 1.43 1.42 1.45 1.69 1.97 2.32 2.60 2.75 2.84 2.93 3.10 3.53 3.98 4.42 4.91 5.46 5.89 6.09 6.12 6.00 5.72 5.79 5.91 5.81 5.86 6.00 5.98 5.77 5.44 4.89 4.37 4.20 4.13 3.99 3.77 3.68
0.06 0.07 0.08 0.13 0.22 0.34 0.42 0.94 1.33 1.41 1.46 1.36 1.36 1.48 1.46 1.46 1.67 1.97 2.19 2.45 2.60 2.72 2.94 3.13 3.50 4.14 4.64 5.01 5.67 6.28 6.54 6.72 6.83 6.61 6.29 6.04 5.79 5.64 5.53 5.35 4.97 4.60 4.24 3.96 3.84 3.88 3.74 3.72 3.58
0.06 0.05 0.08 0.10 0.15 0.27 0.31 0.73 1.46 1.63 1.74 1.58 1.50 1.54 1.38 1.32 1.49 1.81 1.94 2.19 2.48 2.58 2.70 2.92 3.42 4.02 4.70 5.33 5.88 6.42 6.84 7.03 7.01 6.62 6.19 5.68 5.30 4.87 4.48 4.13 3.88 3.80 3.61 3.40 3.28 3.27 3.19 3.05 2.98
0.05 0.05 0.10 0.12 0.20 0.40 0.38 0.66 1.48 1.88 2.06 2.09 1.75 1.51 1.36 1.26 1.34 1.46 1.57 1.75 2.07 2.18 2.40 2.70 3.10 3.82 4.53 5.14 5.75 6.22 6.60 6.64 6.31 5.80 5.31 4.97 4.59 4.10 3.62 3.37 3.15 3.02 2.85 2.64 2.51 2.50 2.52 2.61 2.66
0.05 0.13 0.34 0.50 0.60 0.61 0.47 0.76 1.54 1.75 1.66 1.64 1.67 1.69 1.50 1.23 1.20 1.33 1.37 1.51 1.70 1.85 2.14 2.51 3.02 3.62 4.08 4.59 5.11 5.44 5.66 5.73 5.64 5.31 4.90 4.58 4.16 3.72 3.23 2.79 2.59 2.37 2.18 2.07 2.03 1.99 1.98 2.09 2.22
0.06 0.15 0.50 0.72 0.77 0.79 0.81 1.21 1.84 1.65 1.34 1.29 1.42 1.50 1.39 1.29 1.28 1.44 1.54 1.64 1.74 1.84 2.02 2.40 2.85 3.28 3.51 3.74 4.14 4.43 4.57 4.62 4.50 4.26 3.93 3.64 3.36 3.09 2.76 2.30 1.95 1.75 1.63 1.55 1.61 1.64 1.67 1.72 1.80
0.09 0.13 0.25 0.36 0.46 0.75 1.18 1.68 2.21 2.07 1.55 1.34 1.38 1.35 1.30 1.30 1.29 1.46 1.62 1.72 1.81 1.85 2.00 2.15 2.40 2.64 2.88 3.05 3.21 3.34 3.39 3.32 3.22 3.02 2.78 2.58 2.39 2.15 1.98 1.76 1.56 1.43 1.39 1.40 1.43 1.42 1.41 1.49 1.57
0.12 0.16 0.22 0.40 0.68 1.02 1.33 1.92 2.64 2.60 2.03 1.62 1.53 1.46 1.35 1.31 1.34 1.47 1.53 1.61 1.66 1.61 1.68 1.76 1.98 2.10 2.26 2.38 2.41 2.30 2.31 2.30 2.18 2.02 1.92 1.78 1.59 1.47 1.42 1.35 1.33 1.27 1.19 1.23 1.29 1.27 1.25 1.34 1.36
0.15 0.19 0.30 0.42 0.52 1.00 1.55 2.29 2.52 2.68 2.45 2.05 1.65 1.41 1.31 1.27 1.26 1.30 1.34 1.37 1.39 1.31 1.32 1.41 1.56 1.76 1.86 1.85 1.88 1.82 1.75 1.62 1.53 1.43 1.40 1.31 1.22 1.19 1.18 1.18 1.18 1.15 1.13 1.13 1.12 1.09 1.09 1.14 1.27
0.15 0.20 0.33 0.58 0.62 0.76 1.31 2.40 2.50 2.77 2.65 2.28 1.90 1.58 1.43 1.37 1.25 1.19 1.16 1.15 1.15 1.11 1.10 1.18 1.24 1.33 1.37 1.40 1.41 1.39 1.34 1.24 1.20 1.15 1.12 1.13 1.10 1.07 1.10 1.10 1.10 1.13 1.17 1.18 1.12 1.02 1.00 1.07 1.17

GEFSSGP_prec_meanprecacc_228.txt.gz
Total_Precipitation_Accumulation
0.01 0.01 0.01 0.01 0.03 0.11 0.18 0.13 0.16 0.25 0.27 0.25 0.28 0.32 0.38 0.47 0.84 1.58 0.94 0.49 0.33 0.24 0.25 0.14 0.14 0.13 0.12 0.14 0.17 0.19 0.18 0.20 0.22 0.24 0.24 0.21 0.19 0.19 0.21 0.21 0.26 0.35 0.39 0.38 0.34 0.33 0.34 0.37 0.35
0.01 0.01 0.01 0.02 0.06 0.19 0.23 0.19 0.24 0.28 0.34 0.30 0.33 0.37 0.39 0.40 0.39 0.41 0.44 0.44 0.33 0.22 0.22 0.15 0.16 0.18 0.16 0.15 0.18 0.24 0.22 0.21 0.21 0.22 0.22 0.22 0.22 0.24 0.26 0.27 0.31 0.36 0.41 0.43 0.43 0.40 0.36 0.36 0.37
0.02 0.01 0.02 0.04 0.07 0.17 0.24 0.23 0.29 0.31 0.32 0.37 0.47 0.60 0.60 0.54 0.53 0.46 0.40 0.32 0.26 0.19 0.18 0.19 0.21 0.23 0.24 0.20 0.19 0.24 0.25 0.26 0.27 0.27 0.25 0.26 0.28 0.29 0.30 0.34 0.37 0.40 0.44 0.50 0.53 0.51 0.44 0.40 0.40
0.02 0.02 0.03 0.06 0.07 0.12 0.22 0.31 0.36 0.38 0.35 0.34 0.43 0.74 0.69 0.52 0.54 0.56 0.40 0.32 0.30 0.23 0.17 0.20 0.23 0.25 0.26 0.24 0.24 0.24 0.26 0.30 0.33 0.33 0.33 0.33 0.33 0.34 0.35 0.40 0.44 0.47 0.50 0.55 0.59 0.58 0.52 0.46 0.45
0.02 0.02 0.03 0.07 0.08 0.13 0.22 0.35 0.35 0.38 0.43 0.44 0.50 0.81 0.79 0.64 0.65 0.76 0.66 0.49 0.46 0.40 0.33 0.25 0.24 0.24 0.24 0.26 0.31 0.34 0.31 0.32 0.37 0.37 0.36 0.37 0.37 0.38 0.40 0.43 0.46 0.52 0.54 0.54 0.51 0.51 0.48 0.48 0.49
0.02 0.02 0.06 0.06 0.08 0.17 0.25 0.34 0.34 0.40 0.48 0.59 0.72 1.06 1.29 1.13 1.02 1.09 1.10 0.75 0.61 0.55 0.48 0.42 0.32 0.25 0.28 0.35 0.36 0.42 0.46 0.45 0.44 0.43 0.43 0.45 0.44 0.44 0.47 0.49 0.53 0.60 0.67 0.67 0.56 0.51 0.49 0.49 0.50
0.02 0.04 0.07 0.05 0.10 0.22 0.28 0.36 0.39 0.47 0.66 0.78 0.94 1.39 1.53 1.44 1.39 1.21 1.26 1.05 0.73 0.71 0.72 0.67 0.47 0.39 0.42 0.48 0.49 0.53 0.55 0.53 0.52 0.54 0.56 0.57 0.56 0.54 0.54 0.55 0.60 0.66 0.70 0.70 0.65 0.63 0.61 0.59 0.57
0.03 0.06 0.05 0.05 0.12 0.27 0.34 0.40 0.46 0.56 0.76 0.90 1.01 1.46 1.64 1.54 1.33 1.25 1.24 1.28 1.04 1.01 1.04 0.96 0.87 0.80 0.68 0.67 0.73 0.71 0.72 0.65 0.57 0.54 0.59 0.60 0.58 0.55 0.59 0.57 0.65 0.71 0.74 0.71 0.75 0.83 0.83 0.78 0.68
0.02 0.08 0.07 0.05 0.11 0.26 0.39 0.48 0.55 0.57 0.76 0.98 0.90 1.01 1.43 1.26 1.36 1.62 1.53 1.53 1.45 1.36 1.32 1.14 1.15 1.12 0.98 0.91 0.86 0.91 0.90 0.83 0.73 0.66 0.68 0.66 0.75 0.83 0.83 0.77 0.89 0.95 1.00 1.04 1.06 1.05 1.01 1.03 0.91
0.02 0.05 0.05 0.04 0.08 0.20 0.34 0.49 0.63 0.66 0.70 0.91 1.00 0.99 1.16 1.25 1.35 1.61 1.89 1.75 1.72 1.53 1.44 1.38 1.26 1.18 1.12 1.00 1.07 1.17 1.12 1.09 0.92 0.97 0.98 1.01 1.33 1.49 1.29 1.37 1.40 1.38 1.37 1.35 1.31 1.27 1.25 1.17 0.94
0.02 0.03 0.04 0.06 0.09 0.20 0.30 0.42 0.48 0.59 0.75 0.88 1.05 1.14 1.20 1.39 1.59 1.70 2.08 2.04 1.95 1.85 1.64 1.69 1.60 1.47 1.59 1.63 1.51 1.51 1.52 1.56 1.37 1.46 1.52 1.59 1.76 1.78 1.75 1.87 1.72 1.66 1.61 1.58 1.69 1.49 1.26 1.21 1.17
0.02 0.03 0.04 0.08 0.11 0.19 0.28 0.32 0.48 0.65 1.03 1.07 1.36 1.64 1.67 1.58 1.85 1.96 2.28 2.23 2.27 2.36 2.12 2.03 2.06 1.97 2.04 2.26 2.06 1.84 1.73 1.76 1.75 1.86 1.81 2.11 2.21 2.18 2.15 2.23 2.12 2.09 2.06 2.11 2.00 1.89 1.68 1.57 1.45
0.03 0.05 0.05 0.08 0.13 0.22 0.30 0.39 0.51 0.76 0.92 1.01 1.43 1.86 1.96 1.79 1.76 1.95 2.56 2.39 2.40 2.56 2.49 2.24 2.27 2.36 2.53 2.71 2.50 2.26 2.30 2.10 2.02 2.21 2.20 2.38 2.46 2.46 2.53 2.41 2.36 2.23 2.20 2.18 2.09 2.00 2.01 1.92 1.75
0.05 0.06 0.09 0.09 0.10 0.20 0.31 0.38 0.50 0.69 0.65 0.77 1.14 1.44 1.55 1.70 1.80 1.96 2.31 2.41 2.37 2.48 2.61 2.68 2.60 2.66 2.61 2.72 2.69 2.43 2.29 2.39 2.25 2.26 2.31 2.34 2.49 2.72 2.79 2.73 2.65 2.56 2.48 2.54 2.39 2.19 2.35 2.19 2.09
0.04 0.06 0.10 0.12 0.15 0.23 0.30 0.46 0.69 0.88 0.80 0.89 1.10 1.22 1.45 1.70 1.98 2.19 2.36 2.37 2.38 2.39 2.45 2.59 2.65 2.77 2.76 2.77 2.80 2.65 2.47 2.46 2.55 2.62 2.69 2.55 2.52 2.80 2.90 3.05 2.95 2.86 2.80 2.81 2.75 2.64 2.70 2.47 2.32
0.06 0.09 0.16 0.18 0.17 0.19 0.32 0.69 0.96 0.99 1.00 1.02 1.09 1.20 1.36 1.67 1.95 2.05 2.04 2.05 2.02 2.02 2.21 2.41 2.58 2.70 2.96 3.10 3.21 3.05 3.10 3.07 3.01 2.87 2.84 2.72 2.71 2.93 3.22 3.30 3.23 3.24 3.12 3.17 3.27 3.21 3.01 2.86 2.69
0.08 0.12 0.16 0.24 0.19 0.18 0.36 0.78 1.00 0.95 1.07 1.12 1.11 1.11 1.21 1.43 1.64 1.78 1.83 1.84 1.84 1.82 2.20 2.49 2.75 3.01 3.21 3.44 3.69 3.65 3.74 3.59 3.44 3.36 3.25 3.30 3.41 3.44 3.60 3.68 3.69 3.65 3.65 3.64 3.48 3.65 3.46 3.37 3.18
0.14 0.15 0.19 0.21 0.19 0.20 0.36 0.63 0.82 0.92 1.02 1.12 1.11 1.09 1.08 1.27 1.49 1.66 1.80 1.96 1.90 1.99 2.31 2.64 2.91 3.33 3.78 3.85 4.01 4.01 4.20 4.16 4.11 4.19 4.06 3.90 3.99 4.07 4.20 4.14 4.16 4.15 4.16 4.01 3.98 4.00 3.78 3.56 3.50
0.16 0.18 0.23 0.20 0.18 0.23 0.32 0.54 0.78 0.91 1.09 1.25 1.21 1.18 1.25 1.30 1.55 1.78 1.95 2.17 2.38 2.56 2.70 2.90 3.14 3.43 3.64 3.97 4.29 4.47 4.59 4.74 4.79 4.78 4.82 4.84 4.86 4.97 4.99 4.80 4.77 4.65 4.53 4.33 4.24 4.08 3.87 3.62 3.58
0.11 0.15 0.19 0.20 0.21 0.23 0.34 0.55 0.80 0.90 1.04 1.24 1.30 1.34 1.32 1.39 1.53 1.89 2.20 2.63 2.84 2.94 2.98 3.18 3.50 3.78 3.93 4.32 4.81 5.20 5.34 5.40 5.42 5.41 5.55 5.65 5.68 5.81 5.83 5.78 5.56 5.38 5.11 4.64 4.27 4.11 3.88 3.54 3.63
0.08 0.11 0.13 0.20 0.24 0.30 0.45 0.81 1.06 1.07 1.20 1.33 1.36 1.50 1.50 1.52 1.77 2.02 2.38 2.65 2.79 2.88 3.00 3.16 3.59 4.03 4.46 4.95 5.49 5.91 6.12 6.17 6.05 5.77 5.84 5.97 5.89 5.95 6.08 6.03 5.81 5.48 4.93 4.40 4.23 4.16 4.01 3.79 3.71
0.07 0.08 0.09 0.14 0.23 0.37 0.44 0.97 1.37 1.46 1.51 1.43 1.44 1.53 1.51 1.52 1.74 2.02 2.25 2.52 2.65 2.76 2.99 3.19 3.56 4.19 4.68 5.05 5.70 6.31 6.57 6.78 6.88 6.65 6.33 6.10 5.85 5.73 5.62 5.45 5.06 4.67 4.31 4.01 3.88 3.91 3.77 3.75 3.60
0.06 0.06 0.09 0.11 0.16 0.31 0.35 0.77 1.50 1.68 1.80 1.64 1.57 1.60 1.43 1.36 1.55 1.87 2.00 2.24 2.54 2.64 2.76 3.00 3.51 4.08 4.74 5.36 5.91 6.45 6.89 7.12 7.08 6.66 6.23 5.72 5.35 4.93 4.54 4.19 3.97 3.89 3.69 3.46 3.33 3.31 3.22 3.08 3.00
0.05 0.06 0.12 0.15 0.24 0.45 0.44 0.72 1.55 1.93 2.11 2.14 1.81 1.59 1.41 1.30 1.39 1.53 1.67 1.87 2.17 2.26 2.49 2.82 3.24 3.92 4.60 5.18 5.78 6.24 6.62 6.68 6.36 5.84 5.33 4.99 4.63 4.17 3.68 3.41 3.18 3.06 2.88 2.67 2.53 2.51 2.53 2.62 2.67
0.06 0.14 0.36 0.53 0.64 0.66 0.53 0.83 1.61 1.82 1.71 1.68 1.73 1.78 1.55 1.27 1.26 1.44 1.51 1.66 1.84 1.96 2.22 2.59 3.13 3.74 4.17 4.67 5.17 5.49 5.69 5.75 5.68 5.34 4.92 4.60 4.18 3.76 3.29 2.85 2.62 2.39 2.19 2.08 2.04 2.01 2.00 2.11 2.24
0.07 0.16 0.51 0.75 0.79 0.82 0.85 1.29 1.90 1.71 1.40 1.35 1.46 1.55 1.42 1.33 1.36 1.56 1.67 1.77 1.88 1.98 2.11 2.45 2.89 3.33 3.58 3.83 4.22 4.51 4.62 4.65 4.53 4.30 3.97 3.68 3.39 3.13 2.82 2.37 2.00 1.78 1.67 1.58 1.64 1.67 1.69 1.74 1.82
0.09 0.14 0.26 0.38 0.49 0.79 1.25 1.77 2.31 2.17 1.61 1.39 1.41 1.38 1.33 1.33 1.36 1.54 1.69 1.79 1.88 1.91 2.04 2.18 2.43 2.66 2.89 3.08 3.26 3.40 3.44 3.36 3.24 3.05 2.81 2.61 2.44 2.20 2.05 1.85 1.63 1.49 1.45 1.45 1.48 1.47 1.45 1.53 1.61
0.12 0.17 0.23 0.42 0.72 1.07 1.40 2.01 2.72 2.66 2.09 1.67 1.57 1.50 1.39 1.33 1.37 1.51 1.56 1.63 1.68 1.62 1.71 1.79 2.00 2.13 2.27 2.39 2.44 2.36 2.37 2.32 2.19 2.03 1.93 1.79 1.61 1.49 1.46 1.42 1.42 1.36 1.28 1.31 1.37 1.33 1.31 1.40 1.42
0.15 0.19 0.30 0.43 0.54 1.04 1.60 2.35 2.58 2.72 2.50 2.11 1.69 1.46 1.34 1.29 1.28 1.31 1.35 1.38 1.40 1.33 1.34 1.43 1.58 1.78 1.87 1.86 1.90 1.86 1.79 1.64 1.55 1.45 1.40 1.32 1.23 1.21 1.20 1.21 1.23 1.22 1.21 1.20 1.20 1.16 1.16 1.21 1.33
0.15 0.21 0.34 0.60 0.64 0.78 1.34 2.43 2.53 2.80 2.69 2.34 1.93 1.61 1.46 1.38 1.27 1.20 1.18 1.16 1.17 1.13 1.12 1.19 1.25 1.34 1.38 1.42 1.43 1.42 1.36 1.27 1.23 1.17 1.13 1.15 1.12 1.09 1.12 1.12 1.12 1.16 1.22 1.24 1.17 1.08 1.06 1.12 1.22

GEFSSGP_prec_meanprecacc_234.txt.gz
Total_Precipitation_Accumulation
0.01 0.01 0.01 0.01 0.03 0.11 0.18 0.13 0.17 0.26 0.28 0.28 0.34 0.37 0.41 0.49 0.86 1.60 0.95 0.50 0.34 0.26 0.28 0.16 0.15 0.15 0.14 0.15 0.20 0.22 0.20 0.22 0.23 0.25 0.25 0.23 0.21 0.22 0.24 0.24 0.30 0.39 0.42 0.41 0.36 0.35 0.38 0.40 0.40
0.02 0.01 0.02 0.03 0.06 0.19 0.23 0.20 0.24 0.29 0.36 0.34 0.41 0.43 0.43 0.43 0.41 0.42 0.46 0.45 0.35 0.24 0.24 0.17 0.18 0.20 0.18 0.17 0.21 0.27 0.24 0.23 0.23 0.24 0.23 0.23 0.23 0.26 0.29 0.30 0.33 0.39 0.45 0.48 0.47 0.44 0.41 0.41 0.41
0.02 0.01 0.03 0.04 0.07 0.18 0.24 0.23 0.30 0.33 0.34 0.41 0.56 0.67 0.66 0.58 0.55 0.48 0.42 0.35 0.28 0.21 0.20 0.23 0.25 0.26 0.26 0.23 0.21 0.27 0.28 0.28 0.28 0.29 0.26 0.28 0.30 0.30 0.32 0.36 0.39 0.42 0.48 0.55 0.59 0.57 0.49 0.45 0.45
0.02 0.02 0.03 0.06 0.08 0.12 0.23 0.31 0.36 0.41 0.38 0.37 0.49 0.85 0.78 0.57 0.56 0.58 0.42 0.34 0.31 0.25 0.19 0.23 0.29 0.28 0.29 0.27 0.26 0.26 0.28 0.31 0.34 0.35 0.34 0.34 0.35 0.35 0.36 0.41 0.46 0.50 0.53 0.58 0.63 0.64 0.57 0.51 0.50
0.02 0.03 0.04 0.07 0.09 0.14 0.23 0.36 0.36 0.39 0.46 0.46 0.55 0.90 0.87 0.68 0.67 0.78 0.68 0.51 0.48 0.43 0.36 0.29 0.29 0.28 0.28 0.29 0.34 0.36 0.33 0.34 0.38 0.38 0.37 0.39 0.40 0.40 0.43 0.46 0.49 0.54 0.56 0.57 0.55 0.55 0.52 0.52 0.55
0.03 0.02 0.06 0.07 0.08 0.17 0.26 0.36 0.36 0.41 0.49 0.60 0.74 1.09 1.33 1.17 1.06 1.12 1.12 0.77 0.63 0.57 0.51 0.46 0.37 0.29 0.33 0.38 0.38 0.44 0.48 0.47 0.45 0.44 0.45 0.48 0.47 0.46 0.49 0.52 0.56 0.63 0.70 0.70 0.61 0.57 0.54 0.53 0.55
0.03 0.04 0.08 0.06 0.10 0.23 0.30 0.38 0.40 0.48 0.67 0.79 0.96 1.42 1.56 1.47 1.43 1.26 1.31 1.10 0.76 0.74 0.75 0.72 0.52 0.45 0.48 0.53 0.52 0.56 0.58 0.55 0.54 0.55 0.58 0.59 0.59 0.59 0.58 0.59 0.64 0.69 0.73 0.73 0.70 0.70 0.66 0.64 0.61
0.04 0.07 0.05 0.06 0.12 0.27 0.35 0.41 0.46 0.56 0.77 0.91 1.03 1.49 1.66 1.56 1.36 1.29 1.31 1.36 1.11 1.05 1.06 0.99 0.93 0.86 0.76 0.77 0.79 0.75 0.75 0.69 0.60 0.57 0.62 0.63 0.61 0.60 0.65 0.62 0.69 0.75 0.77 0.75 0.80 0.90 0.90 0.84 0.73
0.02 0.09 0.07 0.05 0.11 0.26 0.40 0.49 0.56 0.57 0.77 0.98 0.91 1.03 1.45 1.28 1.38 1.64 1.55 1.56 1.49 1.39 1.35 1.16 1.18 1.16 1.05 1.01 0.92 0.95 0.94 0.88 0.78 0.69 0.71 0.69 0.78 0.88 0.88 0.82 0.94 1.00 1.05 1.09 1.11 1.10 1.08 1.10 0.98
0.02 0.05 0.05 0.04 0.08 0.20 0.35 0.50 0.64 0.68 0.71 0.92 1.01 1.00 1.19 1.28 1.37 1.62 1.91 1.77 1.74 1.55 1.46 1.40 1.29 1.22 1.18 1.07 1.12 1.20 1.15 1.13 0.97 1.02 1.01 1.03 1.36 1.54 1.33 1.42 1.46 1.44 1.44 1.41 1.37 1.33 1.33 1.24 0.99
0.02 0.03 0.05 0.06 0.10 0.20 0.31 0.43 0.50 0.62 0.77 0.89 1.07 1.17 1.23 1.43 1.62 1.73 2.10 2.07 1.97 1.86 1.65 1.71 1.62 1.49 1.63 1.67 1.55 1.55 1.55 1.59 1.40 1.50 1.58 1.64 1.80 1.82 1.80 1.90 1.76 1.72 1.67 1.63 1.74 1.55 1.30 1.24 1.19
0.02 0.04 0.05 0.09 0.13 0.20 0.28 0.33 0.50 0.68 1.05 1.09 1.39 1.67 1.71 1.63 1.90 2.00 2.31 2.26 2.29 2.37 2.13 2.04 2.08 1.99 2.07 2.29 2.09 1.88 1.76 1.79 1.78 1.89 1.85 2.14 2.24 2.21 2.18 2.26 2.16 2.13 2.10 2.14 2.03 1.92 1.70 1.59 1.46
0.04 0.06 0.07 0.10 0.15 0.24 0.32 0.40 0.54 0.81 0.96 1.08 1.51 1.92 2.01 1.85 1.81 1.98 2.59 2.41 2.42 2.58 2.51 2.25 2.29 2.37 2.55 2.74 2.53 2.30 2.33 2.12 2.05 2.24 2.24 2.40 2.48 2.48 2.56 2.45 2.41 2.27 2.24 2.21 2.11 2.03 2.04 1.95 1.77
0.06 0.07 0.10 0.10 0.13 0.22 0.33 0.42 0.56 0.75 0.70 0.84 1.22 1.53 1.63 1.77 1.85 2.01 2.34 2.44 2.40 2.51 2.63 2.70 2.62 2.67 2.62 2.74 2.71 2.46 2.33 2.42 2.29 2.29 2.35 2.37 2.51 2.74 2.81 2.76 2.69 2.61 2.53 2.57 2.41 2.21 2.39 2.24 2.14
0.04 0.07 0.11 0.13 0.15 0.24 0.31 0.49 0.73 0.93 0.84 0.93 1.14 1.26 1.49 1.76 2.06 2.27 2.41 2.40 2.41 2.41 2.46 2.62 2.69 2.81 2.79 2.80 2.83 2.68 2.51 2.51 2.60 2.67 2.73 2.59 2.55 2.82 2.92 3.06 2.97 2.89 2.83 2.85 2.79 2.67 2.73 2.50 2.37
0.06 0.09 0.16 0.19 0.18 0.19 0.33 0.70 0.97 1.01 1.02 1.05 1.11 1.22 1.39 1.70 2.01 2.13 2.09 2.08 2.03 2.04 2.23 2.43 2.62 2.75 3.02 3.14 3.24 3.08 3.14 3.13 3.07 2.92 2.88 2.76 2.76 2.97 3.25 3.31 3.24 3.25 3.14 3.19 3.30 3.24 3.05 2.90 2.72
0.09 0.12 0.16 0.24 0.20 0.19 0.36 0.78 1.00 0.96 1.08 1.14 1.13 1.13 1.23 1.46 1.70 1.85 1.89 1.87 1.85 1.84 2.22 2.52 2.79 3.07 3.28 3.52 3.75 3.71 3.79 3.65 3.51 3.42 3.30 3.33 3.46 3.49 3.64 3.72 3.72 3.69 3.69 3.66 3.50 3.67 3.49 3.40 3.20
0.14 0.15 0.20 0.21 0.19 0.20 0.36 0.63 0.82 0.93 1.04 1.14 1.13 1.11 1.09 1.29 1.53 1.72 1.87 2.00 1.92 2.01 2.35 2.69 2.95 3.39 3.84 3.92 4.08 4.09 4.28 4.24 4.19 4.25 4.12 3.95 4.03 4.11 4.24 4.17 4.19 4.19 4.22 4.06 4.01 4.03 3.81 3.59 3.54
0.16 0.18 0.24 0.21 0.19 0.25 0.34 0.54 0.79 0.92 1.11 1.26 1.22 1.19 1.25 1.32 1.59 1.81 2.00 2.21 2.45 2.62 2.76 2.97 3.19 3.48 3.68 4.02 4.34 4.53 4.66 4.83 4.86 4.84 4.86 4.88 4.89 5.00 5.03 4.83 4.79 4.69 4.57 4.37 4.27 4.11 3.89 3.64 3.61
0.11 0.15 0.20 0.22 0.22 0.24 0.36 0.57 0.81 0.91 1.06 1.25 1.31 1.35 1.33 1.41 1.57 1.93 2.26 2.70 2.93 3.01 3.06 3.27 3.57 3.83 3.98 4.37 4.86 5.25 5.38 5.46 5.49 5.47 5.60 5.68 5.71 5.85 5.87 5.81 5.59 5.41 5.14 4.66 4.29 4.12 3.90 3.55 3.65
0.08 0.11 0.14 0.21 0.25 0.31 0.48 0.84 1.07 1.08 1.21 1.35 1.37 1.51 1.51 1.55 1.81 2.06 2.45 2.75 2.90 2.98 3.09 3.27 3.70 4.10 4.51 4.99 5.54 5.95 6.15 6.18 6.07 5.80 5.88 6.00 5.91 5.98 6.12 6.07 5.85 5.53 4.98 4.43 4.25 4.18 4.03 3.81 3.73
0.07 0.09 0.10 0.15 0.24 0.38 0.45 0.98 1.38 1.47 1.52 1.44 1.45 1.54 1.53 1.56 1.78 2.07 2.31 2.60 2.75 2.86 3.08 3.28 3.66 4.27 4.74 5.10 5.74 6.34 6.59 6.79 6.89 6.66 6.35 6.11 5.87 5.75 5.69 5.52 5.11 4.72 4.36 4.06 3.92 3.95 3.81 3.79 3.63
0.07 0.06 0.10 0.13 0.18 0.32 0.36 0.78 1.51 1.69 1.81 1.66 1.59 1.62 1.46 1.40 1.58 1.91 2.05 2.33 2.65 2.75 2.84 3.07 3.59 4.16 4.81 5.43 5.96 6.50 6.92 7.15 7.10 6.68 6.24 5.73 5.37 4.95 4.57 4.25 4.02 3.94 3.74 3.52 3.39 3.36 3.26 3.11 3.02
0.05 0.07 0.14 0.17 0.26 0.47 0.45 0.73 1.56 1.94 2.11 2.15 1.83 1.62 1.46 1.34 1.42 1.57 1.71 1.93 2.30 2.40 2.60 2.92 3.34 4.00 4.67 5.25 5.84 6.30 6.67 6.73 6.40 5.87 5.35 5.01 4.65 4.18 3.70 3.44 3.23 3.10 2.92 2.71 2.58 2.55 2.57 2.65 2.70
0.06 0.15 0.39 0.56 0.67 0.68 0.54 0.84 1.61 1.83 1.71 1.68 1.75 1.81 1.60 1.30 1.29 1.47 1.55 1.71 1.94 2.10 2.35 2.71 3.24 3.84 4.26 4.74 5.23 5.55 5.76 5.82 5.73 5.38 4.94 4.61 4.19 3.78 3.31 2.88 2.66 2.43 2.22 2.11 2.07 2.03 2.02 2.13 2.26
0.07 0.18 0.53 0.76 0.80 0.82 0.86 1.29 1.90 1.72 1.40 1.35 1.47 1.56 1.45 1.36 1.39 1.58 1.70 1.80 1.94 2.06 2.22 2.56 2.99 3.43 3.66 3.90 4.30 4.58 4.70 4.73 4.59 4.34 3.99 3.69 3.40 3.15 2.85 2.41 2.04 1.83 1.70 1.60 1.67 1.70 1.71 1.76 1.85
0.10 0.15 0.26 0.39 0.49 0.79 1.25 1.78 2.31 2.17 1.62 1.39 1.42 1.39 1.35 1.35 1.38 1.56 1.71 1.81 1.90 1.94 2.09 2.24 2.51 2.75 2.97 3.15 3.35 3.49 3.51 3.42 3.30 3.09 2.83 2.62 2.45 2.22 2.07 1.87 1.65 1.52 1.48 1.49 1.52 1.51 1.49 1.57 1.65
0.13 0.17 0.23 0.42 0.72 1.08 1.41 2.01 2.73 2.67 2.09 1.67 1.57 1.51 1.40 1.34 1.38 1.52 1.57 1.64 1.70 1.65 1.74 1.83 2.05 2.18 2.33 2.44 2.49 2.41 2.42 2.36 2.23 2.06 1.95 1.80 1.63 1.51 1.49 1.45 1.44 1.38 1.31 1.34 1.41 1.36 1.36 1.46 1.48
0.15 0.19 0.30 0.43 0.54 1.04 1.61 2.36 2.58 2.73 2.50 2.11 1.69 1.46 1.35 1.30 1.29 1.32 1.36 1.39 1.42 1.35 1.35 1.45 1.61 1.81 1.90 1.89 1.93 1.90 1.82 1.66 1.57 1.47 1.42 1.33 1.24 1.22 1.22 1.24 1.26 1.26 1.24 1.23 1.24 1.21 1.21 1.27 1.41
0.15 0.21 0.34 0.60 0.64 0.78 1.35 2.43 2.53 2.81 2.69 2.34 1.94 1.62 1.47 1.39 1.28 1.21 1.18 1.16 1.17 1.14 1.13 1.20 1.27 1.36 1.39 1.43 1.45 1.46 1.38 1.28 1.24 1.19 1.15 1.16 1.13 1.10 1.13 1.15 1.15 1.19 1.25 1.27 1.21 1.11 1.10 1.18 1.29

GEFSSGP_prec_meanprecacc_240.txt.gz
Total_Precipitation_Accumulation
0.01 0.01 0.01 0.01 0.03 0.11 0.18 0.13 0.17 0.26 0.29 0.29 0.35 0.38 0.42 0.52 0.89 1.63 0.96 0.51 0.34 0.26 0.29 0.17 0.17 0.16 0.16 0.24 0.29 0.28 0.25 0.25 0.26 0.27 0.27 0.25 0.22 0.23 0.25 0.26 0.32 0.42 0.47 0.45 0.41 0.40 0.43 0.47 0.47
0.02 0.02 0.02 0.03 0.06 0.19 0.23 0.20 0.24 0.29 0.37 0.35 0.42 0.44 0.45 0.45 0.42 0.44 0.47 0.46 0.36 0.25 0.26 0.19 0.20 0.22 0.21 0.24 0.28 0.34 0.30 0.29 0.28 0.27 0.25 0.24 0.25 0.28 0.31 0.32 0.35 0.42 0.48 0.52 0.52 0.48 0.46 0.46 0.47
0.02 0.02 0.04 0.05 0.07 0.18 0.25 0.23 0.30 0.33 0.34 0.42 0.57 0.69 0.69 0.62 0.57 0.50 0.44 0.35 0.30 0.23 0.22 0.26 0.28 0.28 0.29 0.27 0.28 0.33 0.33 0.32 0.34 0.34 0.29 0.30 0.31 0.32 0.33 0.37 0.41 0.44 0.50 0.58 0.62 0.62 0.53 0.50 0.50
0.02 0.03 0.04 0.07 0.08 0.12 0.23 0.32 0.37 0.41 0.39 0.38 0.50 0.87 0.81 0.60 0.60 0.61 0.44 0.36 0.34 0.28 0.22 0.27 0.35 0.32 0.32 0.33 0.33 0.31 0.32 0.35 0.38 0.40 0.41 0.39 0.39 0.38 0.38 0.43 0.48 0.52 0.55 0.60 0.66 0.68 0.63 0.58 0.55
0.02 0.03 0.05 0.08 0.09 0.14 0.23 0.36 0.36 0.40 0.47 0.47 0.56 0.91 0.89 0.71 0.70 0.81 0.70 0.53 0.51 0.45 0.39 0.33 0.34 0.33 0.34 0.35 0.39 0.41 0.38 0.38 0.41 0.43 0.44 0.45 0.44 0.43 0.46 0.49 0.51 0.56 0.59 0.60 0.57 0.57 0.56 0.58 0.62
0.03 0.03 0.07 0.07 0.08 0.18 0.27 0.36 0.36 0.41 0.50 0.61 0.75 1.10 1.35 1.19 1.09 1.16 1.14 0.80 0.68 0.61 0.55 0.50 0.41 0.33 0.37 0.43 0.43 0.49 0.53 0.50 0.48 0.48 0.50 0.51 0.50 0.49 0.53 0.56 0.59 0.66 0.73 0.73 0.64 0.60 0.57 0.57 0.59
0.03 0.05 0.08 0.06 0.11 0.24 0.30 0.38 0.41 0.49 0.67 0.79 0.96 1.43 1.58 1.50 1.46 1.29 1.34 1.14 0.82 0.79 0.78 0.75 0.56 0.49 0.52 0.58 0.55 0.60 0.62 0.59 0.57 0.60 0.63 0.63 0.63 0.63 0.62 0.63 0.67 0.72 0.77 0.77 0.74 0.73 0.70 0.68 0.66
0.04 0.07 0.06 0.07 0.13 0.28 0.36 0.41 0.47 0.56 0.77 0.91 1.03 1.50 1.68 1.59 1.38 1.32 1.33 1.39 1.14 1.08 1.09 1.02 0.96 0.90 0.80 0.81 0.82 0.79 0.80 0.73 0.64 0.62 0.67 0.68 0.66 0.65 0.70 0.69 0.75 0.81 0.82 0.80 0.86 0.96 0.95 0.89 0.79
0.03 0.09 0.07 0.06 0.12 0.27 0.41 0.50 0.57 0.58 0.77 0.99 0.92 1.05 1.46 1.30 1.40 1.67 1.58 1.59 1.51 1.41 1.37 1.20 1.22 1.20 1.09 1.06 0.96 1.00 0.98 0.92 0.82 0.74 0.75 0.74 0.82 0.92 0.93 0.90 1.02 1.07 1.12 1.18 1.20 1.18 1.15 1.16 1.04
0.02 0.06 0.06 0.05 0.09 0.21 0.36 0.51 0.65 0.68 0.72 0.93 1.03 1.02 1.21 1.30 1.38 1.66 1.94 1.81 1.77 1.57 1.48 1.43 1.31 1.24 1.21 1.12 1.18 1.25 1.19 1.16 1.01 1.07 1.06 1.08 1.41 1.58 1.37 1.48 1.54 1.51 1.52 1.50 1.47 1.41 1.40 1.31 1.05
0.02 0.04 0.05 0.07 0.11 0.21 0.31 0.44 0.50 0.63 0.78 0.90 1.08 1.18 1.25 1.44 1.63 1.75 2.14 2.10 2.00 1.88 1.67 1.73 1.65 1.52 1.67 1.71 1.59 1.59 1.59 1.62 1.44 1.55 1.63 1.69 1.86 1.87 1.85 1.96 1.84 1.79 1.74 1.73 1.82 1.60 1.34 1.28 1.23
0.03 0.04 0.06 0.10 0.14 0.20 0.29 0.34 0.51 0.70 1.07 1.10 1.40 1.69 1.73 1.65 1.92 2.01 2.33 2.29 2.32 2.39 2.15 2.05 2.09 2.01 2.10 2.33 2.12 1.90 1.78 1.81 1.80 1.93 1.89 2.19 2.29 2.26 2.23 2.31 2.24 2.19 2.16 2.24 2.12 1.98 1.75 1.63 1.49
0.04 0.06 0.07 0.10 0.16 0.25 0.32 0.41 0.55 0.83 0.98 1.10 1.52 1.93 2.03 1.87 1.82 2.00 2.61 2.43 2.44 2.60 2.52 2.27 2.30 2.38 2.57 2.76 2.56 2.32 2.36 2.15 2.07 2.27 2.27 2.43 2.52 2.52 2.61 2.51 2.49 2.33 2.30 2.31 2.21 2.09 2.09 1.99 1.80
0.06 0.07 0.10 0.10 0.13 0.23 0.34 0.43 0.58 0.77 0.72 0.86 1.24 1.55 1.66 1.80 1.88 2.03 2.36 2.46 2.42 2.53 2.66 2.73 2.64 2.69 2.64 2.76 2.73 2.49 2.35 2.44 2.31 2.31 2.37 2.40 2.54 2.78 2.87 2.82 2.75 2.67 2.59 2.65 2.47 2.26 2.43 2.28 2.17
0.04 0.07 0.12 0.13 0.15 0.24 0.32 0.50 0.74 0.94 0.86 0.96 1.17 1.30 1.52 1.79 2.10 2.29 2.44 2.43 2.44 2.45 2.50 2.64 2.70 2.83 2.82 2.82 2.85 2.70 2.53 2.53 2.62 2.69 2.76 2.61 2.58 2.86 2.96 3.11 3.02 2.94 2.90 2.92 2.84 2.71 2.77 2.53 2.40
0.06 0.09 0.17 0.19 0.18 0.19 0.33 0.71 0.98 1.03 1.04 1.07 1.13 1.24 1.40 1.72 2.03 2.16 2.12 2.12 2.09 2.12 2.28 2.46 2.63 2.78 3.08 3.17 3.27 3.11 3.16 3.16 3.10 2.94 2.91 2.79 2.80 3.01 3.29 3.36 3.28 3.30 3.19 3.26 3.38 3.29 3.09 2.93 2.75
0.09 0.12 0.17 0.24 0.20 0.19 0.36 0.78 1.01 0.98 1.10 1.15 1.13 1.14 1.24 1.46 1.71 1.86 1.92 1.89 1.88 1.87 2.25 2.54 2.80 3.09 3.32 3.54 3.76 3.74 3.83 3.69 3.55 3.45 3.33 3.37 3.49 3.54 3.70 3.77 3.76 3.73 3.74 3.72 3.56 3.73 3.54 3.43 3.24
0.14 0.16 0.20 0.21 0.20 0.21 0.36 0.63 0.83 0.95 1.07 1.17 1.14 1.12 1.10 1.29 1.54 1.73 1.89 2.02 1.94 2.02 2.35 2.70 2.96 3.40 3.85 3.93 4.10 4.12 4.32 4.29 4.23 4.30 4.16 3.98 4.07 4.15 4.28 4.21 4.23 4.24 4.27 4.10 4.06 4.10 3.87 3.64 3.58
0.16 0.18 0.24 0.21 0.19 0.25 0.34 0.55 0.79 0.92 1.12 1.28 1.23 1.20 1.27 1.33 1.59 1.82 2.01 2.23 2.46 2.63 2.77 2.98 3.21 3.49 3.69 4.03 4.35 4.55 4.69 4.86 4.90 4.87 4.91 4.92 4.94 5.06 5.08 4.88 4.83 4.73 4.60 4.39 4.30 4.14 3.93 3.68 3.66
0.11 0.15 0.20 0.22 0.22 0.25 0.37 0.57 0.81 0.91 1.06 1.26 1.32 1.36 1.33 1.42 1.58 1.94 2.27 2.70 2.94 3.03 3.08 3.28 3.58 3.85 4.00 4.38 4.87 5.27 5.42 5.51 5.54 5.52 5.64 5.71 5.75 5.90 5.93 5.87 5.66 5.48 5.19 4.70 4.33 4.16 3.93 3.58 3.68
0.08 0.11 0.14 0.21 0.25 0.31 0.48 0.84 1.07 1.08 1.22 1.35 1.38 1.52 1.51 1.56 1.83 2.07 2.46 2.76 2.91 3.00 3.12 3.29 3.73 4.13 4.54 5.02 5.57 5.98 6.18 6.21 6.10 5.83 5.92 6.04 5.95 6.02 6.16 6.11 5.90 5.59 5.05 4.49 4.30 4.23 4.07 3.84 3.77
0.07 0.09 0.10 0.15 0.25 0.38 0.45 0.99 1.39 1.48 1.53 1.45 1.46 1.56 1.54 1.57 1.79 2.08 2.32 2.61 2.76 2.89 3.12 3.33 3.71 4.33 4.79 5.14 5.77 6.36 6.62 6.81 6.91 6.69 6.38 6.16 5.92 5.80 5.73 5.56 5.14 4.76 4.41 4.12 3.98 4.00 3.87 3.85 3.68
0.07 0.06 0.10 0.13 0.18 0.32 0.36 0.79 1.52 1.70 1.82 1.66 1.60 1.62 1.47 1.42 1.59 1.92 2.07 2.34 2.67 2.77 2.87 3.12 3.66 4.22 4.87 5.47 5.99 6.53 6.96 7.18 7.13 6.71 6.28 5.77 5.40 4.98 4.60 4.28 4.06 3.98 3.78 3.57 3.44 3.42 3.32 3.16 3.07
0.05 0.07 0.14 0.17 0.27 0.48 0.46 0.73 1.56 1.95 2.12 2.15 1.83 1.63 1.47 1.36 1.43 1.58 1.73 1.95 2.31 2.42 2.63 2.95 3.39 4.08 4.73 5.30 5.87 6.33 6.72 6.76 6.44 5.90 5.39 5.05 4.68 4.21 3.72 3.46 3.25 3.13 2.96 2.76 2.64 2.61 2.62 2.70 2.74
0.06 0.15 0.40 0.57 0.68 0.69 0.54 0.84 1.62 1.83 1.72 1.69 1.75 1.81 1.61 1.32 1.30 1.48 1.57 1.73 1.96 2.13 2.40 2.76 3.29 3.91 4.31 4.78 5.27 5.59 5.80 5.86 5.77 5.42 4.98 4.64 4.23 3.80 3.33 2.90 2.68 2.45 2.25 2.14 2.12 2.09 2.09 2.19 2.31
0.07 0.18 0.54 0.77 0.82 0.84 0.86 1.30 1.91 1.72 1.40 1.35 1.47 1.57 1.46 1.37 1.40 1.60 1.72 1.83 1.96 2.09 2.26 2.61 3.04 3.48 3.70 3.94 4.33 4.61 4.73 4.77 4.64 4.39 4.04 3.74 3.44 3.18 2.87 2.44 2.08 1.86 1.73 1.63 1.70 1.73 1.75 1.81 1.90
0.10 0.15 0.26 0.40 0.50 0.80 1.26 1.78 2.31 2.18 1.62 1.40 1.42 1.40 1.36 1.37 1.39 1.58 1.73 1.84 1.93 1.96 2.12 2.28 2.55 2.80 3.02 3.20 3.40 3.53 3.54 3.45 3.35 3.15 2.90 2.68 2.50 2.25 2.10 1.90 1.69 1.57 1.52 1.52 1.55 1.54 1.52 1.60 1.69
0.13 0.17 0.23 0.43 0.74 1.09 1.41 2.02 2.74 2.68 2.10 1.67 1.58 1.52 1.41 1.35 1.39 1.54 1.60 1.67 1.71 1.66 1.75 1.86 2.08 2.23 2.38 2.49 2.54 2.46 2.46 2.40 2.27 2.10 2.01 1.87 1.68 1.55 1.53 1.48 1.48 1.42 1.35 1.40 1.46 1.41 1.39 1.50 1.52
0.15 0.19 0.31 0.44 0.55 1.05 1.61 2.37 2.60 2.74 2.51 2.11 1.69 1.47 1.37 1.32 1.30 1.34 1.38 1.41 1.44 1.37 1.37 1.47 1.64 1.84 1.95 1.95 1.98 1.96 1.87 1.70 1.60 1.50 1.45 1.38 1.29 1.27 1.27 1.28 1.29 1.28 1.27 1.28 1.29 1.26 1.27 1.33 1.46
0.15 0.21 0.35 0.61 0.65 0.79 1.35 2.44 2.54 2.81 2.70 2.35 1.94 1.62 1.49 1.41 1.29 1.22 1.20 1.20 1.21 1.16 1.14 1.21 1.28 1.37 1.42 1.48 1.50 1.51 1.43 1.32 1.27 1.22 1.18 1.19 1.15 1.12 1.16 1.17 1.17 1.22 1.28 1.31 1.25 1.16 1.14 1.23 1.34

GEFSSGP_prec_meanprecacc_246.txt.gz
Total_Precipitation_Accumulation
0.01 0.01 0.01 0.01 0.04 0.12 0.19 0.14 0.17 0.26 0.29 0.29 0.35 0.38 0.43 0.53 0.92 1.72 1.00 0.51 0.35 0.26 0.30 0.17 0.18 0.17 0.19 0.28 0.32 0.30 0.28 0.27 0.28 0.29 0.30 0.28 0.25 0.26 0.28 0.28 0.34 0.44 0.49 0.48 0.43 0.43 0.50 0.56 0.57
0.02 0.02 0.02 0.03 0.07 0.20 0.24 0.21 0.25 0.30 0.37 0.35 0.42 0.44 0.45 0.46 0.43 0.46 0.48 0.46 0.36 0.25 0.27 0.20 0.20 0.23 0.24 0.26 0.30 0.37 0.34 0.32 0.31 0.30 0.28 0.28 0.28 0.31 0.34 0.34 0.37 0.44 0.50 0.54 0.54 0.51 0.50 0.52 0.53
0.02 0.02 0.04 0.05 0.08 0.19 0.26 0.24 0.30 0.33 0.35 0.43 0.58 0.69 0.70 0.63 0.57 0.51 0.45 0.36 0.30 0.24 0.23 0.27 0.29 0.29 0.31 0.30 0.30 0.36 0.37 0.37 0.39 0.39 0.33 0.33 0.35 0.36 0.37 0.40 0.43 0.46 0.52 0.60 0.64 0.64 0.56 0.55 0.56
0.02 0.03 0.04 0.07 0.09 0.13 0.23 0.32 0.37 0.42 0.39 0.39 0.50 0.87 0.81 0.60 0.60 0.61 0.44 0.36 0.34 0.28 0.23 0.28 0.36 0.34 0.34 0.36 0.36 0.33 0.36 0.39 0.43 0.45 0.44 0.42 0.42 0.41 0.42 0.46 0.50 0.53 0.56 0.62 0.69 0.71 0.66 0.62 0.61
0.02 0.03 0.05 0.08 0.10 0.14 0.23 0.36 0.36 0.40 0.47 0.48 0.56 0.91 0.90 0.72 0.71 0.82 0.70 0.53 0.51 0.46 0.40 0.34 0.35 0.35 0.36 0.39 0.43 0.45 0.42 0.42 0.45 0.47 0.48 0.49 0.48 0.46 0.49 0.52 0.53 0.59 0.61 0.61 0.59 0.59 0.58 0.61 0.67
0.03 0.03 0.07 0.07 0.09 0.18 0.27 0.36 0.36 0.41 0.50 0.61 0.75 1.11 1.37 1.21 1.10 1.17 1.15 0.81 0.69 0.62 0.56 0.51 0.43 0.35 0.40 0.47 0.49 0.54 0.57 0.54 0.52 0.52 0.54 0.55 0.53 0.51 0.54 0.58 0.61 0.68 0.75 0.75 0.66 0.61 0.59 0.60 0.62
0.03 0.05 0.08 0.07 0.11 0.24 0.31 0.39 0.41 0.49 0.69 0.81 0.98 1.45 1.61 1.52 1.48 1.30 1.35 1.16 0.85 0.81 0.80 0.77 0.57 0.51 0.55 0.62 0.60 0.64 0.66 0.63 0.60 0.63 0.67 0.67 0.66 0.65 0.64 0.65 0.70 0.75 0.79 0.80 0.77 0.75 0.73 0.71 0.69
0.04 0.07 0.06 0.07 0.14 0.29 0.36 0.42 0.47 0.57 0.78 0.93 1.05 1.54 1.71 1.61 1.40 1.33 1.35 1.41 1.19 1.14 1.13 1.05 1.00 0.93 0.83 0.84 0.87 0.83 0.83 0.77 0.68 0.65 0.71 0.71 0.68 0.67 0.73 0.71 0.78 0.83 0.84 0.82 0.88 0.99 0.98 0.92 0.82
0.03 0.09 0.08 0.06 0.12 0.27 0.41 0.50 0.58 0.59 0.77 0.99 0.93 1.07 1.50 1.32 1.42 1.68 1.59 1.62 1.55 1.48 1.43 1.24 1.26 1.24 1.11 1.09 1.00 1.04 1.02 0.95 0.86 0.78 0.79 0.76 0.85 0.95 0.96 0.92 1.05 1.09 1.14 1.20 1.22 1.22 1.19 1.20 1.07
0.02 0.06 0.06 0.05 0.09 0.21 0.36 0.52 0.67 0.72 0.74 0.94 1.04 1.04 1.24 1.35 1.39 1.67 1.96 1.85 1.81 1.62 1.54 1.47 1.35 1.27 1.24 1.16 1.22 1.30 1.23 1.21 1.04 1.11 1.10 1.12 1.46 1.63 1.41 1.53 1.58 1.54 1.55 1.53 1.50 1.44 1.45 1.35 1.09
0.02 0.04 0.06 0.08 0.11 0.21 0.32 0.45 0.52 0.66 0.81 0.93 1.11 1.19 1.26 1.45 1.64 1.77 2.17 2.15 2.05 1.93 1.71 1.76 1.68 1.56 1.70 1.75 1.64 1.64 1.65 1.68 1.48 1.59 1.67 1.74 1.93 1.94 1.92 2.03 1.90 1.86 1.80 1.78 1.86 1.64 1.37 1.32 1.26
0.03 0.04 0.06 0.12 0.15 0.21 0.29 0.34 0.52 0.73 1.09 1.13 1.43 1.70 1.73 1.65 1.92 2.02 2.35 2.35 2.39 2.45 2.20 2.10 2.13 2.07 2.17 2.41 2.22 1.96 1.84 1.87 1.85 1.99 1.94 2.24 2.36 2.34 2.30 2.38 2.30 2.26 2.22 2.29 2.17 2.02 1.79 1.67 1.53
0.04 0.06 0.07 0.10 0.16 0.25 0.32 0.42 0.57 0.85 0.99 1.12 1.53 1.94 2.03 1.87 1.83 2.01 2.62 2.48 2.50 2.67 2.59 2.34 2.35 2.44 2.67 2.88 2.75 2.47 2.42 2.19 2.11 2.32 2.33 2.48 2.57 2.58 2.66 2.58 2.57 2.40 2.36 2.37 2.26 2.15 2.16 2.07 1.86
0.06 0.07 0.10 0.10 0.13 0.23 0.35 0.43 0.59 0.81 0.73 0.88 1.26 1.56 1.66 1.81 1.90 2.05 2.38 2.49 2.46 2.58 2.72 2.80 2.70 2.75 2.70 2.83 2.82 2.61 2.43 2.52 2.38 2.37 2.42 2.46 2.60 2.83 2.92 2.87 2.80 2.71 2.64 2.71 2.54 2.33 2.54 2.38 2.24
0.04 0.07 0.12 0.13 0.16 0.24 0.32 0.51 0.75 0.97 0.89 0.97 1.18 1.32 1.55 1.82 2.12 2.32 2.46 2.46 2.48 2.51 2.58 2.74 2.78 2.89 2.88 2.88 2.91 2.76 2.59 2.58 2.67 2.75 2.86 2.70 2.65 2.92 3.02 3.16 3.07 2.99 2.94 2.99 2.92 2.81 2.88 2.61 2.45
0.06 0.09 0.18 0.21 0.18 0.20 0.34 0.72 0.99 1.04 1.07 1.10 1.16 1.27 1.44 1.76 2.07 2.18 2.15 2.15 2.12 2.17 2.40 2.61 2.77 2.87 3.14 3.23 3.32 3.14 3.20 3.20 3.13 2.98 2.96 2.85 2.86 3.08 3.36 3.43 3.36 3.36 3.26 3.34 3.45 3.37 3.17 3.02 2.82
0.09 0.14 0.19 0.26 0.20 0.19 0.37 0.79 1.02 0.98 1.12 1.18 1.16 1.17 1.27 1.49 1.74 1.88 1.93 1.91 1.89 1.90 2.32 2.65 2.93 3.20 3.39 3.59 3.80 3.76 3.86 3.73 3.60 3.51 3.39 3.43 3.54 3.59 3.77 3.85 3.83 3.81 3.84 3.80 3.63 3.80 3.59 3.49 3.30
0.16 0.16 0.21 0.22 0.21 0.22 0.37 0.64 0.83 0.95 1.07 1.18 1.17 1.15 1.12 1.31 1.55 1.75 1.90 2.03 1.94 2.04 2.38 2.74 3.03 3.51 3.95 4.01 4.15 4.16 4.36 4.33 4.28 4.36 4.21 4.03 4.11 4.20 4.36 4.27 4.28 4.31 4.36 4.19 4.15 4.19 3.95 3.70 3.64
0.16 0.18 0.24 0.21 0.20 0.26 0.35 0.55 0.79 0.92 1.12 1.28 1.25 1.21 1.28 1.34 1.61 1.83 2.02 2.23 2.47 2.65 2.79 3.01 3.24 3.56 3.77 4.09 4.40 4.60 4.73 4.90 4.95 4.93 4.97 4.99 4.99 5.10 5.14 4.92 4.89 4.80 4.68 4.48 4.39 4.24 4.01 3.76 3.75
0.11 0.15 0.20 0.22 0.22 0.25 0.37 0.57 0.81 0.92 1.06 1.26 1.33 1.37 1.34 1.42 1.59 1.95 2.28 2.71 2.94 3.04 3.09 3.31 3.62 3.89 4.04 4.42 4.92 5.33 5.47 5.54 5.58 5.57 5.71 5.79 5.81 5.94 5.95 5.91 5.70 5.53 5.27 4.79 4.42 4.25 4.01 3.65 3.77
0.08 0.11 0.14 0.21 0.25 0.32 0.49 0.85 1.09 1.09 1.22 1.35 1.38 1.52 1.52 1.57 1.84 2.08 2.47 2.77 2.92 3.02 3.13 3.32 3.77 4.17 4.59 5.06 5.62 6.05 6.24 6.26 6.15 5.88 5.98 6.10 5.99 6.06 6.19 6.14 5.93 5.64 5.11 4.57 4.39 4.33 4.15 3.91 3.84
0.08 0.09 0.10 0.15 0.25 0.40 0.46 1.01 1.41 1.50 1.54 1.46 1.47 1.56 1.54 1.57 1.80 2.09 2.33 2.62 2.77 2.90 3.13 3.35 3.75 4.37 4.84 5.19 5.82 6.42 6.67 6.87 6.96 6.75 6.44 6.21 5.96 5.83 5.77 5.59 5.18 4.81 4.46 4.18 4.04 4.09 3.96 3.93 3.76
0.07 0.07 0.10 0.13 0.19 0.33 0.38 0.82 1.57 1.72 1.84 1.68 1.62 1.63 1.48 1.42 1.59 1.93 2.07 2.35 2.68 2.78 2.89 3.14 3.69 4.28 4.94 5.54 6.05 6.59 7.03 7.25 7.20 6.79 6.35 5.83 5.44 5.01 4.64 4.32 4.11 4.02 3.83 3.63 3.51 3.51 3.41 3.26 3.17
0.06 0.08 0.14 0.18 0.28 0.52 0.48 0.76 1.62 1.97 2.13 2.16 1.85 1.64 1.47 1.37 1.43 1.58 1.74 1.97 2.33 2.43 2.64 2.97 3.41 4.13 4.81 5.40 5.94 6.40 6.78 6.83 6.51 5.98 5.45 5.09 4.73 4.24 3.76 3.50 3.30 3.18 3.01 2.81 2.70 2.68 2.70 2.78 2.83
0.06 0.16 0.44 0.63 0.74 0.74 0.57 0.86 1.65 1.84 1.72 1.69 1.75 1.82 1.61 1.32 1.31 1.49 1.59 1.76 1.99 2.16 2.42 2.78 3.33 3.97 4.39 4.86 5.34 5.65 5.86 5.93 5.84 5.49 5.04 4.70 4.29 3.86 3.39 2.96 2.74 2.51 2.31 2.20 2.18 2.16 2.16 2.27 2.39
0.07 0.20 0.59 0.84 0.87 0.88 0.90 1.33 1.93 1.74 1.41 1.36 1.48 1.57 1.46 1.38 1.41 1.62 1.74 1.86 2.00 2.12 2.29 2.64 3.09 3.54 3.78 3.99 4.38 4.66 4.77 4.83 4.69 4.44 4.08 3.80 3.51 3.24 2.93 2.49 2.14 1.92 1.78 1.68 1.77 1.80 1.82 1.88 1.97
0.11 0.17 0.29 0.43 0.53 0.86 1.31 1.81 2.34 2.20 1.63 1.41 1.43 1.40 1.37 1.37 1.40 1.61 1.77 1.88 1.98 2.00 2.16 2.34 2.60 2.84 3.07 3.24 3.43 3.58 3.58 3.50 3.39 3.19 2.94 2.74 2.55 2.29 2.15 1.95 1.74 1.61 1.57 1.57 1.60 1.59 1.58 1.67 1.76
0.14 0.20 0.26 0.47 0.80 1.18 1.48 2.06 2.78 2.71 2.12 1.69 1.59 1.53 1.42 1.36 1.40 1.56 1.64 1.70 1.75 1.69 1.79 1.92 2.14 2.27 2.43 2.53 2.58 2.50 2.51 2.45 2.31 2.15 2.05 1.91 1.72 1.59 1.57 1.53 1.52 1.45 1.39 1.44 1.52 1.46 1.45 1.56 1.58
0.16 0.22 0.32 0.46 0.59 1.13 1.69 2.41 2.62 2.76 2.54 2.13 1.71 1.48 1.38 1.33 1.30 1.35 1.40 1.44 1.46 1.39 1.40 1.51 1.68 1.88 1.99 1.99 2.02 1.99 1.92 1.74 1.64 1.54 1.49 1.42 1.33 1.31 1.31 1.32 1.33 1.32 1.30 1.32 1.34 1.31 1.32 1.38 1.53
0.16 0.22 0.36 0.63 0.68 0.84 1.41 2.50 2.55 2.82 2.71 2.36 1.96 1.63 1.50 1.42 1.30 1.23 1.22 1.23 1.23 1.19 1.17 1.24 1.32 1.41 1.46 1.52 1.54 1.54 1.47 1.37 1.32 1.25 1.21 1.21 1.19 1.18 1.20 1.20 1.20 1.24 1.31 1.34 1.29 1.20 1.20 1.28 1.41